[[{"header":{"parameterUnit":"m.s-1","parameterCategory":1,"la1":30.6,"la2":28.766,"lo1":-90.7593,"lo2":-88.6598,"dy":0.0162,"dx":0.0183,"nx":116,"ny":114,"refTime":"2023-10-01T06:00:00:Z","depth":0,"parameterNumber":2,"parameterNumberName":"U-component_of_WINDS"},"data":[0.0,0.0,0.0,0.0,0.0,0.0,0.0,0.0,0.0,0.0,0.0,0.0,0.0,0.0,0.0,0.0,0.0,0.0,0.0,0.0,0.0,0.0,0.0,0.0,0.0,0.0,0.0,0.0,0.0,0.0,0.0,0.0,0.0,0.0,0.0,0.0,0.0,0.0,0.0,0.0,0.0,0.0,0.0,0.0,0.0,0.0,0.0,0.0,0.0,0.0,0.0,0.0,0.0,0.0,0.0,0.0,0.0,0.0,0.0,0.0,0.0,0.0,0.0,0.0,0.0,0.0,0.0,0.0,0.0,0.0,0.0,0.0,0.0,0.0,0.0,0.0,0.0,0.0,0.0,0.0,0.0,0.0,0.0,0.0,0.0,0.0,0.0,0.0,0.0,0.0,0.0,0.0,0.0,0.0,0.0,0.0,0.0,0.0,0.0,0.0,0.0,0.0,0.0,0.0,0.0,0.0,0.0,0.0,0.0,0.0,0.0,0.0,0.0,0.0,0.0,0.0,0.0,0.0,0.0,0.0,0.0,0.0,0.0,0.0,0.0,0.0,0.0,0.0,0.0,0.0,0.0,0.0,0.0,0.0,0.0,0.0,0.0,0.0,0.0,0.0,0.0,0.0,0.0,0.0,0.0,0.0,0.0,0.0,0.0,0.0,0.0,0.0,0.0,0.0,0.0,0.0,0.0,0.0,0.0,0.0,0.0,0.0,0.0,0.0,0.0,0.0,0.0,0.0,0.0,0.0,0.0,0.0,0.0,0.0,0.0,0.0,0.0,0.0,0.0,0.0,0.0,0.0,0.0,0.0,0.0,0.0,0.0,0.0,0.0,0.0,0.0,0.0,0.0,0.0,0.0,0.0,0.0,0.0,0.0,0.0,0.0,0.0,0.0,0.0,0.0,0.0,0.0,0.0,0.0,0.0,0.0,0.0,0.0,0.0,0.0,0.0,0.0,0.0,0.0,0.0,0.0,0.0,0.0,0.0,0.0,0.0,0.0,0.0,0.0,0.0,0.0,0.0,0.0,0.0,0.0,0.0,0.0,0.0,0.0,0.0,0.0,0.0,0.0,0.0,0.0,0.0,0.0,0.0,0.0,0.0,0.0,0.0,0.0,0.0,0.0,0.0,0.0,0.0,0.0,0.0,0.0,0.0,0.0,0.0,0.0,0.0,0.0,0.0,0.0,0.0,0.0,0.0,0.0,0.0,0.0,0.0,0.0,0.0,0.0,0.0,0.0,0.0,0.0,0.0,0.0,0.0,0.0,0.0,0.0,0.0,0.0,0.0,0.0,0.0,0.0,0.0,0.0,0.0,0.0,0.0,0.0,0.0,0.0,0.0,0.0,0.0,0.0,0.0,0.0,0.0,0.0,0.0,0.0,0.0,0.0,0.0,0.0,0.0,0.0,0.0,0.0,0.0,0.0,0.0,0.0,0.0,0.0,0.0,0.0,0.0,0.0,0.0,0.0,0.0,0.0,0.0,0.0,0.0,0.0,0.0,0.0,0.0,0.0,0.0,0.0,0.0,0.0,0.0,0.0,0.0,0.0,0.0,0.0,0.0,0.0,0.0,0.0,0.0,0.0,0.0,0.0,0.0,0.0,0.0,0.0,0.0,0.0,0.0,0.0,0.0,0.0,0.0,0.0,0.0,0.0,0.0,0.0,0.0,0.0,0.0,0.0,0.0,0.0,0.0,0.0,0.0,0.0,0.0,0.0,0.0,0.0,0.0,0.0,0.0,0.0,0.0,0.0,0.0,0.0,0.0,0.0,0.0,0.0,0.0,0.0,0.0,0.0,0.0,0.0,0.0,0.0,0.0,0.0,0.0,0.0,0.0,0.0,0.0,0.0,0.0,0.0,0.0,0.0,0.0,0.0,0.0,0.0,0.0,0.0,0.0,0.0,0.0,0.0,0.0,0.0,0.0,0.0,0.0,0.0,0.0,0.0,0.0,0.0,0.0,0.0,0.0,0.0,0.0,0.0,0.0,0.0,0.0,0.0,0.0,0.0,0.0,0.0,0.0,0.0,0.0,0.0,0.0,0.0,0.0,0.0,0.0,0.0,0.0,0.0,0.0,0.0,0.0,0.0,0.0,0.0,0.0,0.0,0.0,0.0,0.0,0.0,0.0,0.0,0.0,0.0,0.0,0.0,0.0,0.0,0.0,0.0,0.0,0.0,0.0,0.0,0.0,0.0,0.0,0.0,0.0,0.0,0.0,0.0,0.0,0.0,0.0,0.0,0.0,0.0,0.0,0.0,0.0,0.0,0.0,0.0,0.0,0.0,0.0,0.0,0.0,0.0,0.0,0.0,0.0,0.0,0.0,0.0,0.0,0.0,0.0,0.0,0.0,0.0,0.0,0.0,0.0,0.0,0.0,0.0,0.0,0.0,0.0,0.0,0.0,0.0,0.0,0.0,0.0,0.0,0.0,0.0,0.0,0.0,0.0,0.0,0.0,0.0,0.0,0.0,0.0,0.0,0.0,0.0,0.0,0.0,0.0,0.0,0.0,0.0,0.0,0.0,0.0,0.0,0.0,0.0,0.0,0.0,0.0,0.0,0.0,0.0,0.0,0.0,0.0,0.0,0.0,0.0,0.0,0.0,0.0,0.0,0.0,0.0,0.0,0.0,0.0,0.0,0.0,0.0,0.0,0.0,0.0,0.0,0.0,0.0,0.0,0.0,0.0,0.0,0.0,0.0,0.0,0.0,0.0,0.0,0.0,0.0,0.0,0.0,0.0,0.0,0.0,0.0,0.0,0.0,0.0,0.0,0.0,0.0,0.0,0.0,0.0,0.0,0.0,0.0,0.0,0.0,0.0,0.0,0.0,0.0,0.0,0.0,0.0,0.0,0.0,0.0,0.0,0.0,0.0,0.0,0.0,0.0,0.0,0.0,0.0,0.0,0.0,0.0,0.0,0.0,0.0,0.0,0.0,0.0,0.0,0.0,0.0,0.0,0.0,0.0,0.0,0.0,0.0,0.0,0.0,0.0,0.0,0.0,0.0,0.0,0.0,0.0,0.0,0.0,0.0,0.0,0.0,0.0,0.0,0.0,0.0,0.0,0.0,0.0,0.0,0.0,0.0,0.0,0.0,0.0,0.0,0.0,0.0,0.0,0.0,0.0,0.0,0.0,0.0,0.0,0.0,0.0,0.0,0.0,0.0,0.0,0.0,0.0,0.0,0.0,0.0,0.0,0.0,0.0,0.0,0.0,0.0,0.0,0.0,0.0,0.0,0.0,0.0,0.0,0.0,0.0,0.0,0.0,0.0,0.0,0.0,0.0,0.0,0.0,0.0,0.0,0.0,0.0,0.0,0.0,0.0,0.0,0.0,0.0,0.0,0.0,0.0,0.0,0.0,0.0,0.0,0.0,0.0,0.0,0.0,0.0,0.0,0.0,0.0,0.0,0.0,0.0,0.0,0.0,0.0,0.0,0.0,0.0,0.0,0.0,0.0,0.0,0.0,0.0,0.0,0.0,0.0,0.0,0.0,0.0,0.0,0.0,0.0,0.0,0.0,0.0,0.0,0.0,0.0,0.0,0.0,0.0,0.0,0.0,0.0,0.0,0.0,0.0,0.0,0.0,0.0,0.0,0.0,0.0,0.0,0.0,0.0,0.0,0.0,0.0,0.0,0.0,0.0,0.0,0.0,0.0,0.0,0.0,0.0,0.0,0.0,0.0,0.0,0.0,0.0,0.0,0.0,0.0,0.0,0.0,0.0,0.0,0.0,0.0,0.0,0.0,0.0,0.0,0.0,0.0,0.0,0.0,0.0,0.0,0.0,0.0,0.0,0.0,0.0,0.0,0.0,0.0,0.0,0.0,0.0,0.0,0.0,0.0,0.0,0.0,0.0,0.0,0.0,0.0,0.0,0.0,0.0,0.0,0.0,0.0,0.0,0.0,0.0,0.0,0.0,0.0,0.0,0.0,0.0,0.0,0.0,0.0,0.0,0.0,0.0,0.0,0.0,0.0,0.0,0.0,0.0,0.0,0.0,0.0,0.0,0.0,0.0,0.0,0.0,0.0,0.0,0.0,0.0,0.0,0.0,0.0,0.0,0.0,0.0,0.0,0.0,0.0,0.0,0.0,0.0,0.0,0.0,0.0,0.0,0.0,0.0,0.0,0.0,0.0,0.0,0.0,0.0,0.0,0.0,0.0,0.0,0.0,0.0,0.0,0.0,0.0,0.0,0.0,0.0,0.0,0.0,0.0,0.0,0.0,0.0,0.0,0.0,0.0,0.0,0.0,0.0,0.0,0.0,0.0,0.0,0.0,0.0,0.0,0.0,0.0,0.0,0.0,0.0,0.0,0.0,0.0,0.0,0.0,0.0,0.0,0.0,0.0,0.0,0.0,0.0,0.0,0.0,0.0,0.0,0.0,0.0,0.0,0.0,0.0,0.0,0.0,0.0,0.0,0.0,0.0,0.0,0.0,0.0,0.0,0.0,0.0,0.0,0.0,0.0,0.0,0.0,0.0,0.0,0.0,0.0,0.0,0.0,0.0,0.0,0.0,0.0,0.0,0.0,0.0,0.0,0.0,0.0,0.0,0.0,0.0,0.0,0.0,0.0,0.0,0.0,0.0,0.0,0.0,0.0,0.0,0.0,0.0,0.0,0.0,0.0,0.0,0.0,0.0,0.0,0.0,0.0,0.0,0.0,0.0,0.0,0.0,0.0,0.0,0.0,0.0,0.0,0.0,0.0,0.0,0.0,0.0,0.0,0.0,0.0,0.0,0.0,0.0,0.0,0.0,0.0,0.0,0.0,0.0,0.0,0.0,0.0,0.0,0.0,0.0,0.0,0.0,0.0,0.0,0.0,0.0,0.0,0.0,0.0,0.0,0.0,0.0,0.0,0.0,0.0,0.0,0.0,0.0,0.0,0.0,0.0,0.0,0.0,0.0,0.0,0.0,0.0,0.0,0.0,0.0,0.0,0.0,0.0,0.0,0.0,0.0,0.0,0.0,0.0,0.0,0.0,0.0,0.0,0.0,0.0,0.0,0.0,0.0,0.0,0.0,0.0,0.0,0.0,0.0,0.0,0.0,0.0,0.0,0.0,0.0,0.0,0.0,0.0,0.0,0.0,0.0,0.0,0.0,0.0,0.0,0.0,0.0,0.0,0.0,0.0,0.0,0.0,0.0,0.0,0.0,0.0,0.0,0.0,0.0,0.0,0.0,0.0,0.0,0.0,0.0,0.0,0.0,0.0,0.0,0.0,0.0,0.0,0.0,0.0,0.0,0.0,0.0,0.0,0.0,0.0,0.0,0.0,0.0,0.0,0.0,0.0,0.0,0.0,0.0,0.0,0.0,0.0,0.0,0.0,0.0,0.0,0.0,0.0,0.0,0.0,0.0,0.0,0.0,0.0,0.0,0.0,0.0,0.0,0.0,0.0,0.0,0.0,0.0,0.0,0.0,0.0,0.0,0.0,0.0,0.0,0.0,0.0,0.0,0.0,0.0,0.0,0.0,0.0,0.0,0.0,0.0,0.0,0.0,0.0,0.0,0.0,0.0,0.0,0.0,0.0,0.0,0.0,0.0,0.0,0.0,0.0,0.0,0.0,0.0,0.0,0.0,0.0,0.0,0.0,0.0,0.0,0.0,0.0,0.0,0.0,0.0,0.0,0.0,0.0,0.0,0.0,0.0,0.0,0.0,0.0,0.0,0.0,0.0,0.0,0.0,0.0,0.0,0.0,0.0,0.0,0.0,0.0,0.0,0.0,0.0,0.0,0.0,0.0,0.0,0.0,0.0,0.0,0.0,0.0,0.0,0.0,0.0,0.0,0.0,0.0,0.0,0.0,0.0,0.0,0.0,0.0,0.0,0.0,0.0,0.0,0.0,0.0,0.0,0.0,0.0,0.0,0.0,0.0,0.0,0.0,0.0,0.0,0.0,0.0,0.0,0.0,0.0,0.0,0.0,0.0,0.0,0.0,0.0,0.0,0.0,0.0,0.0,0.0,0.0,0.0,0.0,0.0,0.0,0.0,0.0,0.0,0.0,0.0,0.0,0.0,0.0,0.0,0.0,0.0,0.0,0.0,0.0,0.0,0.0,0.0,0.0,0.0,0.0,0.0,0.0,0.0,0.0,0.0,0.0,0.0,-2.2228,0.0,0.0,0.0,0.0,0.0,0.0,0.0,0.0,0.0,0.0,0.0,0.0,0.0,0.0,0.0,0.0,0.0,0.0,0.0,0.0,0.0,0.0,0.0,0.0,0.0,0.0,0.0,0.0,0.0,0.0,0.0,0.0,0.0,0.0,0.0,0.0,0.0,0.0,-2.6807,-2.6801,-2.6536,-2.6007,-2.6915,-2.709,-2.6631,0.0,0.0,0.0,0.0,0.0,0.0,0.0,0.0,0.0,0.0,0.0,0.0,0.0,0.0,0.0,0.0,0.0,0.0,0.0,0.0,0.0,0.0,0.0,0.0,0.0,0.0,0.0,0.0,0.0,0.0,0.0,0.0,0.0,0.0,0.0,0.0,0.0,0.0,0.0,0.0,0.0,0.0,0.0,0.0,0.0,0.0,0.0,0.0,0.0,0.0,0.0,0.0,0.0,0.0,0.0,0.0,0.0,0.0,0.0,0.0,0.0,0.0,0.0,0.0,0.0,0.0,0.0,0.0,0.0,0.0,0.0,-2.1524,0.0,0.0,0.0,0.0,0.0,0.0,0.0,0.0,0.0,0.0,0.0,0.0,0.0,0.0,0.0,0.0,0.0,0.0,0.0,0.0,0.0,0.0,0.0,-2.3615,-2.3671,-2.3894,-2.395,-2.395,-2.395,0.0,0.0,0.0,0.0,0.0,-2.4799,-2.502,-2.4893,-2.4394,-2.5311,-2.5503,-2.4862,-2.4487,-2.4795,-2.568,-2.6432,0.0,0.0,0.0,0.0,0.0,0.0,0.0,0.0,0.0,0.0,0.0,0.0,0.0,0.0,0.0,0.0,0.0,0.0,0.0,0.0,0.0,0.0,0.0,0.0,0.0,0.0,0.0,0.0,0.0,0.0,0.0,0.0,0.0,0.0,0.0,0.0,0.0,0.0,0.0,0.0,0.0,0.0,0.0,0.0,0.0,0.0,0.0,0.0,0.0,0.0,0.0,0.0,0.0,0.0,0.0,0.0,0.0,0.0,0.0,0.0,0.0,0.0,0.0,-1.9877,-1.9686,-1.9367,-1.9431,-1.9036,-1.8332,-1.892,-1.9431,-1.975,0.0,0.0,0.0,0.0,0.0,0.0,0.0,0.0,0.0,0.0,0.0,0.0,0.0,0.0,0.0,0.0,0.0,0.0,0.0,0.0,-2.0615,-2.0831,-2.0831,-2.0831,-2.0888,-2.0888,-2.0888,-2.0888,0.0,0.0,0.0,0.0,-2.2958,-2.3255,-2.4228,-2.4727,-2.4671,-2.4105,-2.3299,-2.2228,-2.2942,-2.3517,-2.3977,-2.4899,-2.5288,-2.5226,0.0,0.0,0.0,0.0,0.0,0.0,0.0,0.0,0.0,0.0,0.0,0.0,0.0,0.0,0.0,0.0,0.0,0.0,0.0,0.0,0.0,0.0,0.0,0.0,0.0,0.0,0.0,0.0,0.0,0.0,0.0,0.0,0.0,0.0,0.0,0.0,0.0,0.0,0.0,0.0,0.0,-2.0335,-2.0386,0.0,0.0,0.0,0.0,0.0,0.0,0.0,0.0,0.0,0.0,0.0,0.0,0.0,-2.0386,-2.0081,-2.0195,-1.9686,-1.8728,-1.8984,-1.8215,-1.6548,-1.685,-1.6398,-1.5443,-1.5508,0.0,-1.818,-1.7345,0.0,0.0,0.0,0.0,0.0,0.0,0.0,0.0,0.0,0.0,0.0,0.0,0.0,0.0,0.0,0.0,0.0,0.0,0.0,0.0,0.0,-1.939,-1.9029,-1.9216,-1.9216,-1.9216,-1.9216,-1.9924,0.0,0.0,-2.1002,-2.1345,-2.146,-2.1957,-2.2281,-2.2451,-2.2109,-2.174,-2.1423,-2.2038,-2.2379,-2.2528,-2.3172,-2.3886,-2.4548,-2.4548,0.0,0.0,0.0,0.0,0.0,0.0,0.0,0.0,0.0,0.0,0.0,0.0,0.0,0.0,0.0,0.0,0.0,0.0,0.0,0.0,0.0,0.0,0.0,0.0,0.0,0.0,0.0,0.0,0.0,0.0,0.0,0.0,0.0,0.0,0.0,0.0,0.0,0.0,0.0,-2.0513,-2.0309,-2.0144,-2.0639,-2.1398,0.0,0.0,0.0,0.0,0.0,0.0,0.0,0.0,0.0,-1.8127,-1.8063,-1.7818,-1.7184,-1.7184,-1.6926,-1.6483,-1.6602,-1.6213,-1.5388,-1.5508,-1.5108,-1.4342,-1.4342,-1.4586,-1.5089,-1.5424,-1.6019,-1.6732,0.0,0.0,0.0,0.0,-1.5769,-1.5257,0.0,0.0,0.0,0.0,0.0,0.0,0.0,0.0,0.0,0.0,0.0,0.0,-1.8693,-1.7793,-1.7313,-1.763,-1.7689,-1.7806,-1.8156,-1.9042,-1.9751,-2.0155,-2.0155,-2.0213,-2.027,-2.027,-2.0385,-2.0601,-2.0601,-2.073,-2.0974,-2.1278,-2.1496,-2.1584,-2.195,-2.2705,-2.3731,-2.3731,-2.3467,-2.3168,0.0,0.0,0.0,0.0,0.0,0.0,0.0,0.0,0.0,0.0,0.0,0.0,0.0,0.0,0.0,0.0,0.0,0.0,0.0,0.0,0.0,0.0,0.0,0.0,0.0,0.0,0.0,0.0,0.0,0.0,0.0,0.0,0.0,0.0,0.0,0.0,0.0,-1.9546,-1.9419,-1.9304,-1.947,-2.0093,0.0,0.0,0.0,0.0,0.0,0.0,-1.7655,-1.7602,-1.7152,-1.6138,-1.6073,-1.5694,-1.4931,-1.4866,-1.4866,-1.4866,-1.4735,-1.467,-1.467,-1.4473,-1.408,-1.3621,-1.3621,-1.3293,-1.2906,-1.3949,-1.4473,-1.467,-1.467,-1.4735,-1.4866,-1.4735,-1.467,-1.4539,0.0,0.0,0.0,0.0,0.0,0.0,0.0,0.0,0.0,0.0,0.0,-1.544,-1.5806,-1.5451,-1.5391,-1.5688,-1.5747,-1.6279,-1.7455,-1.763,-1.8273,-1.9751,-1.9809,-1.9982,-2.027,-2.027,-2.0328,-2.0328,-2.0328,-2.0328,-2.0328,-2.063,-2.0902,-2.1247,-2.1584,-2.2067,-2.2713,-2.2713,-2.2828,-2.3106,-2.3106,0.0,0.0,0.0,0.0,0.0,0.0,0.0,0.0,0.0,0.0,0.0,0.0,0.0,0.0,0.0,0.0,0.0,0.0,0.0,0.0,0.0,0.0,0.0,0.0,0.0,0.0,0.0,0.0,0.0,0.0,0.0,0.0,0.0,0.0,0.0,0.0,0.0,0.0,-1.7066,-1.6915,0.0,0.0,0.0,0.0,-1.8104,-1.804,-1.7602,-1.6646,-1.6581,-1.6073,-1.4996,-1.4996,-1.4931,-1.4866,-1.4866,-1.4866,-1.4866,-1.4268,-1.394,-1.394,-1.3227,-1.2906,-1.2832,-1.2832,-1.2832,-1.284,-1.2906,-1.3293,-1.394,-1.394,-1.4342,-1.48,-1.4202,-1.394,-1.3875,0.0,0.0,0.0,0.0,0.0,0.0,0.0,0.0,-1.3715,-1.3715,-1.4371,-1.4847,-1.4966,-1.4133,-1.3596,-1.3715,-1.3715,-1.3954,-1.4361,-1.5381,-1.6208,-1.6738,-1.6985,-1.7161,-1.7279,-1.8098,-1.8564,-1.8784,-1.9564,-2.0097,-2.027,-2.0385,-2.0499,-2.0612,-2.0728,-2.1028,-2.1501,-2.2265,-2.2696,-2.2798,-2.2798,-2.2915,0.0,0.0,0.0,0.0,0.0,0.0,0.0,0.0,0.0,0.0,0.0,0.0,0.0,0.0,0.0,0.0,0.0,0.0,0.0,0.0,0.0,0.0,0.0,0.0,0.0,0.0,0.0,0.0,0.0,0.0,0.0,0.0,0.0,0.0,0.0,0.0,0.0,-1.6592,-1.6128,0.0,-1.7678,-1.6894,-1.6312,-1.6312,-1.5284,-1.4511,-1.4128,-1.4128,-1.394,-1.3555,-1.3667,-1.3727,-1.3727,-1.3856,-1.3924,-1.3924,-1.3713,-1.3578,-1.3578,-1.3317,-1.3181,-1.3181,-1.3181,-1.3181,-1.3181,-1.3181,-1.3177,-1.3161,-1.3161,-1.3358,-1.349,-1.3293,-1.3161,-1.3161,0.0,0.0,0.0,0.0,0.0,0.0,0.0,-1.1503,-1.2045,-1.2045,-1.2697,-1.3168,-1.3297,-1.2457,-1.1924,-1.2045,-1.2045,-1.2217,-1.2697,-1.3775,-1.4669,-1.5084,-1.5391,-1.5569,-1.5569,-1.6455,-1.6973,-1.7149,-1.8389,-1.9158,-1.939,-1.9866,-2.0155,-2.0155,-2.027,-2.044,-2.0679,-2.1603,-2.2118,-2.228,-2.2416,-2.2605,-2.2686,0.0,0.0,0.0,0.0,0.0,0.0,0.0,0.0,0.0,0.0,0.0,0.0,0.0,0.0,0.0,0.0,0.0,0.0,0.0,0.0,0.0,0.0,0.0,0.0,0.0,0.0,0.0,0.0,0.0,0.0,0.0,0.0,0.0,0.0,0.0,-1.5163,-1.5879,-1.5098,-1.5089,-1.6506,-1.5349,-1.4511,-1.4511,-1.3481,-1.2865,-1.2921,-1.2921,-1.2954,-1.3011,-1.3124,-1.3189,-1.3189,-1.3311,-1.3368,-1.3368,-1.3368,-1.3368,-1.3368,-1.3368,-1.3368,-1.3368,-1.3368,-1.3368,-1.3368,-1.3368,-1.323,-1.3011,-1.2946,-1.2921,-1.2913,-1.2856,-1.2774,-1.2774,0.0,0.0,0.0,0.0,0.0,0.0,-1.0793,-1.0793,-1.0793,-1.0793,-1.0429,-1.0361,-1.0725,-1.0422,-1.0361,-1.0725,-1.0793,-1.1269,-1.2517,-1.2937,-1.3655,-1.4906,-1.5273,-1.5451,-1.5451,-1.551,-1.551,-1.551,-1.6809,-1.7455,-1.7455,-1.8984,-1.9693,-1.9707,-1.9996,-2.0169,-2.0197,-2.0503,-2.1033,-2.1601,-2.1989,-2.2118,-2.2148,0.0,0.0,0.0,0.0,0.0,0.0,0.0,0.0,0.0,0.0,0.0,0.0,0.0,0.0,0.0,0.0,0.0,0.0,0.0,0.0,0.0,0.0,0.0,0.0,0.0,0.0,0.0,0.0,0.0,0.0,0.0,0.0,0.0,-1.4604,-1.4277,-1.4137,-1.4735,-1.3621,-1.3095,-1.3809,-1.3235,-1.2782,-1.2782,-1.2848,-1.2929,-1.3092,-1.31,-1.3189,-1.3368,-1.3376,-1.3376,-1.3376,-1.3384,-1.3384,-1.3384,-1.3384,-1.3384,-1.3384,-1.3384,-1.3384,-1.3384,-1.3384,-1.3384,-1.3384,-1.3316,-1.3316,-1.3299,-1.3181,-1.31,-1.3084,-1.2847,-1.2724,-1.2584,0.0,0.0,0.0,0.0,0.0,0.0,-1.0065,-1.0065,-1.0065,-1.0065,-0.9201,-0.8958,-0.9943,-0.914,-0.8958,-1.0004,-1.0065,-1.024,-1.0543,-1.0899,-1.1382,-1.1985,-1.2045,-1.2105,-1.2105,-1.3237,-1.3844,-1.3844,-1.5391,-1.6101,-1.6101,-1.6573,-1.6783,-1.6885,-1.7005,-1.7109,-1.7294,-1.7608,-1.785,-1.8227,-2.0516,-2.176,-2.2061,0.0,0.0,0.0,0.0,0.0,0.0,0.0,0.0,0.0,0.0,0.0,0.0,0.0,0.0,0.0,0.0,0.0,0.0,0.0,0.0,0.0,0.0,0.0,0.0,0.0,0.0,0.0,0.0,0.0,0.0,0.0,0.0,-1.1174,-1.3095,-1.3227,-1.3161,-1.3358,-1.303,-1.2906,-1.3095,-1.3079,-1.3027,-1.3027,-1.3149,-1.3246,-1.3295,-1.3295,-1.3319,-1.3368,-1.3498,-1.3571,-1.3571,-1.3693,-1.3758,-1.3758,-1.3758,-1.3758,-1.3758,-1.3758,-1.3758,-1.3758,-1.2902,-1.2548,-1.2477,-1.1626,-1.1193,-1.1379,-1.2789,-1.3295,-1.3219,-1.2285,-1.1439,-1.0681,0.0,0.0,0.0,0.0,0.0,0.0,-0.9822,-0.9822,-0.9633,-0.9086,-0.8349,-0.7978,-0.816,-0.749,-0.7368,-0.8099,-0.816,-0.816,-0.816,-0.8958,-0.9869,-1.0793,-1.0785,-1.0785,-1.0785,-1.1744,-1.2207,-1.2283,-1.3908,-1.4741,-1.4832,-1.5498,-1.5875,-1.5932,-1.5932,-1.6017,-1.6083,-1.6331,-1.6447,-1.6721,-1.852,-1.9523,-1.9965,-1.9756,-1.9745,-1.9801,-1.916,-1.8908,-1.8807,-1.8186,0.0,0.0,0.0,0.0,0.0,0.0,0.0,0.0,0.0,0.0,0.0,0.0,0.0,0.0,0.0,0.0,0.0,0.0,0.0,0.0,0.0,0.0,0.0,0.0,-1.0041,-1.0066,-1.1333,-1.1482,-1.1439,-1.1439,-1.1497,-1.154,-1.154,-1.1678,-1.1765,-1.1765,-1.2346,-1.2704,-1.2774,-1.3205,-1.3555,-1.3701,-1.331,-1.3111,-1.3179,-1.2757,-1.259,-1.259,-1.259,-1.259,-1.259,-1.259,-1.259,0.0,-1.1855,-1.1564,-1.1491,-1.0834,-1.0322,0.0,0.0,0.0,0.0,0.0,-1.0455,-0.9832,0.0,0.0,0.0,0.0,0.0,0.0,-0.9329,-0.9329,-0.8964,-0.7795,-0.7551,-0.7057,-0.6018,-0.5774,-0.5712,-0.5896,-0.5896,-0.5896,-0.5896,-0.724,-0.8702,-1.0179,-1.0422,-1.049,-1.0511,-1.0694,-1.0836,-1.1006,-1.2415,-1.3243,-1.3465,-1.4903,-1.5535,-1.5566,-1.5628,-1.5639,-1.567,-1.5732,-1.5846,-1.6086,-1.6086,-1.6466,-1.7025,-1.733,-1.7412,-1.7474,-1.7602,-1.7655,-1.7655,-1.7462,0.0,0.0,0.0,0.0,0.0,0.0,0.0,0.0,0.0,0.0,0.0,0.0,0.0,0.0,0.0,0.0,0.0,0.0,0.0,0.0,0.0,0.0,0.0,0.0,-0.9212,-0.9192,-0.9307,-0.9227,-0.9285,-0.9625,-0.9728,-0.9807,-0.9807,-0.9916,-0.9926,-0.9926,-1.0928,-1.1566,-1.1769,0.0,0.0,0.0,0.0,-1.2206,-1.2412,-1.1294,-1.0697,-1.0697,-1.0697,-1.0697,-1.0697,-1.0697,-1.0622,-1.0548,-1.0398,-1.0323,-1.0248,-1.0093,-0.9644,-0.9009,-0.9729,-0.9883,-0.9729,-0.9596,-0.941,-0.9196,0.0,0.0,0.0,0.0,0.0,0.0,-0.663,-0.663,-0.6569,-0.6324,-0.5345,-0.4977,-0.5835,-0.4916,-0.4732,-0.5835,-0.5896,-0.5896,-0.5896,-0.6202,-0.6508,-0.6813,-0.7856,-0.8518,-0.8623,-0.9875,-1.064,-1.0868,-1.1366,-1.1633,-1.1664,-1.1972,-1.2234,-1.2435,-1.2691,-1.2903,-1.3044,-1.3314,-1.3461,-1.3495,-1.3495,-1.4911,-1.7033,-1.7097,-1.713,-1.6969,-1.5879,-1.5489,-1.5359,-1.4193,-1.3744,-1.3744,-1.3744,-1.3678,0.0,0.0,0.0,0.0,0.0,0.0,0.0,0.0,0.0,0.0,0.0,0.0,0.0,0.0,0.0,0.0,0.0,0.0,0.0,-0.7636,-0.6885,-0.6391,-0.6407,-0.6395,-0.7212,-0.9549,-0.9847,-0.9865,-0.9865,-1.0056,-1.0135,-1.0135,-1.055,-1.0825,-1.0856,-1.111,-1.1273,-1.1405,-1.1108,-1.1046,-1.1071,-1.0847,-1.0697,-1.0697,0.0,0.0,-1.0697,-1.0697,-1.0317,-0.9714,-0.867,-0.792,-0.7243,-0.6341,-0.5817,-0.5886,-0.7848,-0.8053,-0.7228,-0.7137,-0.652,-0.5643,0.0,0.0,0.0,0.0,0.0,0.0,-0.5406,-0.5529,-0.5345,-0.4548,-0.4122,-0.3876,-0.3694,-0.3264,-0.3204,-0.3879,-0.394,-0.4247,-0.4855,-0.4916,-0.5223,-0.5896,-0.6557,-0.6917,-0.6974,-0.7843,-0.8314,-0.8506,-0.9536,-1.009,-1.0156,-1.1077,-1.1575,-1.165,-1.1853,-1.1964,-1.2048,-1.2239,-1.2371,-1.2576,-1.2576,-1.3481,-1.4912,-1.4912,-1.4912,-1.4782,-1.4071,-1.3875,-1.3744,-1.303,-1.2774,-1.2774,-1.2774,-1.2774,-1.2774,0.0,0.0,0.0,0.0,0.0,0.0,0.0,0.0,0.0,0.0,0.0,0.0,0.0,0.0,-0.8935,0.0,0.0,-0.6781,-0.5884,-0.5295,-0.4984,-0.5017,-0.505,-0.5895,-0.8049,-0.8363,-0.8414,-0.8475,-0.8581,-0.8672,-0.8727,-0.8976,-0.9335,-0.9785,-0.9612,-0.9666,-1.0184,-0.9202,-0.8697,-0.8827,-0.8144,-0.7838,-0.7838,-0.7838,-0.7838,-0.7838,-0.7838,-0.7608,-0.7225,-0.6616,-0.6155,-0.5695,-0.4699,-0.4314,-0.4391,-0.5077,-0.5495,-0.5663,-0.5625,-0.5242,-0.4718,0.0,0.0,0.0,0.0,0.0,0.0,-0.4122,-0.4367,-0.4063,-0.2772,-0.3018,-0.2833,-0.1543,-0.1668,-0.1853,-0.1915,-0.1977,-0.2407,-0.3448,-0.351,-0.4004,-0.5121,-0.5372,-0.5545,-0.5579,-0.5902,-0.611,-0.6263,-0.7706,-0.8475,-0.8634,-1.0035,-1.0909,-1.1181,-1.124,-1.1446,-1.171,-1.1784,-1.1982,-1.2173,-1.2173,-1.2379,-1.2642,-1.2642,-1.27,-1.2774,-1.2774,-1.2774,-1.2774,-1.2774,-1.2774,-1.2774,-1.2774,-1.2774,-1.2774,-1.2774,-1.2774,0.0,0.0,0.0,0.0,0.0,0.0,0.0,0.0,-0.8912,-0.8968,-0.8666,-0.8178,-0.7488,-0.6667,-0.6052,-0.5414,-0.4374,-0.4244,-0.4272,-0.4328,-0.4376,-0.488,-0.6204,-0.6459,-0.6524,-0.6593,-0.6588,-0.6731,-0.6804,-0.7042,-0.7503,-0.8182,-0.7831,-0.796,-0.8813,-0.7216,-0.6403,-0.6541,-0.5525,-0.5057,-0.5057,-0.5057,-0.5057,-0.5057,-0.5057,-0.4897,-0.4739,-0.4581,-0.4503,-0.4503,-0.3873,-0.3557,-0.3478,-0.2767,-0.3281,-0.4369,-0.4337,-0.4325,-0.4325,0.0,0.0,0.0,0.0,0.0,0.0,0.0,0.0,-0.1419,-0.1235,-0.1296,-0.1235,-0.105,-0.1111,-0.1235,-0.1543,-0.1853,-0.2038,-0.2222,-0.2222,-0.2296,-0.245,-0.3585,-0.427,-0.4446,-0.5566,-0.6267,-0.6352,-0.6552,-0.6689,-0.6698,-0.6898,-0.7702,-0.8972,-0.9238,-1.0107,-1.1314,-1.1652,-1.185,-1.185,-1.185,-1.1909,-1.1916,-1.1916,-1.2305,-1.2774,-1.2774,-1.2774,-1.2774,-1.2774,-1.2774,-1.2774,-1.2774,-1.2774,-1.2774,-1.2774,-1.2774,-1.2568,-1.163,-1.0571,-0.951,-0.8446,-0.8464,-0.8209,0.0,-0.6153,-0.6136,-0.5156,-0.4954,-0.482,-0.4681,-0.4662,-0.4438,-0.3622,-0.359,-0.3631,-0.3677,-0.369,-0.4063,-0.4876,-0.5029,-0.5037,-0.5043,-0.5052,-0.5057,-0.5066,-0.5193,-0.5225,-0.5379,-0.5414,-0.5478,-0.5646,-0.5382,-0.5255,-0.5261,-0.5183,-0.5102,-0.5102,-0.5102,-0.5102,-0.5102,-0.5102,-0.4697,-0.3969,-0.3239,-0.2834,-0.2834,-0.2753,-0.2753,-0.2753,-0.2592,-0.2668,-0.2812,-0.2803,-0.2771,-0.2767,0.0,0.0,0.0,0.0,0.0,0.0,0.0,0.0,-0.0617,-0.0432,-0.0741,-0.0926,-0.0741,-0.0864,-0.105,-0.1173,-0.1543,-0.173,-0.173,-0.1867,-0.2007,-0.2018,-0.2564,-0.2927,-0.3029,-0.3583,-0.3875,-0.3962,-0.4766,-0.5168,-0.5168,-0.6034,-0.6698,-0.7303,-0.7436,-0.7836,-0.8435,-0.8568,-0.9232,-1.0174,-0.9365,-0.963,-1.0432,-0.963,-0.9492,-0.9956,-1.1637,-1.2246,0.0,-1.1233,-1.0962,-1.0763,-0.9956,-1.0028,-1.0373,-1.0373,-1.0638,-1.0638,-0.9172,-0.8421,-0.7733,-0.6246,-0.6008,-0.5953,-0.5008,-0.4981,-0.5017,-0.4488,-0.4115,-0.3801,-0.3801,-0.35,-0.3185,0.0,-0.2846,-0.2859,-0.2875,-0.297,-0.306,-0.3442,-0.3463,-0.3854,-0.4741,-0.4891,-0.4907,-0.4943,-0.4534,-0.4486,-0.4957,-0.4157,-0.3874,-0.4358,-0.3892,-0.3657,-0.3657,-0.3657,-0.3657,-0.3657,-0.3657,-0.3657,-0.3657,-0.3657,-0.3495,-0.309,-0.2765,-0.2601,-0.2601,-0.2601,-0.2601,-0.2601,-0.2601,-0.2601,-0.2594,-0.2541,-0.2522,-0.2518,0.0,0.0,0.0,0.0,0.0,0.0,0.0,0.0,0.0,0.0,-0.0432,-0.0617,-0.037,-0.0679,-0.0864,-0.0864,-0.1178,-0.1368,-0.1368,-0.1574,-0.1716,-0.1724,-0.189,-0.1981,-0.1989,-0.2143,-0.2223,-0.2223,-0.3228,-0.3698,-0.3765,-0.4766,-0.5432,-0.5834,-0.5834,-0.6034,-0.6431,-0.6431,-0.7165,-0.8235,-0.7231,-0.7564,-0.8629,-0.756,-0.7227,-0.7493,-0.9763,-1.0638,-1.0439,-0.9359,-0.9027,-0.8828,-0.7826,-0.7897,-0.8302,-0.8302,-0.8462,-0.8287,-0.7013,-0.6473,-0.5997,-0.4621,-0.4286,-0.4206,-0.4165,-0.3997,-0.3891,-0.3852,-0.3482,-0.3095,-0.3095,-0.2693,-0.2427,-0.2435,-0.2436,-0.2439,-0.2447,-0.2467,-0.2481,-0.2481,-0.2508,-0.299,-0.4128,-0.4281,-0.4296,-0.4335,-0.3829,-0.3773,-0.4415,-0.3246,-0.286,-0.3515,-0.2951,-0.2627,-0.2627,-0.2627,-0.2627,-0.2627,-0.2627,-0.2627,-0.2627,-0.2627,-0.2627,-0.2627,-0.2627,-0.2627,-0.2627,-0.2627,-0.2627,-0.2627,-0.2627,-0.2627,-0.2623,-0.2594,-0.2578,-0.2568,0.0,0.0,0.0,0.0,0.0,0.0,0.0,0.0,0.0,0.0,0.0,0.0,0.0,-0.0309,-0.0494,-0.0494,-0.0814,-0.101,-0.101,-0.1023,-0.1038,-0.1052,-0.1383,-0.1592,-0.1615,-0.2019,-0.2223,-0.2223,-0.2223,-0.2289,-0.2289,-0.2289,-0.3026,-0.4367,-0.4367,-0.5101,-0.6431,-0.6431,-0.6431,-0.6498,-0.6431,-0.6431,-0.6498,-0.6431,-0.6431,-0.6564,-0.736,-0.7626,-0.7621,-0.7555,-0.7555,-0.7555,-0.7488,-0.7488,-0.7555,-0.7555,-0.6829,-0.6024,-0.5956,-0.5191,-0.448,-0.441,-0.389,-0.3432,-0.343,-0.2915,-0.2449,-0.2448,-0.2474,-0.2421,-0.2421,-0.2423,-0.2433,-0.2462,-0.2467,-0.2478,-0.2507,-0.2512,-0.2512,-0.2512,-0.254,-0.2637,0.0,-0.2637,-0.2637,-0.2637,-0.2665,-0.2681,-0.2681,-0.263,-0.2646,-0.2646,-0.2675,-0.269,-0.269,-0.269,-0.269,-0.269,-0.269,-0.269,-0.269,-0.269,-0.269,-0.269,-0.269,-0.269,-0.269,-0.269,-0.269,-0.269,-0.269,-0.269,-0.2686,-0.2656,-0.2626,-0.26,0.0,0.0,0.0,0.0,0.0,0.0,0.0,0.0,0.0,0.0,0.0,0.0,0.0,0.0,0.0,0.0,-0.0501,-0.0695,-0.0695,-0.0904,-0.0984,-0.0988,-0.1197,-0.1273,-0.1279,-0.1616,-0.1818,-0.1818,-0.2087,-0.2223,-0.2223,-0.2223,-0.2423,-0.2892,-0.2892,-0.3161,-0.3629,-0.3629,-0.4163,-0.49,-0.3964,-0.4166,-0.49,-0.3964,-0.3629,-0.3629,0.0,-0.5162,-0.6631,-0.57,-0.5366,-0.5232,-0.4297,-0.4294,-0.4772,-0.5224,-0.512,-0.4741,-0.43,-0.3935,-0.3623,-0.3126,-0.289,-0.2716,-0.2716,-0.2528,-0.2408,-0.2408,-0.2432,-0.2454,-0.2454,-0.247,-0.2487,-0.2497,-0.2499,-0.251,-0.254,-0.2544,-0.2551,-0.257,-0.2582,0.0,0.0,0.0,0.0,-0.2587,-0.2615,-0.2631,-0.2631,-0.2661,-0.2677,-0.2677,-0.2687,-0.2692,-0.2692,-0.2692,-0.2692,-0.2692,-0.2692,-0.2692,-0.2692,-0.2692,-0.2692,-0.2692,-0.2692,-0.2692,-0.2692,-0.2692,-0.2692,-0.2692,-0.2692,-0.2692,-0.2691,-0.2682,-0.2671,-0.2656,0.0,0.0,0.0,0.0,0.0,0.0,0.0,0.0,0.0,0.0,0.0,0.0,0.0,0.0,0.0,0.0,0.0,0.1147,0.1216,0.0982,0.0862,0.0862,0.0735,0.0672,0.0672,-0.0202,-0.0606,-0.0606,-0.1548,-0.1952,-0.2019,-0.2154,-0.2223,-0.2223,-0.2223,-0.2223,-0.2223,-0.2223,-0.2692,-0.3497,-0.2558,-0.2759,-0.343,-0.2558,-0.2223,0.0,-0.2223,-0.336,-0.4766,-0.383,-0.3564,-0.3362,-0.249,-0.2498,-0.2923,-0.3443,-0.354,-0.349,-0.3029,-0.2995,-0.2885,-0.2464,-0.235,-0.238,-0.2391,-0.2418,-0.244,-0.244,-0.2463,-0.2485,-0.2485,-0.2502,-0.2514,-0.2514,-0.2523,-0.2537,-0.2557,-0.2568,-0.2582,-0.26,-0.2611,-0.2617,0.0,0.0,0.0,-0.2619,-0.2646,-0.2662,-0.2662,-0.2682,-0.2692,-0.2692,-0.2703,-0.2709,-0.2709,-0.272,-0.2725,-0.2725,-0.2725,-0.272,-0.2709,-0.2709,-0.2702,-0.2692,-0.2692,-0.2692,-0.2692,-0.2692,-0.2692,-0.2692,-0.2692,-0.2692,-0.2692,-0.2692,-0.2692,-0.2687,0.0,0.0,0.0,0.0,0.0,0.0,0.0,0.0,0.0,0.0,0.0,0.0,0.0,0.0,0.0,0.0,0.0,0.0,0.4068,0.406,0.4093,0.416,0.389,0.3689,0.3689,0.2014,0.1075,0.1008,-0.074,-0.1616,-0.1616,-0.2019,-0.2155,-0.2223,-0.2223,-0.2223,-0.2223,-0.2223,-0.2223,-0.2223,-0.2223,-0.2223,-0.2223,-0.2223,-0.2223,-0.2223,-0.2223,-0.2223,-0.2223,-0.2223,-0.2223,-0.2223,-0.2224,-0.2177,-0.2206,-0.2238,-0.2268,-0.2292,-0.2293,-0.2313,-0.2342,-0.2371,-0.238,-0.239,-0.242,-0.245,-0.2472,-0.2472,-0.2493,-0.2514,-0.2514,0.0,-0.2515,-0.2517,-0.2541,-0.256,-0.2564,-0.2587,-0.2604,0.0,0.0,0.0,0.0,0.0,0.0,-0.2569,0.0,-0.2692,-0.2692,-0.2694,-0.2695,-0.2695,-0.2724,-0.274,-0.274,-0.2769,-0.2784,-0.2784,-0.2784,-0.2769,-0.274,-0.274,-0.2725,-0.2697,-0.2697,-0.2697,-0.2697,-0.2697,-0.2697,-0.2697,-0.2697,-0.2697,-0.2697,-0.2695,-0.2695,-0.2695,0.0,0.0,0.0,0.0,0.0,0.0,0.0,0.0,0.0,0.0,0.0,0.0,0.0,0.0,0.0,0.0,0.0,0.0,0.1118,0.1067,0.1545,0.262,0.2553,0.2553,0.2553,0.1814,0.0941,-0.0067,-0.0875,-0.1346,-0.1616,-0.1683,-0.1885,-0.2223,-0.2223,-0.2223,-0.2223,-0.2223,-0.2223,-0.2223,-0.2223,-0.2223,-0.2223,-0.2223,-0.2223,-0.2223,-0.2223,-0.2223,-0.2223,-0.2223,-0.2223,-0.2225,-0.2181,-0.2193,-0.221,-0.2263,-0.2285,-0.2296,-0.2316,-0.2343,-0.2368,-0.2376,-0.2413,-0.2448,-0.2455,-0.2481,-0.2503,-0.2503,-0.2508,-0.2514,-0.2514,-0.2514,0.0,-0.2544,-0.2555,0.0,-0.2619,-0.2631,0.0,-0.2667,0.0,-0.2682,-0.2682,-0.2688,0.0,0.0,-0.2688,-0.2692,-0.2692,-0.2714,-0.2727,-0.2727,-0.2755,-0.2772,-0.2772,-0.278,-0.2784,-0.2784,-0.2784,-0.278,-0.2772,-0.2772,-0.2767,-0.2761,-0.2761,-0.2761,-0.2761,-0.2761,-0.2761,-0.2761,-0.2761,-0.2761,-0.2758,-0.2735,-0.2727,-0.2722,0.0,0.0,0.0,0.0,0.0,0.0,0.0,0.0,0.0,0.0,0.0,0.0,0.0,0.0,0.0,0.0,0.0,0.0,0.0,0.1873,0.2217,0.3023,0.309,0.309,0.309,0.2217,0.1412,0.0673,-0.0336,-0.0943,-0.1144,-0.1481,-0.175,-0.1952,-0.2154,-0.2223,-0.2223,-0.2223,-0.2223,0.0,0.0,-0.2223,-0.2223,-0.2223,-0.2223,-0.2223,-0.2223,-0.2223,-0.2223,-0.2223,-0.2231,-0.218,-0.221,-0.2229,-0.2249,-0.2296,-0.2309,-0.2316,-0.2345,-0.2365,-0.2384,-0.2412,-0.2444,-0.2473,-0.2485,-0.2502,-0.2514,-0.2514,-0.2514,-0.2514,-0.2514,-0.2514,-0.2525,0.0,0.0,0.0,-0.2641,-0.2658,-0.2673,0.0,-0.2692,0.0,-0.2692,-0.2692,-0.2698,0.0,-0.2713,-0.2713,-0.2713,-0.2742,-0.2758,-0.2758,-0.2788,-0.281,-0.2823,-0.2823,-0.2823,-0.2823,-0.2823,-0.2816,-0.2803,-0.2803,-0.2796,-0.2784,0.0,-0.2784,-0.2784,-0.2784,-0.2784,-0.2784,-0.2784,-0.2784,-0.2781,-0.2763,-0.2758,-0.2755,0.0,0.0,0.0,0.0,0.0,0.0,0.0,0.0,0.0,0.0,0.0,0.0,0.0,0.0,0.0,0.0,0.0,0.0,0.0,0.0,0.3825,0.4026,0.4026,0.4026,0.4026,0.2687,0.195,0.1748,0.0202,-0.0606,-0.0673,-0.1279,-0.1616,-0.1683,-0.2019,-0.2223,-0.2223,-0.2223,-0.2223,-0.2223,-0.2223,-0.2223,-0.2223,0.0,-0.2223,-0.2223,-0.2223,-0.2223,-0.2223,-0.2227,-0.2178,-0.2206,-0.2166,-0.2266,-0.2296,-0.2324,-0.2333,-0.2339,-0.2369,-0.238,-0.2398,-0.2455,-0.2472,-0.2482,-0.2508,-0.2514,-0.2514,-0.2514,-0.2514,-0.2514,-0.2514,-0.2514,-0.2526,-0.256,0.0,-0.2613,-0.2647,-0.2676,-0.2692,-0.2692,-0.2692,-0.2692,-0.2692,-0.2697,-0.271,-0.2736,-0.2746,-0.2748,-0.2744,-0.2773,-0.2791,-0.2795,-0.2821,-0.2848,-0.2874,-0.2874,-0.2874,-0.2874,-0.2874,-0.286,-0.2834,-0.2834,-0.2821,-0.2796,0.0,0.0,-0.2796,-0.2796,-0.2796,-0.2796,-0.2796,-0.2796,-0.2795,-0.2791,-0.2789,-0.2789,0.0,0.0,0.0,0.0,0.0,0.0,0.0,0.0,0.0,0.0,0.0,0.0,0.0,0.0,0.0,0.0,0.0,0.0,0.0,0.0,0.0,0.2418,0.2486,0.2486,0.2486,0.195,0.1143,-0.0067,-0.0673,-0.1144,-0.1414,-0.1548,-0.175,-0.2087,-0.2154,-0.2223,-0.2223,-0.2223,-0.2223,-0.2223,-0.2223,-0.2223,-0.2223,-0.2223,0.0,0.0,-0.2223,-0.2223,-0.2225,-0.2184,-0.2195,-0.2206,-0.2166,-0.2266,-0.2296,-0.2324,-0.2333,-0.2339,-0.2369,-0.2397,-0.2424,-0.2459,-0.2488,-0.2507,-0.2514,-0.2514,-0.2514,-0.2514,-0.2514,-0.2514,-0.2514,-0.2514,-0.2532,-0.2586,-0.2598,-0.2622,-0.2676,-0.2688,-0.2692,0.0,-0.2692,-0.2692,-0.2692,-0.2716,0.0,0.0,0.0,-0.2801,-0.2777,-0.2804,-0.2831,-0.2857,-0.2863,-0.2868,-0.2874,-0.2874,-0.2874,-0.2874,-0.2874,-0.2871,-0.2866,-0.2866,-0.2863,-0.2859,-0.2859,0.0,-0.2859,-0.2859,-0.2859,-0.2859,-0.2859,-0.2859,-0.2855,-0.283,-0.2821,-0.2816,0.0,0.0,0.0,0.0,0.0,0.0,0.0,-0.2402,-0.1541,-0.1541,-0.0932,-0.0375,-0.0062,0.0,-0.0064,0.0,0.0,0.0,0.0,0.0,0.0,0.0403,0.0403,0.0403,0.0403,0.0269,-0.0135,-0.0808,0.0,-0.1212,-0.1346,-0.1548,-0.1683,-0.1885,-0.2087,-0.2223,-0.2223,-0.2223,-0.2223,-0.2223,-0.2223,-0.2223,-0.2223,-0.2223,0.0,0.0,-0.2223,-0.2223,-0.2227,-0.2189,-0.221,-0.2229,-0.2259,-0.2289,-0.2315,-0.2328,-0.2333,-0.2343,-0.239,-0.2413,-0.2435,-0.2481,-0.2503,-0.2514,-0.2514,-0.2514,-0.2514,-0.2514,-0.2514,-0.2514,-0.2514,-0.2514,-0.2533,-0.2592,-0.2601,-0.2623,-0.2684,-0.2692,-0.2692,-0.2692,-0.2692,-0.2692,0.0,-0.272,0.0,0.0,0.0,-0.2822,-0.2807,-0.2836,-0.2859,-0.2874,-0.2874,-0.2874,-0.2874,-0.2874,-0.2874,-0.2874,-0.2874,-0.2874,-0.2874,-0.2874,-0.2874,-0.2874,-0.2874,0.0,-0.2874,-0.2874,-0.2874,-0.2874,-0.2874,-0.2874,-0.2872,-0.2857,-0.2852,-0.2851,0.0,0.0,0.0,0.0,0.0,0.0,0.0,-0.4244,-0.3384,-0.3384,-0.2248,-0.1201,-0.0697,-0.0386,-0.0326,0.0,0.0,0.0,0.0,0.0,0.0,0.0,0.0,0.0,-0.1077,0.0,0.0,-0.1212,-0.1279,0.0,0.0,0.0,0.0,0.0,-0.2087,-0.2223,-0.2223,-0.2223,-0.2223,0.0,0.0,-0.2223,-0.2223,0.0,0.0,0.0,0.0,-0.2223,-0.2227,-0.2189,-0.2221,-0.218,-0.2281,-0.2309,-0.2333,-0.2333,-0.2333,-0.2345,-0.2399,-0.2418,-0.2436,-0.2491,-0.251,-0.2514,-0.2514,-0.2514,-0.2514,-0.2514,-0.2514,-0.2514,-0.2514,-0.2514,-0.2533,-0.2592,-0.2601,-0.2623,-0.2684,-0.2692,-0.2692,0.0,-0.2692,0.0,-0.2692,-0.2727,0.0,0.0,0.0,0.0,-0.2838,-0.2861,-0.2874,-0.2874,-0.2874,-0.2874,-0.2874,-0.2874,-0.2874,-0.2874,-0.2874,-0.2874,-0.2874,-0.2874,-0.2874,-0.2874,-0.2874,0.0,0.0,-0.2784,-0.2694,-0.2604,-0.2604,-0.2604,-0.2604,-0.2604,-0.2604,-0.2604,0.0,0.0,0.0,0.0,0.0,0.0,0.0,-0.559,-0.4732,-0.4732,-0.3616,-0.2787,-0.2757,-0.1694,-0.0987,0.0,0.0,0.0,0.0,0.0,0.0,0.0,0.0,0.0,0.0,0.0,0.0,-0.1548,-0.1952,0.0,0.0,0.0,0.0,0.0,0.0,-0.2223,-0.2223,-0.2223,0.0,0.0,0.0,0.0,0.0,0.0,0.0,0.0,0.0,-0.2223,-0.2227,-0.2189,-0.2221,-0.218,-0.2281,-0.2309,-0.2333,-0.2333,-0.2333,-0.2339,-0.2373,-0.2402,-0.2432,-0.2465,-0.2493,-0.2514,-0.2514,-0.2514,-0.2514,-0.2514,-0.2514,-0.2514,-0.2514,-0.2514,-0.2533,-0.2592,-0.2601,-0.2623,-0.2684,-0.2692,-0.2692,-0.2692,0.0,0.0,-0.2692,0.0,0.0,0.0,0.0,0.0,-0.287,-0.2872,-0.2874,-0.2874,-0.2874,-0.2874,-0.2874,-0.2874,-0.2874,-0.2874,-0.2874,-0.2874,-0.2874,-0.2874,-0.2874,-0.2874,-0.2874,0.0,0.0,-0.2245,-0.1975,-0.1526,-0.1526,-0.1526,-0.1526,-0.1526,-0.1526,-0.1526,0.0,0.0,0.0,0.0,0.0,0.0,-0.8653,-0.7551,-0.6714,-0.6841,-0.5745,-0.4935,-0.5007,-0.4616,-0.3528,-0.1601,0.0,0.0,0.0,0.0,0.0,0.0,0.0,0.0,0.0,0.0,-0.1952,-0.1952,-0.2154,0.0,0.0,0.0,0.0,0.0,0.0,-0.2223,-0.2223,-0.2223,0.0,0.0,0.0,0.0,0.0,0.0,0.0,0.0,0.0,0.0,-0.2227,-0.2189,-0.2221,-0.218,-0.2281,-0.2309,-0.2333,-0.2333,-0.2333,-0.2339,-0.2369,-0.2387,-0.2403,-0.2433,-0.2465,-0.2487,-0.2487,-0.2502,-0.2514,-0.2514,-0.2514,-0.2514,-0.2514,-0.2514,-0.2527,-0.257,-0.259,-0.2616,-0.266,-0.2682,-0.2692,-0.2692,-0.2692,0.0,0.0,0.0,0.0,0.0,0.0,0.0,-0.2874,-0.2874,-0.2874,-0.2874,-0.2874,-0.2874,-0.2874,-0.2874,-0.2874,-0.2874,-0.2604,-0.2515,-0.2425,-0.2156,-0.1976,-0.1976,-0.1976,0.0,0.0,-0.1706,-0.1616,-0.1436,-0.1436,-0.1436,-0.1436,-0.1436,-0.1436,-0.1436,0.0,0.0,0.0,0.0,0.0,-0.9822,-0.9822,-0.9025,-0.8506,-0.86,-0.7554,-0.6772,-0.6909,-0.663,-0.5499,-0.3224,-0.3025,0.0,0.0,0.0,0.0,0.0,0.0,0.0,0.0,0.0,-0.2223,-0.2223,-0.2223,-0.2223,0.0,0.0,0.0,0.0,0.0,0.0,0.0,0.0,0.0,0.0,0.0,0.0,0.0,0.0,0.0,0.0,0.0,0.0,0.0,0.0,0.0,-0.2237,-0.2267,-0.2297,-0.2322,-0.233,-0.2333,-0.2337,-0.2358,-0.2371,-0.2383,-0.2405,-0.2433,-0.2458,-0.2467,-0.2485,-0.2503,-0.2512,-0.2514,-0.2514,-0.2514,-0.2514,-0.2525,-0.2555,-0.2583,-0.2612,-0.2561,-0.2673,-0.2692,-0.2692,0.0,0.0,0.0,0.0,0.0,0.0,0.0,0.0,0.0,-0.2425,-0.2604,-0.2874,-0.2784,-0.2694,-0.2694,-0.2515,-0.2425,-0.2425,-0.2156,-0.1975,-0.1975,-0.1616,-0.1436,-0.1436,0.0,0.0,0.0,-0.1167,-0.1077,-0.0988,-0.0988,-0.0988,-0.0988,-0.0988,-0.0988,-0.0988,0.0,0.0,0.0,0.0,0.0,0.0,-0.9822,-0.9761,-0.9761,-0.9761,-0.8762,-0.8092,-0.8092,-0.7051,-0.6364,-0.6364,-0.6364,0.0,0.0,0.0,0.0,0.0,0.0,0.0,0.0,0.0,-0.2223,-0.2223,-0.2223,-0.2223,-0.2223,-0.2223,-0.2223,-0.2223,0.0,0.0,0.0,0.0,0.0,0.0,0.0,0.0,-0.2223,0.0,0.0,0.0,0.0,0.0,0.0,0.0,0.0,0.0,0.0,-0.2267,-0.2297,-0.2324,-0.2333,-0.2333,-0.2333,-0.2356,-0.2378,-0.2379,-0.2402,-0.2432,-0.2462,-0.2469,-0.2478,-0.2508,-0.2514,-0.2514,-0.2514,-0.2514,-0.2525,-0.2555,-0.2583,-0.2612,-0.2561,-0.2673,-0.2692,0.0,0.0,-0.2524,0.0,0.0,0.0,0.0,0.0,0.0,0.0,-0.1436,-0.1885,-0.2874,-0.2425,-0.2245,-0.2245,-0.1706,-0.1436,-0.1436,-0.1436,-0.1436,-0.1436,-0.1436,-0.1436,0.0,0.0,0.0,0.0,-0.0718,-0.0449,0.0,0.0,0.0,0.0,0.0,0.0,0.0,0.0,0.0,0.0,0.0,0.0,0.0,0.0,-0.9822,-0.9856,-0.9903,-0.9771,-0.9672,-0.9761,-0.9473,-0.931,-0.931,-0.7569,0.0,0.0,0.0,0.0,0.0,0.0,0.0,0.0,-0.5098,-0.5098,-0.5098,-0.5098,-0.5098,-0.5098,-0.5098,-0.5098,-0.5098,-0.5098,0.0,0.0,0.0,0.0,0.0,0.0,-0.2223,-0.2223,0.0,0.0,0.0,0.0,0.0,0.0,0.0,0.0,0.0,0.0,0.0,0.0,-0.2324,-0.2333,-0.2333,-0.2333,-0.2339,-0.2348,-0.2348,-0.2371,-0.2395,-0.2405,-0.2439,-0.2472,-0.2481,-0.25,-0.2514,-0.2514,-0.2514,-0.2518,-0.2527,-0.257,-0.2605,-0.2615,-0.241,0.0,-0.2188,-0.1934,-0.1687,0.0,0.0,0.0,0.0,0.0,0.0,0.0,-0.1431,-0.1526,-0.1885,-0.1706,-0.1616,-0.1616,-0.1526,-0.1436,-0.1436,-0.1077,-0.0898,-0.0898,-0.0628,0.0,0.0,0.0,0.0,0.0,-0.018,-0.009,0.0,0.0,0.0,0.0,0.0,0.0,0.0,0.0,0.0,0.0,0.0,0.0,0.0,0.0,-0.9822,-0.9856,-0.9889,-1.01,-1.0249,-1.0399,-1.0541,-1.0656,-1.0717,-0.8999,0.0,0.0,0.0,0.0,0.0,0.0,0.0,-0.632,-0.632,-0.632,-0.632,-0.632,-0.6332,-0.6431,-0.6431,-0.6431,-0.6431,-0.6431,-0.6431,0.0,0.0,0.0,0.0,-0.4163,-0.3495,-0.2959,0.0,0.0,0.0,0.0,0.0,0.0,0.0,0.0,0.0,0.0,0.0,0.0,0.0,-0.2324,-0.2333,-0.2333,-0.2333,-0.2333,-0.2333,-0.2348,-0.2364,-0.2376,-0.2416,-0.2455,-0.2466,-0.2493,-0.2514,-0.2514,-0.2514,-0.2514,-0.2514,-0.2563,-0.2521,-0.2359,0.0,0.0,-0.1766,0.0,0.0,0.0,0.0,0.0,0.0,0.0,0.0,0.0,-0.0887,-0.0892,-0.0892,-0.1075,-0.1167,-0.1167,-0.0988,-0.0898,-0.0898,-0.0539,-0.0449,-0.0449,-0.009,0.0,0.0,0.0,0.0,0.0,0.0,0.0,0.0,0.0,0.0,0.0,0.0,0.0,0.0,0.0,0.0,0.0,0.0,0.0,0.0,0.0,-0.9822,-0.9822,-0.9822,-0.9896,-1.0107,-1.0263,-1.0405,-1.0555,-1.0704,0.0,0.0,0.0,0.0,0.0,0.0,0.0,0.0,-0.6492,-0.6492,-0.6492,-0.6492,-0.6496,-0.6543,-0.6689,-0.6698,-0.6698,-0.6698,-0.6698,-0.6698,0.0,0.0,0.0,0.0,-0.6431,-0.5633,0.0,0.0,0.0,0.0,0.0,0.0,0.0,0.0,0.0,0.0,0.0,0.0,0.0,0.0,0.0,0.0,0.0,-0.2333,-0.2333,-0.2333,-0.2333,-0.2339,-0.2368,-0.2398,0.0,-0.2459,-0.2489,-0.2512,-0.2514,-0.2514,-0.2435,-0.2514,-0.2483,-0.2359,-0.1953,-0.1908,0.0,0.0,0.0,0.0,0.0,0.0,0.0,0.0,0.0,0.0,0.0,0.0,0.0,0.0,-0.0446,-0.0628,-0.0628,-0.018,0.0,0.0,0.0,0.0,0.0,0.0,0.0,0.0,0.0,0.0,0.0,0.0,0.0,0.0,0.0,0.0,0.0,0.0,0.0,0.0,0.0,0.0,0.0,0.0,0.0,0.0,0.0,0.0,0.0,0.0,-0.9896,-1.0107,-1.0263,-1.0405,-1.0555,0.0,0.0,0.0,0.0,0.0,0.0,0.0,0.0,0.0,-0.9365,-0.9365,-0.9365,-0.9365,-0.9463,-0.9525,-0.9555,-0.966,-0.9709,-0.9709,-0.9709,-0.9709,0.0,0.0,0.0,0.0,-0.6831,-0.6235,0.0,0.0,0.0,0.0,-0.2558,-0.2223,0.0,0.0,0.0,0.0,0.0,0.0,0.0,0.0,-0.2311,-0.2333,-0.2333,0.0,-0.2333,-0.2333,-0.2333,-0.2334,0.0,-0.2367,-0.2398,-0.2428,-0.2458,-0.2487,-0.251,-0.2278,-0.2121,-0.2435,-0.2004,-0.1709,-0.1872,0.0,0.0,-0.0337,0.0,0.0,0.0,0.0,0.0,0.0,0.0,0.0,0.0,0.0,0.0,0.0,-0.0089,-0.0178,-0.018,-0.009,0.0,0.0,0.0,0.0,0.0,0.0,0.0,0.0,0.0,0.0,0.0,0.0,0.0,0.0,0.0,0.0,0.0,0.0,0.0,0.0,0.0,0.0,0.0,0.0,0.0,0.0,0.0,0.0,0.0,0.0,0.0,-1.0466,-1.0763,-1.0664,0.0,0.0,0.0,0.0,0.0,0.0,0.0,0.0,0.0,-1.0249,-1.0175,-1.0175,-1.0175,-1.0175,-1.0324,-1.0426,-1.0493,-1.0649,-1.0717,-1.0717,-1.0717,-1.0717,0.0,0.0,0.0,-0.951,-0.8706,0.0,0.0,0.0,0.0,0.0,-0.343,-0.2759,0.0,-0.2223,-0.2223,-0.2225,0.0,0.0,0.0,0.0,-0.229,-0.2316,-0.233,-0.2333,-0.2333,-0.2333,-0.2333,-0.2333,-0.2333,-0.2356,-0.2387,-0.2417,-0.2294,-0.2169,-0.2195,-0.1886,-0.1728,-0.1886,-0.1596,-0.1297,0.0,0.0,-0.0253,0.0,0.0,0.0,0.0,0.0,0.0,0.0,0.0,0.0,0.0,0.0,0.0,0.0,0.0,0.0,0.0,0.0,0.0,0.0,0.0,0.0,0.0,0.0,0.0,0.0,0.0,0.0,0.0,0.0,0.0,0.0,0.0,0.0,0.0,0.0,0.0,0.0,0.0,0.0,0.0,0.0,0.0,0.0,0.0,0.0,0.0,0.0,0.0,0.0,0.0,0.0,0.0,0.0,0.0,0.0,0.0,0.0,0.0,0.0,-1.0209,-1.0148,-0.9957,-0.995,-0.995,-0.995,-1.0168,-1.0317,-1.0466,-1.0616,-1.0697,-1.0717,-1.0717,-1.0717,-1.0717,0.0,0.0,-1.0717,-1.0717,0.0,0.0,0.0,0.0,0.0,0.0,0.0,0.0,-0.2289,-0.2223,-0.2223,-0.2223,0.0,0.0,0.0,0.0,0.0,-0.2324,-0.226,-0.226,-0.226,-0.2333,-0.2333,-0.2333,-0.2279,-0.2307,-0.2416,-0.2061,-0.1777,-0.188,-0.1493,-0.1178,-0.1256,-0.1271,0.0,-0.066,-0.0251,0.0,0.0,0.0,0.0,0.0,0.0,0.0,0.0,0.0,0.0,0.0,0.0,0.0,0.0,0.0,0.0,0.0,0.0,0.0,0.0,0.0,0.0,0.0,0.0,0.0,0.0,0.0,0.0,0.0,0.0,0.0,0.0,0.0,0.0,0.0,0.0,0.0,0.0,0.0,0.0,0.0,0.0,0.0,0.0,0.0,0.0,0.0,0.0,0.0,0.0,0.0,0.0,0.0,0.0,0.0,0.0,0.0,0.0,0.0,-0.989,-0.989,-0.9883,-0.9856,-0.9856,-0.9856,-0.9856,-0.995,-1.0161,-1.0317,-1.046,-1.0595,-1.0717,-1.0717,-1.0717,-1.0717,-1.0717,0.0,-1.0717,-1.0717,0.0,0.0,0.0,0.0,0.0,0.0,0.0,0.0,-0.2625,-0.2223,-0.2223,-0.2223,0.0,0.0,0.0,0.0,0.0,-0.2324,-0.2114,-0.1968,-0.226,-0.2333,-0.2333,-0.2333,-0.2116,-0.1988,-0.2336,-0.182,-0.1453,-0.1799,-0.1256,-0.0864,-0.1256,0.0,-0.0571,0.0,0.0,0.0,0.0,0.0,0.0,0.0,0.0,0.0,0.0,0.0,0.0,0.0,0.0,0.0,0.0,0.0,0.0,0.0,0.0,0.0,0.0,0.0,0.0,0.0,0.0,0.0,0.0,0.0,0.0,0.0,0.0,0.0,0.0,0.0,0.0,0.0,0.0,0.0,0.0269,0.0,0.0,0.0,0.0,0.0,0.0,0.0,0.0,0.0,0.0,0.0,0.0,0.0,0.0,0.0,0.0,0.0,0.0,0.0,0.0,-0.9822,-0.9822,-0.9822,-0.9822,-0.9822,-0.9822,-0.9822,-0.9822,-0.9909,-1.0127,-1.0283,-1.0514,-1.0656,-1.0717,-1.0717,-1.0717,-1.0717,-1.0717,-1.0717,-1.0717,0.0,0.0,0.0,0.0,0.0,0.0,0.0,0.0,0.0,0.0,-0.3362,-0.3228,-0.2423,0.0,0.0,0.0,0.0,0.0,-0.232,-0.2187,-0.2041,-0.2041,-0.1896,-0.1678,-0.1678,-0.1613,-0.1555,-0.1735,-0.1294,-0.0923,-0.1175,-0.0707,-0.0314,-0.055,0.0,-0.0245,0.0,0.0,0.0,0.0,0.0,0.0,0.0,0.0,0.0,0.0,0.0,0.0,0.0,0.0,0.0,0.0,0.0,0.0,0.0,0.0,0.0,0.0,0.0,0.0,0.0,0.0,0.0,0.0,0.0,0.0,0.0,0.0,0.0,0.0,0.0,0.0,0.0,0.0,0.0,0.009,0.0,0.0,0.0,0.0,0.0,0.0,0.0,0.0,0.0,0.0,0.0,0.0,0.0,0.0,0.0,0.0,0.0,0.0,0.0,-1.0189,-0.9943,-0.9943,-0.9822,-0.9822,-0.9822,-0.9822,-0.9822,-0.9822,-0.9876,-1.0073,-1.0236,-1.0493,-1.0636,-1.067,-1.067,-1.0683,-1.0717,-1.0717,-1.0717,-1.0717,0.0,0.0,0.0,0.0,0.0,0.0,0.0,0.0,0.0,0.0,0.0,0.0,0.0,0.0,0.0,-0.2228,-0.2175,-0.2188,-0.2316,-0.2187,-0.1968,-0.175,-0.1532,-0.1313,-0.1241,-0.1105,-0.1118,-0.1208,-0.0841,-0.0465,-0.0549,-0.0236,0.0,0.0,0.0,0.0,0.0,0.0,0.0,0.0,0.0,0.0,0.0,0.0,0.0,0.0,0.0,0.0,0.0,0.0,0.0,0.0,0.0,0.0,0.0,0.0,0.0,0.0,0.0,0.0,0.0,0.0,0.0,0.0,0.0,0.0,0.0,0.0,0.0,0.0,0.0,0.0,0.0,0.0,0.0269,0.0718,0.0,0.0,0.0,0.0,0.0,0.0,0.0,0.0,0.0,0.0,0.0,0.0,0.0,0.0,0.0,0.0,0.0,0.0,0.0,-1.0429,-1.0247,-1.0247,-0.9943,-0.9822,-0.9822,-0.9822,-0.9822,-0.9822,-0.9829,-0.9856,-1.0004,-1.0236,-1.0385,-1.0507,-1.0507,-1.0588,-1.0717,-1.0717,-1.0717,-1.0717,-1.0717,0.0,0.0,0.0,0.0,0.0,0.0,0.0,0.0,0.0,0.0,0.0,0.0,0.0,-0.2166,-0.2228,-0.2175,-0.2188,-0.2316,-0.1824,-0.1241,-0.1241,-0.1532,-0.1677,-0.1314,-0.0885,-0.0747,-0.1133,-0.0612,-0.0155,-0.0549,-0.0236,0.0,0.0,0.0,0.0,0.0,0.0,0.0,0.0,0.0,0.0,0.0,0.0,0.0,0.0,0.0,0.0,0.0,0.0,0.0,0.0,0.0,0.0,0.0,0.0,0.0,0.0,0.0,0.0,0.0,0.0,0.0,0.0,0.0,0.0,0.0,0.0,0.0,0.0,0.0,0.0,0.0,0.0,0.1166,0.2688,0.0,0.0,0.0,0.0,0.0,0.0,0.0,0.0,0.0,0.0,0.0,0.0,0.0,0.0,0.0,0.0,0.0,0.0,0.0,-1.1804,-1.114,-1.0301,-1.0004,-0.9822,-0.9822,-0.9822,-0.9822,-0.9822,-0.9856,-0.993,-0.999,-1.0209,-1.031,-1.0358,-1.0358,-1.0392,-1.0446,-1.0446,-1.0493,-1.0575,-1.0575,-1.0636,0.0,0.0,0.0,0.0,0.0,0.0,0.0,0.0,-0.5034,-0.4031,-0.2625,-0.2223,-0.2166,-0.2228,-0.2035,-0.1905,-0.1954,-0.1605,-0.1168,-0.0876,-0.0948,-0.0948,-0.0511,-0.0371,-0.0301,-0.0454,-0.0232,-0.0079,-0.0238,-0.0079,0.0,0.0,0.0,0.0,0.0,0.0,0.0,0.0,0.0,0.0,0.0,0.0,0.0,0.0,0.0,0.0,0.0,0.0,0.0,0.0,0.0,0.0,0.0,0.0,0.0,0.0,0.0,0.0,0.0,0.0,0.0,0.0,0.0,0.0,0.0,0.0,0.0,0.0,0.0,0.0,0.0,0.0,0.1256,0.2867,0.0,0.0,0.0,0.0,0.0,0.0,0.0,0.0,0.0,0.0,0.0,0.0,0.0,0.0,0.0,0.0,0.0,0.0,-1.4013,-1.3057,-1.2097,-1.108,-1.0411,-0.9951,-0.989,-0.9944,-0.9917,-0.9822,-0.9862,-0.9916,-0.9916,-1.0086,-1.0161,-1.0209,-1.0209,-1.0236,-1.0283,-1.0283,-1.0365,-1.0493,-1.0493,-1.0582,0.0,0.0,0.0,0.0,0.0,0.0,0.0,0.0,-0.5432,-0.4031,-0.2625,-0.2223,-0.2165,-0.2077,-0.1888,-0.1692,-0.1657,-0.1309,-0.0949,-0.0657,-0.0511,-0.0365,-0.0073,0.0,0.0,0.0,0.0,0.0,0.0,0.0,0.0,0.0,0.0,0.0,0.0,0.0,0.0,0.0,0.0,0.0,0.0,0.0,0.0,0.0,0.0,0.0,0.0,0.0,0.0,0.0,0.0,0.0,0.0,0.0,0.0,0.0,0.0,0.0,0.0,0.0,0.0,0.0,0.0,0.0,0.0,0.0,0.0,0.0,0.0,0.0,0.0,0.0,0.1256,0.2956,0.0,0.0,0.0,0.0,0.0,0.0,0.0,0.0,0.0,0.0,0.0,0.0,0.0,0.0,0.0,0.0,0.0,0.0,-1.5698,-1.4143,-1.3066,-1.2706,-1.131,-1.0363,-0.999,-1.0202,-1.0127,-0.9822,-0.9822,-0.9822,-0.9822,-0.9822,-0.9903,-0.9984,-0.9984,-1.0134,-1.0276,-1.0276,-1.0358,-1.0487,-1.0487,-1.0582,-1.0717,0.0,0.0,0.0,0.0,0.0,0.0,0.0,-0.5432,-0.4034,-0.2625,-0.2223,-0.2161,-0.178,-0.1666,-0.1618,-0.1284,-0.0867,-0.0584,-0.0584,-0.0292,0.0,0.0,0.0,0.0,0.0,0.0,0.0,0.0,0.0,0.0,0.0,0.0,0.0,0.0,0.0,0.0,0.0,0.0,0.0,0.0,0.0,0.0,0.0,0.0,0.0,0.0,0.0,0.0,0.0,0.0,0.0,0.0,0.0,0.0,0.0,0.0,0.0,0.0,0.0,0.0,0.0,0.0,0.0,0.0,0.0,0.0,0.0,0.0,0.0,0.0,0.0,0.1256,0.3136,0.0,0.0,0.0,0.0,0.0,0.0,0.0,0.0,0.0,0.0,0.0,0.0,0.0,0.0,0.0,0.0,0.0,0.0,-1.7315,-1.6744,-1.5493,-1.3296,-1.254,-1.158,-1.0209,-1.0148,-1.0011,-0.9916,-0.9876,-0.9822,-0.9822,-0.9822,-0.9842,-0.989,-0.989,-0.9917,-0.9958,-0.9958,-1.0107,-1.0344,-1.0344,-1.0493,-1.0717,0.0,0.0,0.0,0.0,0.0,0.0,0.0,0.0,0.0,-0.2019,-0.175,-0.1687,-0.1369,-0.1111,-0.0844,-0.0784,-0.0506,-0.0146,-0.0146,-0.0073,0.0,0.0,0.0,0.0,0.0,0.0,0.0,0.0,0.0,0.0,0.0,0.0,0.0,0.0,0.0,0.0,0.0,0.0,0.0,0.0,0.0,0.0,0.0,0.0,0.0,0.0,0.0,0.0,0.0,0.0,0.0,0.0,0.0,0.0,0.0,0.0,0.0,0.0,0.0,0.0,0.0,0.0,0.0,0.0,0.0,0.0,0.0,0.0,0.0,0.0,0.0,0.1256,0.3136,0.0,0.0,0.0,0.0,0.0,0.0,0.0,0.0,0.0,0.0,-1.9613,-1.9586,0.0,0.0,0.0,0.0,0.0,0.0,-1.8854,-1.8325,-1.6865,-1.427,-1.3537,-1.2354,-1.0517,-1.0249,-1.0141,-1.0141,-0.9924,-0.9822,-0.9822,-0.9822,-0.9822,-0.9822,-0.9822,-0.9822,-0.9822,-0.9883,-1.0053,-1.0283,-1.0344,-1.0507,-1.0717,0.0,0.0,0.0,0.0,0.0,0.0,0.0,0.0,0.0,-0.1548,-0.1414,-0.1348,-0.0952,-0.0691,-0.0492,-0.0354,-0.0216,0.0,0.0,0.0,0.0,0.0,0.0,0.0,0.0,0.0,0.0,0.0,0.0,0.0,0.0,0.0,0.0,0.0,0.0,0.0,0.0,0.0,0.0,0.0,0.0,0.0,0.0,0.0,0.0,0.0,0.0,0.0,0.0,0.0,0.0,0.0,0.0,0.0,0.0,0.0,0.0,0.0,0.0,0.0,0.0,0.0,0.0,0.0,0.0,0.0,0.0,0.0,0.0,0.0,0.0,0.1256,0.3136,0.0,0.0,0.0,0.0,0.0,0.0,0.0,0.0,0.0,0.0,-2.0,-1.9947,0.0,0.0,0.0,0.0,0.0,0.0,0.0,-1.9048,-1.7437,-1.5431,-1.4052,-1.2507,-1.0717,-1.0432,-1.0283,-1.0283,-0.9971,-0.9822,-0.9822,-0.9822,-0.9822,-0.9822,-0.9822,-0.9829,-0.9849,-0.993,-1.0148,-1.031,-1.0439,-1.0582,-1.0717,-1.0585,0.0,0.0,0.0,0.0,0.0,0.0,0.0,0.0,-0.1144,-0.1077,-0.0943,-0.0539,-0.0481,-0.0421,-0.007,0.0,0.0,0.0,0.0,0.0,0.0,0.0,0.0,0.0,0.0,0.0,0.0,0.0,0.0,0.0,0.0,0.0,0.0,0.0,0.0,0.0,0.0,0.0,0.0,0.0,0.0,0.0,0.0,0.0,0.0,0.0,0.0,0.0,0.0,0.0,0.0,0.0,0.0,0.0,0.0,0.0,0.0,0.0,0.0,0.0,0.0,0.0,0.0,0.0,0.0,0.0,0.0,0.0,0.0,0.0,0.1256,0.3136,0.0,0.0,0.0,0.0,0.0,0.0,0.0,0.0,0.0,0.0,0.0,0.0,0.0,0.0,0.0,0.0,0.0,0.0,0.0,-1.9512,-1.7955,-1.5836,-1.2922,-1.1146,-1.0717,-1.0432,-1.0283,-1.0283,-0.9971,-0.9822,-0.9822,-0.9822,-0.9822,-0.9822,-0.9822,-0.989,-0.9936,-0.997,-1.0202,-1.0453,-1.048,-1.0582,-1.0585,-0.9443,-0.8839,0.0,0.0,0.0,0.0,0.0,0.0,0.0,-0.0741,-0.0606,-0.0539,-0.0202,-0.0137,-0.007,0.0,0.0,0.0,0.0,0.0,0.0,0.0,0.0,0.0,0.0,0.0,0.0,0.0,0.0,0.0,0.0,0.0,0.0,0.0,0.0,0.0,0.0,0.0,0.0,0.0,0.0,0.0,0.0,0.0,0.0,0.0,0.0,0.0,0.0,0.0,0.0,0.0,0.0,0.0,0.0,0.0,0.0,0.0,0.0,0.0,0.0,0.0,0.0,0.0,0.0,0.0,0.0,0.0,0.0,0.0,0.0,0.1256,0.3136,0.0,0.0,0.0,0.0,0.0,0.0,0.0,0.0,0.0,0.0,0.0,0.0,0.0,0.0,0.0,0.0,0.0,0.0,0.0,0.0,-1.7742,-1.5014,-1.2215,-1.0717,-1.0717,-1.0432,-1.0283,-1.0283,-0.9971,-0.9822,-0.9822,-0.9822,-0.9822,-0.9822,-0.9835,-0.9909,-0.9997,-1.0202,-1.0351,-1.05,-1.0568,-1.0649,-1.0518,-0.9111,-0.8041,-0.7036,-0.4833,0.0,0.0,0.0,0.0,0.0,0.0,0.0,-0.0202,-0.0068,0.0,0.0,0.0,0.0,0.0,0.0,0.0,0.0,0.0,0.0,0.0,0.0,0.0,0.0,0.0,0.0,0.0,0.0,0.0,0.0,0.0,0.0,0.0,0.0,0.0,0.0,0.0,0.0,0.0,0.0,0.0,0.0,0.0,0.0,0.0,0.0,0.0,0.0,0.0,0.0,0.0,0.0,0.0,0.0,0.0,0.0,0.0,0.0,0.0,0.0,0.0,0.0,0.0,0.0,0.0,0.0,0.0,0.0,0.1256,0.3136,0.0,0.0,0.0,0.0,0.0,0.0,0.0,0.0,0.0,0.0,0.0,0.0,0.0,0.0,0.0,0.0,0.0,0.0,0.0,0.0,0.0,-1.3914,-1.1828,-1.0717,-1.0717,-1.0432,-1.0283,-1.0283,-0.9971,-0.9822,-0.9822,-0.9822,-0.9822,-0.9829,-0.9916,-1.0004,-1.0044,-1.0378,-1.0507,-1.0541,-1.067,-1.0518,-1.018,-0.8773,-0.7102,-0.5369,-0.3962,-0.2353,-0.0943,-0.0606,0.0,0.0,0.0,0.0,0.0,0.0,0.0,0.0,0.0,0.0,0.0,0.0,0.0,0.0,0.0,0.0,0.0,0.0,0.0,0.0,0.0,0.0,0.0,0.0,0.0,0.0,0.0,0.0,0.0,0.0,0.0,0.0,0.0,0.0,0.0,0.0,0.0,0.0,0.0,0.0,0.0,0.0,0.0,0.0,0.0,0.0,0.0,0.0,0.0,0.0,0.0,0.0,0.0,0.0,0.0,0.0,0.0,0.0,0.0,0.0,0.0,0.0,0.0,0.0,0.1256,0.3136,0.0,0.0,0.0,0.0,0.0,0.0,0.0,0.0,0.0,0.0,-2.1082,-2.1069,0.0,0.0,0.0,0.0,0.0,0.0,-2.1109,0.0,0.0,-1.3849,-1.1828,-1.0717,-1.0717,-1.0432,-1.0283,-1.0283,-0.9971,-0.9822,-0.9822,-0.9822,-0.9822,-0.9829,-0.9916,-1.0127,-1.0263,-1.0426,-1.0568,-1.069,-1.0711,-0.9981,-0.8706,-0.7236,-0.5633,-0.3895,-0.2422,-0.1346,-0.0539,-0.0539,-0.0337,0.0,0.0,0.0,0.0,0.0,0.0,0.0,0.0,0.0,0.0,0.0,0.0,0.0,0.0,0.0,0.0,0.0,0.0,0.0,0.0,0.0,0.0,0.0,0.0,0.0,0.0,0.0,0.0,0.0,0.0,0.0,0.0,0.0,0.0,0.0,0.0,0.0,0.0,0.0,0.0,0.0,0.0,0.0,0.0,0.0,0.0,0.0,0.0,0.0,0.0,0.0,0.0,0.0,0.0,0.0,0.0,0.0,0.0,0.0,0.0,0.0,0.0,0.0,0.1256,0.3136,0.0,0.0,0.0,0.0,0.0,0.0,0.0,0.0,0.0,0.0,0.0,-2.1109,0.0,0.0,0.0,-2.1109,-2.1109,-2.0792,-1.9941,-1.7409,-1.5274,-1.3849,-1.1828,-1.0717,-1.0717,-1.0432,-1.0283,-1.0283,-0.9971,-0.9822,-0.9822,-0.9849,-0.9889,-0.9896,-1.0107,-1.0263,-1.0412,-1.0555,-1.0656,-1.0651,-0.9848,-0.9039,-0.8035,-0.5767,-0.4227,-0.3023,-0.148,-0.0673,-0.0202,-0.0202,-0.0135,0.0,0.0,0.0,0.0,0.0,0.0,0.0,0.0,0.0,0.0,0.0,0.0,0.0,0.0,0.0,0.0,0.0,0.0,0.0,0.0,0.0,0.0,0.0,0.0,0.0,0.0,0.0,0.0,0.0,0.0,0.0,0.0,0.0,0.0,0.0,0.0,0.0,0.0,0.0,0.0,0.0,0.0,0.0,0.0,0.0,0.0,0.0,0.0,0.0,0.0,0.0,0.0,0.0,0.0,0.0,0.0,0.0,0.0,0.0,0.0,0.0,0.0,0.0,0.0538,0.1524,0.0,0.0,0.0,0.0,0.0,0.0,0.0,0.0,0.0,0.0,0.0,0.0,0.0,0.0,0.0,0.0,-2.1109,-2.0652,-1.9623,-1.728,-1.5394,-1.4362,-1.2025,-1.0704,-1.0663,-1.0412,-1.0263,-1.0222,-0.9951,-0.9842,-0.9883,-0.9936,-1.0031,-1.0105,-1.0283,-1.0392,-1.05,-1.0656,-1.0717,-1.0585,-0.9039,-0.8035,-0.7165,-0.4629,-0.3023,-0.2016,-0.0875,-0.0269,0.0,0.0,0.0,0.0,0.0,0.0,0.0,0.0,0.0,0.0,0.0,0.0,0.0,0.0,0.0,0.0,0.0,0.0,0.0,0.0,0.0,0.0,0.0,0.0,0.0,0.0,0.0,0.0,0.0,0.0,0.0,0.0,0.0,0.0,0.0,0.0,0.0,0.0,0.0,0.0,0.0,0.0,0.0,0.0,0.0,0.0,0.0,0.0,0.0,0.0,0.0,0.0,0.0,0.0,0.0,0.0,0.0,0.0,0.0,0.0,0.0,0.0,0.0,0.0,0.0,0.0,0.0269,0.0987,0.0,0.0,0.0,0.0,0.0,0.0,0.0,0.0,0.0,0.0,0.0,0.0,-2.1109,-2.1109,-2.1109,-2.1109,-2.1109,-2.1046,-2.0982,-1.7795,-1.5848,-1.5784,-1.2545,0.0,-1.0507,-1.0358,-1.0209,-0.9997,-0.9897,-0.9897,-0.9977,-0.9984,-1.0202,-1.0466,-1.048,-1.0487,-1.05,-1.0656,-1.0717,-1.0518,-0.8767,-0.7231,-0.5834,-0.3959,-0.215,-0.0606,-0.0539,0.0,0.0,0.0,0.0,0.0,0.0,0.0,0.0,0.0,0.0,0.0,0.0,0.0,0.0,0.0,0.0,0.0,0.0,0.0,0.0,0.0,0.0,0.0,0.0,0.0,0.0,0.0,0.0,0.0,0.0,0.0,0.0,0.0,0.0,0.0,0.0,0.0,0.0,0.0,0.0,0.0,0.0,0.0,0.0,0.0,0.0,0.0,0.0,0.0,0.0,0.0,0.0,0.0,0.0,0.0,0.0,0.0,0.0,0.0,0.0,0.0,0.0,0.0,0.0,0.0,0.0,0.0,0.1166,0.3046,0.0,0.0,0.0,0.0,0.0,0.0,0.0,0.0,0.0,0.0,0.0,0.0,0.0,-2.1109,-2.1109,-2.1109,-2.1109,-2.1109,-2.1109,-1.7776,-1.5826,-1.5913,-1.2394,-1.0453,-1.0493,-1.0256,-1.0044,-0.9984,-0.9897,-0.9835,-0.999,-1.0148,-1.0304,-1.0493,-1.0493,-1.0548,-1.0643,-1.0697,-1.018,-0.9178,-0.7369,-0.5633,-0.3959,-0.215,-0.0942,-0.0202,0.0,0.0,0.0,0.0,0.0,0.0,0.0,0.0,0.0,0.0,0.0,0.0,0.0,0.0,0.0,0.0,0.0,0.0,0.0,0.0,0.0,0.0,0.0,0.0,0.0,0.0,0.0,0.0,0.0,0.0,0.0,0.0,0.0,0.0,0.0,0.0,0.0,0.0,0.0,0.0,0.0,0.0,0.0,0.0,0.0,0.0,0.0,0.0,0.0,0.0,0.0,0.0,0.0,0.0,0.0,0.0,0.0,0.0,0.0,0.0,0.0,0.0,0.0,0.0,0.0,0.0,0.0,0.0,0.0449,0.1345,0.0,0.0,0.0,0.0,0.0,0.0,0.0,0.0,-2.1109,-2.1109,0.0,0.0,0.0,0.0,-2.1109,-2.1109,-2.1109,-2.0866,-2.0383,-1.7449,-1.5483,-1.5061,-1.2027,-1.0297,-1.0344,-1.0085,-0.9963,-0.9909,-0.9862,-0.9978,-1.0127,-1.0283,-1.0426,-1.0568,-1.0568,-1.0622,-1.0717,-1.0717,-1.0114,-0.8911,-0.6635,-0.4964,-0.349,-0.121,-0.0202,0.0,0.0,0.0,0.0,0.0,0.0,0.0,0.0,0.0,0.0,0.0,0.0,0.0,0.0,0.0,0.0,0.0,0.0,0.0,0.0,0.0,0.0,0.0,0.0,0.0,0.0,0.0,0.0,0.0,0.0,0.0,0.0,0.0,0.0,0.0,0.0,0.0,0.0,0.0,0.0,0.0,0.0,0.0,0.0,0.0,0.0,0.0,0.0,0.0,0.0,0.0,0.0,0.0,0.0,0.0,0.0,0.0,0.0,0.0,0.0,0.0,0.0,0.0,0.0,0.0,0.0,0.0,0.0,0.0,0.0449,0.1256,0.0,0.0,0.0,0.0,0.0,0.0,0.0,0.0,-2.1109,-2.1109,0.0,0.0,0.0,0.0,0.0,-2.1109,-2.1046,-2.0396,-1.89,-1.6781,-1.4974,-1.3474,-1.1396,-1.0202,-0.999,-0.9984,-0.9909,-0.9829,-0.9916,-1.0134,-1.029,-1.0426,-1.0575,-1.0717,-1.0717,-1.0717,-1.0717,-1.0717,-1.0452,-0.9854,-0.6702,-0.5162,-0.4423,-0.121,0.0,0.0,0.0,0.0,0.0,0.0,0.0,0.0,0.0,0.0,0.0,0.0,0.0,0.0,0.0,0.0,0.0,0.0,0.0,0.0,0.0,0.0,0.0,0.0,0.0,0.0,0.0,0.0,0.0,0.0,0.0,0.0,0.0,0.0,0.0,0.0,0.0,0.0,0.0,0.0,0.0,0.0,0.0,0.0,0.0,0.0,0.0,0.0,0.0,0.0,0.0,0.0,0.0,0.0,0.0,0.0,0.0,0.0,0.0,0.0,0.0,0.0,0.0,0.0,0.0,0.0,0.0,0.0,0.0,0.0,0.1256,0.3136,0.0,0.0,0.0,0.0,0.0,-2.174,-2.1601,-2.1299,-2.1109,0.0,0.0,0.0,-2.1109,-2.1109,-2.1109,-2.1109,-2.0144,-1.9245,-1.8512,-1.5689,-1.3771,-1.3098,-1.1046,-0.9978,-0.9984,-0.9876,-0.9856,-0.9923,-0.9963,-1.0181,-1.0432,-1.0473,-1.0575,-1.0717,-1.0717,-1.0717,-1.0717,-1.0717,-0.9915,-0.8446,-0.6235,-0.4562,-0.3026,0.0,0.0,0.0,0.0,0.0,0.0,0.0,0.0,0.0,0.0,0.0,0.0,0.0,0.0,0.0,0.0,0.0,0.0,0.0,0.0,0.0,0.0,0.0,0.0,0.0,0.0,0.0,0.0,0.0,0.0,0.0,0.0,0.0,0.0,0.0,0.0,0.0,0.0,0.0,0.0,0.0,0.0,0.0,0.0,0.0,0.0,0.0,0.0,0.0,0.0,0.0,0.0,0.0,0.0,0.0,0.0,0.0,0.0,0.0,0.0,0.0,0.0,0.0,0.0,0.0,0.0,0.0,0.0,0.0,0.0,0.0,0.1256,0.3136,0.0,0.0,0.0,-2.2606,-2.2167,-2.174,-2.1614,-2.1299,-2.1109,0.0,0.0,0.0,-2.1109,-2.1109,-2.0856,-2.0272,-1.9483,-1.8296,-1.661,-1.4524,-1.2957,-1.1875,-1.0587,-0.9896,-0.9984,-1.0025,-1.0053,-1.0148,-1.0202,-1.0324,-1.0493,-1.0555,-1.0636,-1.0717,-1.0518,-1.0518,-1.0452,-1.0326,-0.9655,-0.8512,-0.6097,0.0,0.0,-0.089,0.0,0.0,0.0,0.0,0.0,0.0,0.0,0.0,0.0,0.0,0.0,0.0,0.0,0.0,0.0,0.0,0.0,0.0,0.0,0.0,0.0,0.0,0.0,0.0,0.0,0.0,0.0,0.0,0.0,0.0,0.0,0.0,0.0,0.0,0.0,0.0,0.0,0.0,0.0,0.0,0.0,0.0,0.0,0.0,0.0,0.0,0.0,0.0,0.0,0.0,0.0,0.0,0.0,0.0,0.0,0.0,0.0,0.0,0.0,0.0,0.0,0.0,0.0,0.0,0.0,0.0,0.0,0.0,0.009,0.0897,0.1883,0.3315,0.0,0.0,-2.2856,-2.2543,-2.223,-2.1915,-2.1614,-2.1299,-2.1109,0.0,-2.1109,-2.1109,-2.1109,-2.1109,-2.0526,-1.91,-1.8844,-1.736,-1.4094,-1.3438,-1.2345,-1.0372,-1.0129,-1.0011,-1.0011,-1.0209,-1.029,-1.0304,-1.0432,-1.05,-1.0521,-1.0656,-1.0651,-1.0651,-1.0326,-1.0193,-1.0127,-0.9794,-0.9661,-0.9389,-0.6297,-0.4732,0.0,0.0,-0.0139,0.0,0.0,0.0,0.0,0.0,0.0,0.0,0.0,0.0,0.0,0.0,0.0,0.0,0.0,0.0,0.0,0.0,0.0,0.0,0.0219,0.0221,0.0298,0.0,0.0,0.0,0.0,0.0,0.0,0.0,0.0,0.0,0.0,0.0,0.0,0.0,0.0,0.0,0.0,0.0,0.0,0.0,0.0,0.0,0.0,0.0,0.0,0.0,0.0,0.0,0.0,0.0,0.0,0.0,0.0,0.0,0.0,0.0,0.0,0.0,0.0,0.0,0.0,0.0,0.0,0.0,0.0,0.0,0.018,0.1972,0.2867,0.3671,0.0,-2.2292,-2.2167,-2.1853,-2.1551,-2.1299,-2.1235,-2.1172,-2.1109,-2.1109,-2.1109,-2.1109,-2.1109,-2.1109,-2.0526,-1.91,-1.8011,-1.6337,-1.3834,-1.2555,-1.146,-1.0321,-1.0285,-1.0236,-1.0236,-1.0263,-1.0337,-1.0453,-1.048,-1.0555,-1.0677,-1.0704,-1.0591,-1.0259,-1.0259,-1.006,-0.9794,-0.9389,-0.9183,-0.905,-0.7307,-0.568,-0.4116,-0.2361,-0.0985,0.0,0.0,0.0,0.0,0.0,0.0,0.0,0.0,0.0,0.0,0.0,0.0,0.0,0.0,0.0,0.0,0.0,0.0,0.0,0.1603,0.1825,0.2201,0.0,0.0,0.0,0.0,0.0,0.0,0.0,0.0,0.0,0.0,0.0,0.0,0.0,0.0,0.0,0.0,0.0,0.0,0.0,0.0,0.0,0.0,0.0,0.0,0.0,0.0,0.0,0.0,0.0,0.0,0.0,0.0,0.0,0.0,0.0,0.0,0.0,0.0,0.0,0.0,0.0,0.0,0.0,0.0,0.0,0.009,0.0449,0.2509,0.5281,-2.2104,-2.2104,-2.1978,-2.1677,-2.1488,-2.1299,-2.1109,-2.1109,-2.1109,-2.1109,-2.1109,-2.1109,-2.1109,-2.1109,-2.0272,-1.8203,-1.7367,-1.5778,-1.2814,-1.1975,-1.1199,-1.0354,-1.0344,-1.0385,-1.0385,-1.046,-1.0534,-1.0609,-1.0609,-1.0643,-1.0717,-1.0717,-1.0525,-1.0193,-1.006,-0.9728,-0.9389,-0.8989,-0.889,-0.8811,-0.7386,0.0,-0.4159,-0.2743,-0.1285,0.0,0.0,0.0,0.0,0.0,0.0,0.0,0.0,0.0,0.0,0.0,0.0,0.0,0.0,0.0,0.0,0.0,0.0,0.0,0.0,0.233,0.2775,0.4359,0.4839,0.0,0.0,0.0,0.0,0.0,0.0,0.0,0.0,0.0,0.0,0.0,0.0,0.0,0.0,0.0,0.0,0.0,0.0,0.0,0.0,0.0,0.0,0.0,0.0,0.0,0.0,0.0,0.0,0.0,0.0,0.0,0.0,0.0,0.0,0.0,0.0,0.009,0.0359,0.0359,0.0449,0.0628,0.018,0.018,0.0449,0.1435,0.3762,0.6621,-2.1929,-2.1992,-2.1915,-2.1551,-2.1488,-2.1425,-2.1172,-2.1109,-2.1109,-2.1109,-2.0856,-2.0716,-2.0716,-2.0462,-1.9304,-1.6786,-1.6592,-1.5151,-1.1843,-1.164,-1.1264,-1.0436,-1.0473,-1.0534,-1.0534,-1.0656,-1.0717,-1.0717,-1.0717,-1.0717,-1.0717,-1.0717,-1.0518,-1.006,-0.9794,-0.9455,-0.8984,-0.8745,-0.8682,-0.8706,0.0,-0.5979,-0.4215,-0.3126,-0.1584,0.0,0.0,0.0,0.0,0.0,0.0,0.0,0.0,0.0,0.0,0.0,0.0,0.0,0.0,0.0,0.0,0.0,0.0,0.0875,0.0,0.0,0.0,0.532,0.0,0.0,0.0,0.0,0.0,0.0,0.0,0.0,0.0,0.0,0.0,0.0,0.0,0.0,0.0,0.0,0.0,0.0,0.0,0.0,0.0,0.0,0.0,0.0,0.0,0.0,0.0,0.0,0.0,0.0,0.0,0.0,0.0,0.0,0.0,0.0,0.0,0.0269,0.0718,0.0718,0.0988,0.1347,0.0539,0.0539,0.1077,0.3047,0.5191,0.7513,-2.1235,-2.1425,-2.1551,-2.1235,-2.1172,-2.1172,-2.1109,-2.1109,-2.1109,-2.1109,-2.0005,-1.9228,-1.9228,-1.8203,-1.685,-1.5294,-1.5163,-1.4184,-1.1952,-1.1754,-1.141,-1.067,-1.0683,-1.0697,-1.0697,-1.0711,-1.0717,-1.0717,-1.0717,-1.0717,-1.0717,-1.0717,-1.0392,-0.9728,-0.9728,-0.9322,-0.8662,-0.8771,-0.8758,0.0,-0.8793,-0.7106,0.0,-0.4279,-0.2448,0.0,0.0,0.0,0.0,0.0,0.0,0.0,0.0,0.0,0.0,0.0,0.0,0.0,0.0,0.0,0.0,0.0,0.1021,0.0,0.0,0.0,0.693,0.8646,0.0,0.0,0.0,0.0,0.0,0.0,0.0,0.0,0.0,0.0,0.0,0.0,0.0,0.0,0.0,0.0,0.0,0.0,0.0,0.0,0.0,0.0,0.0,0.0,0.0,0.0,0.0,0.0,0.0,0.0,0.0,0.0,0.0,0.0,0.0,0.0,0.0,0.0269,0.0718,0.0718,0.0988,0.1347,0.1257,0.1257,0.1526,0.3494,0.546,0.7513,-2.1109,-2.1235,-2.1299,-2.1109,-2.1109,-2.1109,-2.1109,-2.1109,-2.1109,-2.1109,-1.9877,-1.8972,-1.8972,-1.7818,-1.6462,-1.5033,0.0,-1.3801,0.0,0.0,-1.1247,-1.0717,-1.0717,-1.0717,-1.0717,-1.0717,-1.0717,-1.0717,-1.0717,-1.0717,-1.0717,-1.0525,-1.0193,-0.9661,-0.9455,-0.9096,-0.8698,-0.8747,-0.8851,0.0,0.0,0.0,0.0,-0.4979,-0.2681,0.0,0.0,0.0,0.0,0.0,0.0,0.0,0.0,0.0,0.0,0.0,0.0,0.0,0.0,0.0,0.0,0.0,0.0,0.0,0.0,0.0,0.6421,0.0,0.0,0.0,0.0,0.0,0.0,0.0,0.9149,0.0,0.0,0.0,0.0,0.0,0.0,0.0,0.0,0.0,0.0,0.0,0.0,0.0,0.0,0.0,0.0,0.0,0.0,0.0,0.0,0.0,0.0,0.0,0.0,0.0,0.0,0.0267,0.0449,0.0449,0.0718,0.1077,0.1526,0.1526,0.1885,0.2245,0.2245,0.2066,0.2065,0.4031,0.6085,0.8319,-2.1109,-2.1109,-2.1109,-2.1109,-2.1109,-2.1109,-2.1109,-2.1109,-2.0982,-2.0589,-1.9291,-1.8332,-1.7946,-1.6656,0.0,0.0,-1.3997,-1.3284,0.0,0.0,-1.1049,0.0,0.0,0.0,0.0,-1.0717,-1.0717,-1.0717,-1.0717,-1.0717,-1.0717,-1.0392,-0.9994,-0.9661,-0.9291,-0.9019,-0.8774,-0.884,-0.897,-0.9139,-0.9166,-0.8294,-0.6761,-0.4802,-0.2621,-0.0583,-0.0146,0.0,0.0,0.0,0.0,0.0,0.0,0.0,0.0,0.0,0.0,0.0,0.0,0.0,0.0,0.0,0.0,0.0,0.0,0.0,0.0,0.0,0.0,0.0,0.0,0.0,0.0,0.0,0.0,0.9169,0.0,0.0,0.0,0.0,0.0,0.0,0.0,0.0,0.0,0.0,0.0,0.0,0.0,0.0,0.0,0.0,0.0,0.0,0.0,0.0,0.0,0.0,0.0,0.0,0.0,0.0445,0.0718,0.0718,0.1167,0.1706,0.2156,0.2156,0.2515,0.2874,0.2874,0.2694,0.2693,0.5107,0.6803,0.823,-2.1109,-2.1109,-2.1109,-2.1109,-2.1109,-2.1109,-2.1109,-2.1109,-2.0589,-1.9228,-1.7882,0.0,0.0,0.0,0.0,0.0,0.0,-1.2239,-1.1843,0.0,-1.1049,0.0,0.0,-1.0717,0.0,0.0,-1.0717,-1.0717,-1.0717,-1.0717,-1.0717,-1.0392,-0.9994,-0.9667,-0.9385,-0.9104,-0.8785,-0.9024,-0.9128,-0.9144,-0.9253,-0.8357,-0.6688,0.0,-0.233,-0.2039,-0.051,0.0,0.0,0.0,0.0,0.0,0.0,0.0,0.0,0.0,0.0,0.0,0.0,0.0,0.0,0.0,0.0,0.0,0.0,0.0,0.7582,0.0,0.0,0.0,0.0,0.0,0.0,1.0074,0.0,0.0,0.0,0.0,0.0,0.0,0.0,0.0,0.0,0.0,0.0,0.0,0.0,0.0,0.0,0.0,0.0,0.0,0.0,0.0,0.0,0.0,0.0,0.0,0.0,0.0,0.0,0.0445,0.0718,0.0718,0.1167,0.1706,0.2156,0.2156,0.2515,0.2874,0.2874,0.2874,0.3321,0.707,0.7338,0.6627,-2.1109,-2.1109,-2.1109,-2.1109,-2.1109,-2.1109,-2.1109,-2.0335,-1.9559,0.0,0.0,0.0,0.0,-1.3613,-1.2774,0.0,0.0,-1.1916,-1.1784,-1.1247,0.0,0.0,0.0,-1.0717,0.0,0.0,0.0,-1.0717,-1.0717,-1.0717,-1.0717,-1.0127,-0.9837,-0.9722,-0.9228,-0.8999,-0.9019,0.0,0.0,0.0,0.0,-0.9013,-0.8213,0.0,0.0,-0.2111,-0.0583,0.0,0.0,0.0,0.0,0.0,0.0,0.0,0.0,0.0,0.0,0.0,0.0,0.0,0.0,0.0,0.0,0.0,0.0,0.0,0.0,0.0,0.0,0.0,0.0,0.0,1.0384,1.0373,1.0579,0.0,0.0,0.0,0.0,0.0,0.0,0.0,0.0,0.0,0.0,0.0,0.0,0.0,0.0,0.0,0.0,0.0,0.0,0.0,0.0,0.0,0.0,0.0,0.0344,0.0435,0.0522,0.1334,0.1706,0.1706,0.2156,0.2515,0.2694,0.2694,0.2784,0.2874,0.2874,0.2874,0.3233,0.5733,0.627,0.618,-2.0462,-2.0335,-2.0335,-2.0335,-1.9941,-1.9623,-1.9623,-1.8844,0.0,0.0,-1.6009,0.0,-1.4193,0.0,-1.2774,0.0,-1.2173,-1.1776,-1.1776,-1.1115,0.0,-1.0717,-1.0717,0.0,0.0,0.0,0.0,0.0,-1.0717,-1.0717,-1.0724,-1.0038,-0.9771,-0.9789,-0.9205,-0.8986,-0.9139,-0.9177,-0.9237,0.0,0.0,-0.928,0.0,0.0,-0.4047,-0.2964,0.0,-0.0433,0.0,0.0,0.0,0.0,0.0,0.0,0.0,0.0,0.0,0.0,0.0,0.0,0.0,0.0,0.0,0.0,0.4026,0.0,0.0,0.0,0.0,0.0,0.0,0.0,0.0,0.9739,1.0216,1.0721,0.0,0.9601,0.0,0.0,0.0,0.0,0.0,0.0,0.0,0.0,0.0,0.0,0.0,0.0,0.0,0.0,0.0,0.0,0.0,0.0,0.0086,0.0253,0.0514,0.078,0.0957,0.1772,0.2147,0.2245,0.2694,0.2874,0.2874,0.2874,0.2874,0.2874,0.2874,0.2874,0.3143,0.502,0.618,0.6716,-1.9316,-1.892,-1.878,-1.878,-1.7818,0.0,0.0,0.0,-1.6398,0.0,-1.4847,-1.4259,-1.2964,-1.2774,-1.2774,-1.2766,-1.2173,-1.1776,-1.1776,-1.1115,0.0,0.0,-1.0717,-1.0717,-1.0717,0.0,0.0,0.0,0.0,-1.0724,-1.0664,-1.0065,-0.9789,-0.9813,-0.931,-0.9139,-0.915,-0.9258,-0.9302,-0.9302,-0.9296,-0.9231,-0.8779,-0.5916,-0.4775,-0.4488,-0.2779,-0.1275,0.0,0.0,0.0,0.0,0.0,0.0,0.0,0.0,0.0,0.0,0.0,0.0,0.0,0.0,0.0,0.0,0.0,0.0,0.5307,0.0,0.0,0.0,0.0,0.0,0.0,0.8267,0.9496,1.0677,0.0,0.0,0.0,0.0,0.0,0.0,0.0,0.0,0.0,0.0,0.0,0.0,0.0,0.0,0.0,0.0,0.0,0.0,0.0,0.0,0.0258,0.0674,0.0766,0.1032,0.1478,0.1935,0.2134,0.2245,0.2694,0.2874,0.2874,0.2874,0.2874,0.2874,0.2874,0.2874,0.3143,0.493,0.6713,0.7784,-1.9439,-1.7553,-1.5944,0.0,-1.6527,-1.698,0.0,0.0,0.0,0.0,-1.4006,-1.3227,-1.284,-1.2774,-1.2708,-1.2444,-1.2041,0.0,0.0,0.0,0.0,-1.0717,-1.0717,-1.0717,-1.0717,-1.0717,0.0,-1.0717,0.0,-1.0778,-1.082,-1.0109,-0.9892,-1.0092,-0.9389,-0.9182,-0.9264,-0.9291,-0.9302,-0.9296,-0.9209,-0.916,0.0,0.0,-0.5514,-0.4228,-0.1543,-0.0352,0.0,0.0,0.0,0.0,0.0,0.0,0.0,0.0,0.0,0.0,0.0,0.0,0.0,0.0,0.0,0.0518,0.0,0.0,0.0,0.0,0.0,0.0,0.0,0.0,0.0,0.0,0.0,0.0,0.0,0.0,0.0,0.0,0.0,0.0,0.0,0.0,0.0,0.0,0.0,0.0,0.0,0.0,0.0,0.0,0.0,0.0,0.0,0.0344,0.0602,0.0674,0.1447,0.1806,0.1914,0.2374,0.2667,0.2694,0.2874,0.2874,0.2874,0.2874,0.2874,0.2874,0.2874,0.2874,0.2964,0.3411,0.3947,0.4216,-1.784,0.0,0.0,-1.4263,0.0,0.0,-1.5192,0.0,0.0,-1.4006,-1.3293,0.0,-1.2774,-1.2642,-1.251,-1.2312,-1.1843,0.0,-1.1181,0.0,0.0,-1.0717,-1.0717,-1.0717,-1.0717,-1.0717,0.0,-1.0717,0.0,-1.0799,-1.0887,-1.0254,-1.0044,-1.0195,-0.9467,-0.9242,-0.9302,-0.9302,-0.9275,-0.9226,-0.916,0.0,0.0,-0.6599,-0.5221,-0.401,-0.103,0.0,0.0,0.0,0.0,0.0,0.0,0.0,0.0,0.0,0.0,0.0,0.0,0.0,0.0,0.0,0.0,0.045,0.2035,0.2442,0.2777,0.0,0.0,0.0,0.0,0.0,0.0,0.0,0.0,0.0,0.0,0.0,0.0,0.0,0.0,0.0,0.0,0.0,0.0,0.0,0.0,0.0,0.0,0.0,0.0,0.0,0.0,0.0086,0.0337,0.0602,0.086,0.1263,0.1779,0.2136,0.2332,0.2707,0.2826,0.2855,0.2868,0.2874,0.2874,0.2874,0.2874,0.2874,0.2874,0.2874,0.2874,0.2874,0.2874,0.2874,-1.5437,0.0,0.0,0.0,0.0,0.0,0.0,-1.2905,0.0,-1.2905,0.0,-1.2873,-1.2873,-1.2518,-1.2305,-1.2239,0.0,-1.1181,-1.1115,-1.085,-1.0717,-1.0717,-1.0717,-1.0717,-1.0717,-1.0738,0.0,0.0,0.0,-1.0921,-1.0941,-1.0436,-1.0201,-1.022,-0.9546,-0.9302,-0.9302,-0.9291,-0.9226,-0.9133,-0.9101,-0.8959,-0.8491,-0.5812,-0.4544,-0.3959,-0.1213,-0.0135,0.0,0.0,0.0,0.0,0.0,0.0,0.0,0.0,0.0,0.0,0.0,0.0,0.0,0.0,0.0,0.0381,0.1846,0.216,0.2169,0.219,0.337,0.3527,0.0,0.0,0.0,0.0,0.0,0.0,0.0,0.0,0.0,0.0,0.0,0.0,0.0,0.0,0.0,0.0,0.0,0.0,0.0,0.0,0.0,0.0,0.0086,0.0,0.0674,0.0,0.129,0.2018,0.2103,0.2285,0.2739,0.2765,0.2796,0.283,0.2856,0.287,0.2874,0.2874,0.2874,0.2874,0.2874,0.2874,0.2874,0.2874,0.2874,0.2874,-1.424,0.0,0.0,0.0,0.0,-1.3352,-1.3287,-1.3279,-1.3279,-1.3279,-1.3149,-1.3051,-1.3051,-1.259,-1.2173,-1.1916,-1.1446,0.0,0.0,0.0,0.0,-1.0717,-1.0717,-1.0717,-1.0717,-1.0846,-1.084,0.0,0.0,-1.1192,-1.1314,-1.0524,-1.0321,-1.0419,-0.9657,-0.9302,-0.9296,-0.9204,0.0,-0.9117,-0.8916,-0.8807,-0.8622,-0.6766,-0.5312,-0.4099,-0.2383,-0.1019,0.0,0.0,0.0,0.0,0.0,0.0,0.0,0.0,0.0,0.0,0.0,0.0,0.0,0.0,0.0,0.0077,0.0385,0.0466,0.047,0.0471,0.0706,0.1098,0.1881,0.0,0.0,0.0,0.0,0.0,0.0,0.0,0.0,0.0,0.0,0.0,0.0,0.0,0.0,0.0,0.0,0.0,0.0,0.0,0.0,0.0,0.0344,0.0,0.0,0.0,0.1892,0.2018,0.2356,0.2624,0.2737,0.2743,0.2776,0.2829,0.2834,0.2851,0.2874,0.2874,0.2874,0.2874,0.2874,0.2874,0.2874,0.2874,0.2874,0.2874,0.0,0.0,0.0,0.0,0.0,0.0,0.0,-1.3083,0.0,-1.3117,-1.3022,-1.283,-1.2686,-1.2278,-1.1895,-1.176,-1.1422,-1.1151,-1.0948,-1.0948,-1.0948,-1.0948,-1.0948,0.0,-1.0948,-1.1023,-1.1056,-1.1056,0.0,0.0,-1.1389,-1.0683,-1.0394,-1.0455,-0.9663,-0.9302,0.0,0.0,0.0,-0.9122,-0.9008,-0.8921,-0.8581,-0.6324,-0.5006,-0.4118,-0.1799,-0.0553,0.0,0.0,0.0,0.0,0.0,0.0,0.0,0.0,0.0,0.0,0.0,0.0,0.0,0.0,0.0,0.0,0.0,0.0,0.0,0.0,0.0,0.0236,0.102,0.2587,0.0,0.0,0.0,0.0,0.0,0.0,0.0,0.0,0.0,0.0,0.0,0.0,0.0,0.0,0.0,0.0,0.0,0.0,0.0,0.0,0.0,0.0,0.0,0.0,0.0,0.2356,0.2608,0.2701,0.2714,0.2731,0.2754,0.2784,0.2815,0.2837,0.2852,0.2867,0.2874,0.2874,0.2874,0.2874,0.2874,0.2874,0.2874,0.2874,0.0,-1.2968,0.0,0.0,-1.2968,0.0,-1.2824,-1.2824,-1.2806,-1.282,-1.2758,-1.2597,-1.2321,-1.1938,-1.171,-1.171,-1.1365,-1.1234,-1.1234,-1.1234,-1.1234,-1.1234,-1.1234,-1.1234,-1.1234,-1.1261,-1.1212,0.0,0.0,0.0,0.0,-1.0388,-0.9873,-0.9729,0.0,0.0,0.0,0.0,-0.8494,-0.813,-0.8106,-0.8048,-0.7692,-0.5315,-0.4267,-0.3708,-0.1265,-0.0282,0.0,0.0,0.0,0.0,0.0,0.0,0.0,0.0,0.0,0.0,0.0,0.0,0.0,0.0,0.0,0.0,0.0,0.0,0.0,0.0,0.0,0.0,0.0,0.1098,0.0,0.0,0.0,0.0,0.0,0.0,0.0,0.0,0.0,0.0,0.0,0.0,0.0,0.0,0.0,0.0,0.0,0.0,0.0,0.0,0.0,0.1021,0.1262,0.0,0.2297,0.0,0.2692,0.2692,0.2692,0.2717,0.2732,0.2742,0.2796,0.2826,0.284,0.2864,0.2874,0.2874,0.2874,0.2874,0.2874,0.2874,0.2874,0.2874,0.0,0.0,0.0,0.0,0.0,0.0,-1.2824,-1.2824,-1.2817,-1.2787,-1.2652,-1.2492,-1.2492,-1.2011,-1.171,-1.171,-1.1365,-1.1234,-1.1234,-1.1234,-1.1234,-1.1234,-1.1234,-1.1234,-1.1234,-1.1301,-1.1369,0.0,0.0,0.0,0.0,0.0,0.0,0.0,0.0,0.0,0.0,-0.7107,-0.6207,-0.4917,-0.4785,-0.4759,-0.4684,-0.4404,-0.3499,-0.2315,-0.1987,-0.107,0.0,0.0,0.0,0.0,0.0,0.0,0.0,0.0,0.0,0.0,0.0,0.0,0.0,0.0,0.0,0.0,0.0,0.0,0.0,0.0,0.0,0.0,0.0,0.0157,0.0157,0.0,0.0,0.0,0.0,0.0,0.0,0.0,0.0,0.0,0.0,0.0,0.0,0.0,0.0,0.0,0.0,0.0,0.0,0.0,0.0,0.1361,0.1262,0.2212,0.0,0.2692,0.2692,0.2692,0.2692,0.2695,0.2712,0.274,0.2773,0.2819,0.287,0.2872,0.2874,0.2874,0.2874,0.2874,0.2874,0.2874,0.2874,0.2874,0.0,0.0,0.0,0.0,0.0,0.0,0.0,-1.2043,-1.2043,-1.2043,-1.2209,-1.2244,-1.1959,-1.1754,-1.1649,-1.1649,-1.1507,-1.1436,-1.1436,-1.1436,-1.1436,-1.1436,-1.1436,-1.1436,-1.1436,-1.1497,-1.1531,0.0,0.0,0.0,0.0,0.0,0.0,0.0,0.0,-0.5601,-0.5597,-0.5568,-0.5198,-0.4619,-0.4594,-0.4512,-0.444,-0.3439,-0.2723,-0.2081,-0.1155,-0.0506,0.0,0.0,0.0,0.0,0.0,0.0,0.0,0.0,0.0,0.0,0.0,0.0,0.0,0.0,0.0,0.0,0.0,0.0,0.0,0.0,0.0,0.0,0.0,0.0,0.0,0.0,0.0,0.0,0.0,0.0,0.0,0.0,0.0,0.0,0.0,0.0,0.0,0.0,0.0,0.0,0.0,0.0,0.0,0.0417,0.0,0.1774,0.1682,0.2367,0.2705,0.2692,0.2692,0.2692,0.2692,0.2692,0.2709,0.274,0.277,0.2807,0.2848,0.2867,0.2874,0.2874,0.2874,0.2874,0.2874,0.2874,0.2874,0.2874,-1.1979,0.0,-1.1691,0.0,-1.1763,-1.1619,-1.1619,-1.1619,-1.1619,-1.1619,-1.1835,-1.1907,-1.1619,-1.1619,-1.1619,-1.1619,-1.1619,-1.1619,-1.1619,-1.1619,-1.1619,-1.1619,-1.1619,0.0,-1.1619,-1.1619,-1.1619,-1.1619,-1.1619,0.0,0.0,0.0,0.0,0.0,-0.4511,-0.4003,-0.4003,-0.4003,-0.3712,-0.3348,-0.3348,-0.3348,-0.3203,-0.2039,-0.1603,-0.1457,-0.0365,0.0,0.0,0.0,0.0,0.0,0.0,0.0,0.0,0.0,0.0,0.0,0.0,0.0,0.0,0.0,0.0,0.0,0.0,0.0,0.0,0.0,0.0,0.0,0.0,0.0,0.0,0.0,0.0,0.0,0.0,0.0,0.0,0.0,0.0,0.0,0.0,0.0,0.0,0.0,0.0,0.0,0.0,0.0,0.0,0.0,0.0,0.0,0.0,0.244,0.2692,0.2692,0.2692,0.2692,0.2692,0.2692,0.2709,0.274,0.277,0.28,0.2831,0.2861,0.2874,0.2874,0.2874,0.2874,0.2874,0.2874,0.2874,0.2874,-1.1619,-1.1619,-1.1619,-1.1619,-1.1619,-1.1619,-1.1619,-1.1619,-1.1619,-1.1619,-1.1619,-1.1619,-1.1619,-1.1619,-1.1619,-1.1619,-1.1619,-1.1619,-1.1619,-1.1619,-1.1619,0.0,0.0,-1.1619,-1.1619,-1.1619,-1.1619,-1.1619,0.0,0.0,-0.7898,0.0,-0.2228,-0.233,-0.233,-0.233,-0.233,-0.233,-0.1457,-0.0073,-0.0073,-0.0073,-0.0073,0.0,0.0,0.0,0.0,0.0,0.0,0.0,0.0,0.0,0.0,0.0,0.0,0.0,0.0,0.0,0.0,0.0,0.0,0.0,0.0,0.0,0.0,0.0,0.0,0.0,0.0,0.0,0.0,0.0,0.0,0.0,0.0,0.0,0.0,0.0,0.0,0.0,0.0,0.0,0.0,0.0,0.0,0.0,0.0,0.0,0.0,0.0,0.0,0.0662,0.1506,0.0,0.2018,0.244,0.2692,0.2692,0.2692,0.2692,0.2692,0.2692,0.2709,0.274,0.277,0.28,0.2831,0.2861,0.2874,0.2874,0.2874,0.2874,0.2874,0.2874,0.2874,0.2874,-1.1619,-1.1619,-1.1619,-1.1619,-1.1619,-1.1619,-1.1619,-1.1619,-1.1619,-1.1619,-1.1619,-1.1619,-1.1619,-1.1619,-1.1619,0.0,-1.1619,-1.1619,0.0,-1.1619,-1.1619,-1.1619,-1.1619,-1.1619,-1.1619,-1.1619,-1.1619,-1.1619,0.0,0.0,0.0,-0.2387,-0.1234,-0.2256,-0.1166,-0.0729,-0.0729,-0.0729,-0.0438,0.0,0.0,0.0,0.0,0.0,0.0,0.0,0.0,0.0,0.0,0.0,0.0,0.0,0.0,0.0,0.0,0.0,0.0,0.0,0.0,0.0,0.0,0.0,0.0,0.0,0.0,0.0,0.0,0.0,0.0,0.0,0.0,0.0,0.0,0.0,0.0,0.0,0.0,0.0,0.0,0.0,0.0,0.0,0.0,0.0,0.0,0.0,0.0,0.0,0.0,0.0,0.0,0.0,0.2167,0.0,0.244,0.2608,0.2692,0.2692,0.2692,0.2692,0.2692,0.2692,0.2698,0.2709,0.2739,0.277,0.28,0.283,0.2855,0.2874,0.2874,0.2874,0.2874,0.2874,0.2874,0.2874,-1.1619,-1.1619,-1.1619,-1.1619,-1.1619,-1.1619,-1.1619,-1.1619,-1.1619,-1.1619,-1.1619,-1.1619,-1.1619,-1.1619,0.0,-1.1619,-1.1619,-1.1619,-1.1619,-1.1619,-1.1619,-1.1619,-1.1619,-1.1619,-1.1619,0.0,0.0,-1.0743,-0.8054,-0.5953,-0.4288,-0.1384,-0.0511,-0.1384,-0.0438,0.0,0.0,0.0,0.0,0.0,0.0,0.0,0.0,0.0,0.0,0.0,0.0,0.0,0.0,0.0,0.0,0.0,0.0,0.0,0.0,0.0,0.0,0.0,0.0,0.0,0.0,0.0,0.0,0.0,0.0,0.0,0.0,0.0,0.0,0.0,0.0,0.0,0.0,0.0,0.0,0.0,0.0,0.0,0.0,0.0,0.0,0.0,0.0,0.0,0.0,0.0,0.0,0.0,0.0,0.0,0.0,0.1965,0.2417,0.0,0.2692,0.2692,0.2692,0.2692,0.2692,0.2692,0.2692,0.2692,0.2692,0.2694,0.2725,0.2755,0.2785,0.2816,0.2846,0.2874,0.2874,0.2874,0.2874,0.2874,0.2874,0.2874,-1.1633,-1.1633,0.0,0.0,-1.1619,0.0,-1.1619,-1.1619,-1.1619,-1.1619,-1.1619,-1.1619,-1.1619,-1.1619,-1.1619,-1.1619,0.0,0.0,0.0,-1.1619,-1.1619,-1.1619,-1.1619,-1.1548,-1.1476,-1.0017,-0.9147,-0.8925,-0.5229,-0.3199,-0.2691,-0.0874,0.0,0.0,0.0,0.0,0.0,0.0,0.0,0.0,0.0,0.0,0.0,0.0,0.0,0.0,0.0,0.0,0.0,0.0,0.0,0.0,0.0,0.0,0.0,0.0,0.0,0.0,0.0,0.0,0.0,0.0,0.0,0.0,0.0,0.0,0.0,0.0,0.0,0.0,0.0,0.0,0.0,0.0,0.0,0.0,0.0,0.0,0.0,0.0,0.0,0.0,0.0,0.0,0.0,0.0,0.0,0.0,0.0,0.0,0.1555,0.2067,0.2509,0.2692,0.2692,0.2692,0.2692,0.2692,0.2692,0.2692,0.2692,0.2692,0.2692,0.2694,0.2722,0.2754,0.2785,0.2814,0.2845,0.2874,0.2874,0.2874,0.2874,0.2874,0.2874,0.2874,0.0,0.0,-1.1748,-1.164,-1.1619,-1.1619,-1.1619,-1.1619,-1.1619,-1.1619,-1.1619,-1.1619,-1.1619,-1.1619,-1.1619,-1.1619,-1.1619,-1.1619,-1.1619,-1.1619,-1.1619,-1.1619,-1.1619,-1.1038,-0.9873,-0.9507,-0.7837,-0.4866,-0.3633,-0.2256,-0.0656,-0.0219,0.0,0.0,0.0,0.0,0.0,0.0,0.0,0.0,0.0,0.0,0.0,0.0,0.0,0.0,0.0,0.0,0.0,0.0,0.0,0.0,0.0,0.0,0.0,0.0,0.0,0.0,0.0,0.0,0.0,0.0,0.0,0.0,0.0,0.0,0.0,0.0,0.0,0.0,0.0,0.0,0.0,0.0,0.0,0.0,0.0,0.0,0.0,0.0,0.0,0.0,0.0,0.0,0.0,0.0,0.0,0.0,0.0,0.1318,0.1651,0.2398,0.2592,0.2692,0.2692,0.2692,0.2692,0.2692,0.2692,0.2692,0.2692,0.2692,0.2692,0.2692,0.2701,0.2733,0.2784,0.2791,0.2826,0.2874,0.2874,0.2874,0.2874,0.2874,0.2874,0.2874,-1.1938,-1.1938,-1.1911,-1.1837,-1.1823,-1.1823,-1.1823,-1.1762,-1.1714,-1.1714,-1.166,-1.1619,-1.1619,-1.1619,-1.1619,-1.1619,-1.1619,-1.1619,-1.1619,-1.0966,-1.0527,-1.0527,-0.9873,-0.9074,-0.8275,-0.7404,-0.5377,-0.2184,-0.1966,-0.1239,0.0,0.0,0.0,0.0,0.0,0.0,0.0,0.0,0.0,0.0,0.0,0.0,0.0,0.0,0.0,0.0,0.0,0.0,0.0,0.0,0.0,0.0,0.0,0.0,0.0,0.0,0.0,0.0,0.0,0.0,0.0,0.0,0.0,0.0,0.0,0.0,0.0,0.0,0.0,0.0,0.0,0.0,0.0,0.0,0.0,0.0,0.0,0.0,0.0,0.0,0.0,0.0,0.0,0.0,0.0,0.0,0.0,0.0,0.1242,0.1331,0.1751,0.2585,0.2684,0.2692,0.2692,0.2692,0.2692,0.2692,0.2692,0.2692,0.2692,0.2692,0.2692,0.2692,0.2692,0.2727,0.2784,0.2784,0.2819,0.2874,0.2874,0.2874,0.2874,0.2874,0.2874,0.2874,-1.2094,-1.2094,-1.2088,-1.2067,-1.2135,-1.2135,-1.2135,-1.1952,-1.1864,-1.1864,-1.1762,-1.1681,-1.1653,-1.1653,-1.1496,-1.126,-1.1253,-1.1253,-1.1253,-1.0017,-0.9219,-0.8925,-0.7693,-0.6898,-0.6536,-0.4579,-0.2622,-0.0584,-0.0511,-0.0365,0.0,0.0,0.0,0.0,0.0,0.0,0.0,0.0,0.0,0.0,0.0,0.0,0.0,0.0,0.0,0.0,0.0,0.0,0.0,0.0,0.0,0.0,0.0,0.0,0.0,0.0,0.0,0.0,0.0,0.0,0.0,0.0,0.0,0.0,0.0,0.0,0.0,0.0,0.0,0.0,0.0,0.0,0.0,0.0,0.0,0.0,0.0,0.0,0.0,0.0,0.0,0.0,0.0,0.0,0.0,0.0,0.0082,0.0415,0.0,0.134,0.1766,0.2692,0.2692,0.2692,0.2692,0.2692,0.2692,0.2692,0.2692,0.2692,0.2692,0.2692,0.2692,0.2692,0.2692,0.2724,0.2777,0.2781,0.2816,0.2868,0.2872,0.2874,0.2874,0.2874,0.2874,0.2874,-1.2257,-1.2257,-1.2216,-1.2088,-1.2135,-1.2135,-1.2135,-1.204,-1.2026,-1.2026,-1.2006,-1.1945,-1.1809,-1.1796,-1.1233,-0.9807,-0.9651,-0.9651,-0.9651,-0.9435,-0.8709,-0.7404,-0.7115,-0.6246,-0.4581,-0.2331,-0.0948,-0.0584,-0.0292,-0.0073,0.0,0.0,0.0,0.0,0.0,0.0,0.0,0.0,0.0,0.0,0.0,0.0,0.0,0.0,0.0,0.0,0.0,0.0,0.0,0.0,0.0,0.0,0.0,0.0,0.0,0.0,0.0,0.0,0.0,0.0,0.0,0.0,0.0,0.0,0.0,0.0,0.0,0.0,0.0,0.0,0.0,0.0,0.0,0.0,0.0,0.0,0.0,0.0,0.0,0.0,0.0,0.0,0.0,0.0,0.0,0.0,0.0334,0.084,0.1258,0.168,0.2104,0.2692,0.2692,0.2692,0.2692,0.2692,0.2692,0.2692,0.2692,0.2692,0.2692,0.2692,0.2692,0.2692,0.2692,0.2713,0.2747,0.2773,0.2804,0.2838,0.2864,0.2874,0.2874,0.2874,0.2874,0.2874,-1.2406,-1.2406,-1.2379,-1.2311,-1.2298,-1.2298,-1.2298,-1.2237,-1.2182,-1.2182,-1.2115,-1.2033,-1.1965,-1.1138,-1.0263,-0.9473,-0.8582,-0.7679,-0.6906,-0.6829,-0.654,-0.5815,-0.4727,-0.3564,-0.2258,-0.1167,-0.0511,-0.0292,-0.0073,0.0,0.0,0.0,0.0,0.0,0.0,0.0,0.0,0.0,0.0,0.0,0.0,0.0,0.0,0.0,0.0,0.0,0.0,0.0,0.0,0.0,0.0,0.0,0.0,0.0,0.0,0.0,0.0,0.0,0.0,0.0,0.0,0.0,0.0,0.0,0.0,0.0,0.0,0.0,0.0,0.0,0.0,0.0,0.0,0.0,0.0,0.0,0.0,0.0,0.0,0.0,0.0,0.0,0.0,0.0,0.0,0.0,0.042,0.0842,0.1262,0.1766,0.2188,0.2692,0.2692,0.2692,0.2692,0.2692,0.2692,0.2692,0.2692,0.2692,0.2692,0.2692,0.2692,0.2692,0.2692,0.271,0.274,0.277,0.2801,0.2831,0.2861,0.2874,0.2874,0.2874,0.2874,0.2874,-1.2501,-1.2501,-1.2501,-1.2501,-1.2501,-1.2501,-1.2501,-1.2099,-1.188,-1.2262,-1.1934,-1.1616,-1.1583,-1.0451,-0.927,-0.8484,-0.7137,-0.5699,-0.4097,-0.3948,-0.3944,-0.4005,-0.2404,-0.124,-0.0584,-0.0511,-0.0292,0.0,0.0,0.0,0.0,0.0,0.0,0.0,0.0,0.0,0.0,0.0,0.0,0.0,0.0,0.0,0.0,0.0,0.0,0.0,0.0,0.0,0.0,0.0,0.0,0.0,0.0,0.0,0.0,0.0,0.0,0.0,0.0,0.0,0.0,0.0,0.0,0.0,0.0,0.0,0.0,0.0,0.0,0.0,0.0,0.0,0.0,0.0,0.0,0.0,0.0,0.0,0.0,0.0,0.0,0.0,0.0,0.0,0.0084,0.0168,0.0589,0.101,0.143,0.1934,0.2356,0.2692,0.2692,0.2692,0.2692,0.2692,0.2692,0.2692,0.2692,0.2692,0.2692,0.2692,0.2692,0.2692,0.2692,0.2706,0.2731,0.2767,0.2797,0.2822,0.2859,0.2874,0.2874,0.2874,0.2874,0.2874,-1.2501,-1.2501,-1.2501,-1.2501,-1.2501,-1.2501,-1.2501,-1.1166,-1.0695,-1.2256,-1.1154,-1.0092,-0.9976,-0.9889,-0.8469,-0.5362,-0.4602,-0.3679,-0.2079,-0.1632,-0.1623,-0.1968,-0.1167,-0.0657,-0.0584,-0.0219,0.0,0.0,0.0,0.0,0.0,0.0,0.0,0.0,0.0,0.0,0.0,0.0,0.0,0.0,0.0,0.0,0.0,0.0,0.0,0.0,0.0,0.0,0.0,0.0,0.0,0.0,0.0,0.0,0.0,0.0,0.0,0.0,0.0,0.0,0.0,0.0,0.0,0.0,0.0,0.0,0.0,0.0,0.0,0.0,0.0,0.0,0.0,0.0,0.0,0.0,0.0,0.0,0.0,0.0,0.0,0.0,0.0,0.0,0.0168,0.0589,0.101,0.143,0.1934,0.2356,0.2692,0.2692,0.2692,0.2692,0.2692,0.2692,0.2692,0.2692,0.2692,0.2692,0.2692,0.2692,0.2692,0.2692,0.2692,0.2694,0.2701,0.2759,0.2785,0.2792,0.2851,0.2874,0.2874,0.2874,0.2874,0.2874,-1.2501,-1.2501,-1.2501,-1.2501,-1.1643,-1.094,-1.094,-0.9537,-0.8682,-0.9304,-0.8837,-0.8434,-0.8393,-0.7224,-0.5877,-0.4588,-0.3135,-0.2049,-0.1488,-0.1041,-0.0887,-0.1022,-0.0729,-0.0511,-0.0219,-0.0073,0.0,0.0,0.0,0.0,0.0,0.0,0.0,0.0,0.0,0.0,0.0,0.0,0.0,0.0,0.0,0.0,0.0,0.0,0.0,0.0,0.0,0.0,0.0,0.0,0.0,0.0,0.0,0.0,0.0,0.0,0.0,0.0,0.0,0.0,0.0,0.0,0.0,0.0,0.0,0.0,0.0,0.0,0.0,0.0,0.0,0.0,0.0,0.0,0.0,0.0,0.0,0.0,0.0,0.0,0.0,0.0,0.0,0.0,0.0084,0.0253,0.0926,0.1346,0.1514,0.2272,0.2692,0.2692,0.2692,0.2692,0.2692,0.2692,0.2692,0.2692,0.2692,0.2692,0.2692,0.2692,0.2692,0.2692,0.2692,0.2692,0.2698,0.2758,0.2784,0.2789,0.2851,0.2874,0.2874,0.2874,0.2874,0.2874,-1.2501,-1.2501,-1.2347,-1.1798,-1.0785,-0.9848,-0.9304,-0.7825,-0.6889,-0.7439,-0.6967,-0.6499,-0.6499,-0.5167,-0.3981,-0.3407,-0.1937,-0.0999,-0.0979,-0.0672,-0.0444,-0.0438,-0.0438,-0.0292,0.0,0.0,0.0,0.0,0.0,0.0,0.0,0.0,0.0,0.0,0.0,0.0,0.0,0.0,0.0,0.0,0.0,0.0,0.0,0.0,0.0,0.0,0.0,0.0,0.0,0.0,0.0,0.0,0.0,0.0,0.0,0.0,0.0,0.0,0.0,0.0,0.0,0.0,0.0,0.0,0.0,0.0,0.0,0.0,0.0,0.0,0.0,0.0,0.0,0.0,0.0,0.0,0.0,0.0,0.0,0.0,0.0,0.0,0.0,0.0,0.0084,0.0168,0.0926,0.143,0.1682,0.2356,0.2692,0.2692,0.2692,0.2692,0.2692,0.2692,0.2692,0.2692,0.2692,0.2692,0.2692,0.2692,0.2692,0.2692,0.2692,0.2692,0.2698,0.2758,0.2784,0.2789,0.2851,0.2874,0.2874,0.2874,0.2874,0.2874,-1.2501,-1.2501,-1.1953,-1.0319,-1.0008,-0.9382,-0.7747,-0.603,-0.5561,-0.7201,-0.5636,-0.4385,-0.4385,-0.3992,-0.3133,-0.1413,-0.0864,-0.0625,-0.0618,-0.0226,0.0,0.0,0.0,0.0,0.0,0.0,0.0,0.0,0.0,0.0,0.0,0.0,0.0,0.0,0.0,0.0,0.0,0.0,0.0,0.0,0.0,0.0,0.0,0.0,0.0,0.0,0.0,0.0,0.0,0.0,0.0,0.0,0.0,0.0,0.0,0.0,0.0,0.0,0.0,0.0,0.0,0.0,0.0,0.0,0.0,0.0,0.0,0.0,0.0,0.0,0.0,0.0,0.0,0.0,0.0,0.0,0.0,0.0,0.0,0.0,0.0,0.0,0.0,0.0,0.0168,0.0674,0.1094,0.1682,0.2608,0.2692,0.2692,0.2692,0.2692,0.2692,0.2692,0.2692,0.2692,0.2692,0.2692,0.2692,0.2692,0.2692,0.2692,0.2692,0.2692,0.2692,0.2697,0.2758,0.2782,0.2789,0.2851,0.2874,0.2874,0.2874,0.2874,0.2874,-1.2501,-1.2501,-1.1953,-1.0319,-0.8993,-0.7669,-0.603,-0.4077,-0.2982,-0.3531,-0.2746,-0.2197,-0.2197,-0.1804,-0.1334,-0.0864,-0.0393,-0.0156,-0.0154,-0.0075,0.0,0.0,0.0,0.0,0.0,0.0,0.0,0.0,0.0,0.0,0.0,0.0,0.0,0.0,0.0,0.0,0.0,0.0,0.0,0.0,0.0,0.0,0.0,0.0,0.0,0.0,0.0,0.0,0.0,0.0,0.0,0.0,0.0,0.0,0.0,0.0,0.0,0.0,0.0,0.0,0.0,0.0,0.0,0.0,0.0,0.0,0.0,0.0,0.0,0.0,0.0,0.0,0.0,0.0,0.0,0.0,0.0,0.0,0.0,0.0,0.0,0.0,0.0,0.0,0.0168,0.0674,0.1346,0.2018,0.2692,0.2692,0.2692,0.2692,0.2692,0.2692,0.2692,0.2692,0.2692,0.2692,0.2692,0.2692,0.2692,0.2692,0.2692,0.2692,0.2692,0.2692,0.2695,0.2735,0.2763,0.2787,0.2827,0.2855,0.2874,0.2874,0.2874,0.2874,-1.2501,-1.2501,-1.1721,-0.9382,-0.8136,-0.6655,-0.4155,-0.2668,-0.1807,-0.165,-0.1256,-0.1021,-0.1021,-0.0628,-0.0393,-0.0393,-0.0157,0.0,0.0,0.0,0.0,0.0,0.0,0.0,0.0,0.0,0.0,0.0,0.0,0.0,0.0,0.0,0.0,0.0,0.0,0.0,0.0,0.0,0.0,0.0,0.0,0.0,0.0,0.0,0.0,0.0,0.0,0.0,0.0,0.0,0.0,0.0,0.0,0.0,0.0,0.0,0.0,0.0,0.0,0.0,0.0,0.0,0.0,0.0,0.0,0.0,0.0,0.0,0.0,0.0,0.0,0.0,0.0,0.0,0.0,0.0,0.0,0.0,0.0,0.0,0.0,0.0,0.0,0.0,0.0253,0.0926,0.1599,0.2188,0.2692,0.2692,0.2692,0.2692,0.2692,0.2692,0.2692,0.2692,0.2692,0.2692,0.2692,0.2692,0.2692,0.2692,0.2692,0.2692,0.2692,0.2692,0.2695,0.2725,0.2755,0.2787,0.2816,0.2846,0.2874,0.2874,0.2874,0.2874,-1.2501,-1.2501,-1.1411,-0.8059,-0.7435,-0.6186,-0.2434,-0.1807,-0.165,-0.1256,-0.0864,-0.055,-0.055,-0.0236,0.0,0.0,0.0,0.0,0.0,0.0,0.0,0.0,0.0,0.0,0.0,0.0,0.0,0.0,0.0,0.0,0.0,0.0,0.0,0.0,0.0,0.0,0.0,0.0,0.0,0.0,0.0,0.0,0.0,0.0,0.0,0.0,0.0,0.0,0.0,0.0,0.0,0.0,0.0,0.0,0.0,0.0,0.0,0.0,0.0,0.0,0.0,0.0,0.0,0.0,0.0,0.0,0.0,0.0,0.0,0.0,0.0,0.0,0.0,0.0,0.0,0.0,0.0,0.0,0.0,0.0,0.0,0.0,0.0,0.0084,0.0421,0.1262,0.1766,0.2272,0.2692,0.2692,0.2692,0.2692,0.2692,0.2692,0.2692,0.2692,0.2692,0.2692,0.2692,0.2692,0.2692,0.2692,0.2692,0.2692,0.2692,0.2692,0.2695,0.2722,0.2754,0.2787,0.2814,0.2845,0.2874,0.2874,0.2874,0.2874,-1.2501,-1.2501,-1.1327,-0.7665,-0.7041,-0.5792,-0.2042,-0.1099,-0.0864,-0.0785,-0.0393,-0.0157,-0.0157,-0.0079,0.0,0.0,0.0,0.0,0.0,0.0,0.0,0.0,0.0,0.0,0.0,0.0,0.0,0.0,0.0,0.0,0.0,0.0,0.0,0.0,0.0,0.0,0.0,0.0,0.0,0.0,0.0,0.0,0.0,0.0,0.0,0.0,0.0,0.0,0.0,0.0,0.0,0.0,0.0,0.0,0.0,0.0,0.0,0.0,0.0,0.0,0.0,0.0,0.0,0.0,0.0,0.0,0.0,0.0,0.0,0.0,0.0,0.0,0.0,0.0,0.0,0.0,0.0,0.0,0.0,0.0,0.0,0.0,0.0,0.0589,0.1093,0.1262,0.2103,0.2608,0.2692,0.2692,0.2692,0.2692,0.2692,0.2692,0.2692,0.2692,0.2692,0.2692,0.2692,0.2692,0.2692,0.2692,0.2692,0.2692,0.2692,0.2692,0.2692,0.2699,0.2735,0.2784,0.2791,0.2826,0.2874,0.2874,0.2874,0.2874,-1.2501,-1.2347,-1.1095,-0.7509,-0.6729,-0.5324,-0.157,-0.0785,-0.055,-0.0314,-0.0157,0.0,0.0,0.0,0.0,0.0,0.0,0.0,0.0,0.0,0.0,0.0,0.0,0.0,0.0,0.0,0.0,0.0,0.0,0.0,0.0,0.0,0.0,0.0,0.0,0.0,0.0,0.0,0.0,0.0,0.0,0.0,0.0,0.0,0.0,0.0,0.0,0.0,0.0,0.0,0.0,0.0,0.0,0.0,0.0,0.0,0.0,0.0,0.0,0.0,0.0,0.0,0.0,0.0,0.0,0.0,0.0,0.0,0.0,0.0,0.0,0.0,0.0,0.0,0.0,0.0,0.0,0.0,0.0,0.0,0.0,0.0,0.0,0.0589,0.1094,0.1262,0.1934,0.244,0.2692,0.2692,0.2692,0.2692,0.2692,0.2692,0.2692,0.2692,0.2692,0.2692,0.2692,0.2692,0.2692,0.2692,0.2692,0.2692,0.2692,0.2692,0.2692,0.2692,0.2728,0.2784,0.2784,0.2821,0.2874,0.2874,0.2874,0.2874,-1.2347,-1.2037,-1.0707,-0.7275,-0.6417,-0.4936,-0.1099,-0.0471,-0.0393,-0.0079,0.0,0.0,0.0,0.0,0.0,0.0,0.0,0.0,0.0,0.0,0.0,0.0,0.0,0.0,0.0,0.0,0.0,0.0,0.0,0.0,0.0,0.0,0.0,0.0,0.0,0.0,0.0,0.0,0.0,0.0,0.0,0.0,0.0,0.0,0.0,0.0,0.0,0.0,0.0,0.0,0.0,0.0,0.0,0.0,0.0,0.0,0.0,0.0,0.0,0.0,0.0,0.0,0.0,0.0,0.0,0.0,0.0,0.0,0.0,0.0,0.0,0.0,0.0,0.0,0.0,0.0,0.0,0.0,0.0,0.0,0.0,0.0,0.0,0.0421,0.0842,0.1262,0.1766,0.2188,0.2692,0.2692,0.2692,0.2692,0.2692,0.2692,0.2692,0.2692,0.2692,0.2692,0.2692,0.2692,0.2692,0.2692,0.2692,0.2692,0.2692,0.2692,0.2692,0.2692,0.2728,0.2784,0.2784,0.2821,0.2874,0.2874,0.2874,0.2874,-1.1495,-1.1417,-1.0164,-0.6417,-0.5714,-0.4464,-0.0628,-0.0079,-0.0079,0.0,0.0,0.0,0.0,0.0,0.0,0.0,0.0,0.0,0.0,0.0,0.0,0.0,0.0,0.0,0.0,0.0,0.0,0.0,0.0,0.0,0.0,0.0,0.0,0.0,0.0,0.0,0.0,0.0,0.0,0.0,0.0,0.0,0.0,0.0,0.0,0.0,0.0,0.0,0.0,0.0,0.0,0.0,0.0,0.0,0.0,0.0,0.0,0.0,0.0,0.0,0.0,0.0,0.0,0.0,0.0,0.0,0.0,0.0,0.0,0.0,0.0,0.0,0.0,0.0,0.0,0.0,0.0,0.0,0.0,0.0,0.0,0.0,0.0,0.0421,0.0842,0.1262,0.1766,0.2188,0.2692,0.2692,0.2692,0.2692,0.2692,0.2692,0.2692,0.2692,0.2692,0.2692,0.2692,0.2692,0.2692,0.2692,0.2692,0.2692,0.2692,0.2692,0.2692,0.2692,0.2728,0.2784,0.2784,0.2821,0.2874,0.2874,0.2874,0.2874,-1.134,-1.1107,-0.9775,-0.6261,-0.5402,-0.4073,-0.0549,0.0,0.0,0.0,0.0,0.0,0.0,0.0,0.0,0.0,0.0,0.0,0.0,0.0,0.0,0.0,0.0,0.0,0.0,0.0,0.0,0.0,0.0,0.0,0.0,0.0,0.0,0.0,0.0,0.0,0.0,0.0,0.0,0.0,0.0,0.0,0.0,0.0,0.0,0.0,0.0,0.0,0.0,0.0,0.0,0.0,0.0,0.0,0.0,0.0,0.0,0.0,0.0,0.0,0.0,0.0,0.0,0.0,0.0,0.0,0.0,0.0,0.0,0.0,0.0,0.0,0.0,0.0,0.0,0.0,0.0,0.0,0.0,0.0,0.0,0.0,0.0,0.0168,0.0589,0.1262,0.1514,0.1934,0.2692,0.2692,0.2692,0.2692,0.2692,0.2692,0.2692,0.2692,0.2692,0.2692,0.2692,0.2692,0.2692,0.2692,0.2692,0.2692,0.2692,0.2692,0.2692,0.2692,0.2728,0.2784,0.2784,0.2821,0.2874,0.2874,0.2874,0.2874]},{"header":{"parameterUnit":"m.s-1","parameterCategory":1,"la1":30.6,"la2":28.766,"lo1":-90.7593,"lo2":-88.6598,"dy":0.0162,"dx":0.0183,"nx":116,"ny":114,"refTime":"2023-10-01T06:00:00:Z","depth":0,"parameterNumber":3,"parameterNumberName":"V-component_of_WINDS"},"data":[0.0,0.0,0.0,0.0,0.0,0.0,0.0,0.0,0.0,0.0,0.0,0.0,0.0,0.0,0.0,0.0,0.0,0.0,0.0,0.0,0.0,0.0,0.0,0.0,0.0,0.0,0.0,0.0,0.0,0.0,0.0,0.0,0.0,0.0,0.0,0.0,0.0,0.0,0.0,0.0,0.0,0.0,0.0,0.0,0.0,0.0,0.0,0.0,0.0,0.0,0.0,0.0,0.0,0.0,0.0,0.0,0.0,0.0,0.0,0.0,0.0,0.0,0.0,0.0,0.0,0.0,0.0,0.0,0.0,0.0,0.0,0.0,0.0,0.0,0.0,0.0,0.0,0.0,0.0,0.0,0.0,0.0,0.0,0.0,0.0,0.0,0.0,0.0,0.0,0.0,0.0,0.0,0.0,0.0,0.0,0.0,0.0,0.0,0.0,0.0,0.0,0.0,0.0,0.0,0.0,0.0,0.0,0.0,0.0,0.0,0.0,0.0,0.0,0.0,0.0,0.0,0.0,0.0,0.0,0.0,0.0,0.0,0.0,0.0,0.0,0.0,0.0,0.0,0.0,0.0,0.0,0.0,0.0,0.0,0.0,0.0,0.0,0.0,0.0,0.0,0.0,0.0,0.0,0.0,0.0,0.0,0.0,0.0,0.0,0.0,0.0,0.0,0.0,0.0,0.0,0.0,0.0,0.0,0.0,0.0,0.0,0.0,0.0,0.0,0.0,0.0,0.0,0.0,0.0,0.0,0.0,0.0,0.0,0.0,0.0,0.0,0.0,0.0,0.0,0.0,0.0,0.0,0.0,0.0,0.0,0.0,0.0,0.0,0.0,0.0,0.0,0.0,0.0,0.0,0.0,0.0,0.0,0.0,0.0,0.0,0.0,0.0,0.0,0.0,0.0,0.0,0.0,0.0,0.0,0.0,0.0,0.0,0.0,0.0,0.0,0.0,0.0,0.0,0.0,0.0,0.0,0.0,0.0,0.0,0.0,0.0,0.0,0.0,0.0,0.0,0.0,0.0,0.0,0.0,0.0,0.0,0.0,0.0,0.0,0.0,0.0,0.0,0.0,0.0,0.0,0.0,0.0,0.0,0.0,0.0,0.0,0.0,0.0,0.0,0.0,0.0,0.0,0.0,0.0,0.0,0.0,0.0,0.0,0.0,0.0,0.0,0.0,0.0,0.0,0.0,0.0,0.0,0.0,0.0,0.0,0.0,0.0,0.0,0.0,0.0,0.0,0.0,0.0,0.0,0.0,0.0,0.0,0.0,0.0,0.0,0.0,0.0,0.0,0.0,0.0,0.0,0.0,0.0,0.0,0.0,0.0,0.0,0.0,0.0,0.0,0.0,0.0,0.0,0.0,0.0,0.0,0.0,0.0,0.0,0.0,0.0,0.0,0.0,0.0,0.0,0.0,0.0,0.0,0.0,0.0,0.0,0.0,0.0,0.0,0.0,0.0,0.0,0.0,0.0,0.0,0.0,0.0,0.0,0.0,0.0,0.0,0.0,0.0,0.0,0.0,0.0,0.0,0.0,0.0,0.0,0.0,0.0,0.0,0.0,0.0,0.0,0.0,0.0,0.0,0.0,0.0,0.0,0.0,0.0,0.0,0.0,0.0,0.0,0.0,0.0,0.0,0.0,0.0,0.0,0.0,0.0,0.0,0.0,0.0,0.0,0.0,0.0,0.0,0.0,0.0,0.0,0.0,0.0,0.0,0.0,0.0,0.0,0.0,0.0,0.0,0.0,0.0,0.0,0.0,0.0,0.0,0.0,0.0,0.0,0.0,0.0,0.0,0.0,0.0,0.0,0.0,0.0,0.0,0.0,0.0,0.0,0.0,0.0,0.0,0.0,0.0,0.0,0.0,0.0,0.0,0.0,0.0,0.0,0.0,0.0,0.0,0.0,0.0,0.0,0.0,0.0,0.0,0.0,0.0,0.0,0.0,0.0,0.0,0.0,0.0,0.0,0.0,0.0,0.0,0.0,0.0,0.0,0.0,0.0,0.0,0.0,0.0,0.0,0.0,0.0,0.0,0.0,0.0,0.0,0.0,0.0,0.0,0.0,0.0,0.0,0.0,0.0,0.0,0.0,0.0,0.0,0.0,0.0,0.0,0.0,0.0,0.0,0.0,0.0,0.0,0.0,0.0,0.0,0.0,0.0,0.0,0.0,0.0,0.0,0.0,0.0,0.0,0.0,0.0,0.0,0.0,0.0,0.0,0.0,0.0,0.0,0.0,0.0,0.0,0.0,0.0,0.0,0.0,0.0,0.0,0.0,0.0,0.0,0.0,0.0,0.0,0.0,0.0,0.0,0.0,0.0,0.0,0.0,0.0,0.0,0.0,0.0,0.0,0.0,0.0,0.0,0.0,0.0,0.0,0.0,0.0,0.0,0.0,0.0,0.0,0.0,0.0,0.0,0.0,0.0,0.0,0.0,0.0,0.0,0.0,0.0,0.0,0.0,0.0,0.0,0.0,0.0,0.0,0.0,0.0,0.0,0.0,0.0,0.0,0.0,0.0,0.0,0.0,0.0,0.0,0.0,0.0,0.0,0.0,0.0,0.0,0.0,0.0,0.0,0.0,0.0,0.0,0.0,0.0,0.0,0.0,0.0,0.0,0.0,0.0,0.0,0.0,0.0,0.0,0.0,0.0,0.0,0.0,0.0,0.0,0.0,0.0,0.0,0.0,0.0,0.0,0.0,0.0,0.0,0.0,0.0,0.0,0.0,0.0,0.0,0.0,0.0,0.0,0.0,0.0,0.0,0.0,0.0,0.0,0.0,0.0,0.0,0.0,0.0,0.0,0.0,0.0,0.0,0.0,0.0,0.0,0.0,0.0,0.0,0.0,0.0,0.0,0.0,0.0,0.0,0.0,0.0,0.0,0.0,0.0,0.0,0.0,0.0,0.0,0.0,0.0,0.0,0.0,0.0,0.0,0.0,0.0,0.0,0.0,0.0,0.0,0.0,0.0,0.0,0.0,0.0,0.0,0.0,0.0,0.0,0.0,0.0,0.0,0.0,0.0,0.0,0.0,0.0,0.0,0.0,0.0,0.0,0.0,0.0,0.0,0.0,0.0,0.0,0.0,0.0,0.0,0.0,0.0,0.0,0.0,0.0,0.0,0.0,0.0,0.0,0.0,0.0,0.0,0.0,0.0,0.0,0.0,0.0,0.0,0.0,0.0,0.0,0.0,0.0,0.0,0.0,0.0,0.0,0.0,0.0,0.0,0.0,0.0,0.0,0.0,0.0,0.0,0.0,0.0,0.0,0.0,0.0,0.0,0.0,0.0,0.0,0.0,0.0,0.0,0.0,0.0,0.0,0.0,0.0,0.0,0.0,0.0,0.0,0.0,0.0,0.0,0.0,0.0,0.0,0.0,0.0,0.0,0.0,0.0,0.0,0.0,0.0,0.0,0.0,0.0,0.0,0.0,0.0,0.0,0.0,0.0,0.0,0.0,0.0,0.0,0.0,0.0,0.0,0.0,0.0,0.0,0.0,0.0,0.0,0.0,0.0,0.0,0.0,0.0,0.0,0.0,0.0,0.0,0.0,0.0,0.0,0.0,0.0,0.0,0.0,0.0,0.0,0.0,0.0,0.0,0.0,0.0,0.0,0.0,0.0,0.0,0.0,0.0,0.0,0.0,0.0,0.0,0.0,0.0,0.0,0.0,0.0,0.0,0.0,0.0,0.0,0.0,0.0,0.0,0.0,0.0,0.0,0.0,0.0,0.0,0.0,0.0,0.0,0.0,0.0,0.0,0.0,0.0,0.0,0.0,0.0,0.0,0.0,0.0,0.0,0.0,0.0,0.0,0.0,0.0,0.0,0.0,0.0,0.0,0.0,0.0,0.0,0.0,0.0,0.0,0.0,0.0,0.0,0.0,0.0,0.0,0.0,0.0,0.0,0.0,0.0,0.0,0.0,0.0,0.0,0.0,0.0,0.0,0.0,0.0,0.0,0.0,0.0,0.0,0.0,0.0,0.0,0.0,0.0,0.0,0.0,0.0,0.0,0.0,0.0,0.0,0.0,0.0,0.0,0.0,0.0,0.0,0.0,0.0,0.0,0.0,0.0,0.0,0.0,0.0,0.0,0.0,0.0,0.0,0.0,0.0,0.0,0.0,0.0,0.0,0.0,0.0,0.0,0.0,0.0,0.0,0.0,0.0,0.0,0.0,0.0,0.0,0.0,0.0,0.0,0.0,0.0,0.0,0.0,0.0,0.0,0.0,0.0,0.0,0.0,0.0,0.0,0.0,0.0,0.0,0.0,0.0,0.0,0.0,0.0,0.0,0.0,0.0,0.0,0.0,0.0,0.0,0.0,0.0,0.0,0.0,0.0,0.0,0.0,0.0,0.0,0.0,0.0,0.0,0.0,0.0,0.0,0.0,0.0,0.0,0.0,0.0,0.0,0.0,0.0,0.0,0.0,0.0,0.0,0.0,0.0,0.0,0.0,0.0,0.0,0.0,0.0,0.0,0.0,0.0,0.0,0.0,0.0,0.0,0.0,0.0,0.0,0.0,0.0,0.0,0.0,0.0,0.0,0.0,0.0,0.0,0.0,0.0,0.0,0.0,0.0,0.0,0.0,0.0,0.0,0.0,0.0,0.0,0.0,0.0,0.0,0.0,0.0,0.0,0.0,0.0,0.0,0.0,0.0,0.0,0.0,0.0,0.0,0.0,0.0,0.0,0.0,0.0,0.0,0.0,0.0,0.0,0.0,0.0,0.0,0.0,0.0,0.0,0.0,0.0,0.0,0.0,0.0,0.0,0.0,0.0,0.0,0.0,0.0,0.0,0.0,0.0,0.0,0.0,0.0,0.0,0.0,0.0,0.0,0.0,0.0,0.0,0.0,0.0,0.0,0.0,0.0,0.0,0.0,0.0,0.0,0.0,0.0,0.0,0.0,0.0,0.0,0.0,0.0,0.0,0.0,0.0,0.0,0.0,0.0,0.0,0.0,0.0,0.0,0.0,0.0,0.0,0.0,0.0,0.0,0.0,0.0,0.0,0.0,0.0,0.0,0.0,0.0,0.0,0.0,0.0,0.0,0.0,0.0,0.0,0.0,0.0,0.0,0.0,0.0,0.0,0.0,0.0,0.0,0.0,0.0,0.0,0.0,0.0,0.0,0.0,0.0,0.0,0.0,0.0,0.0,0.0,0.0,0.0,0.0,0.0,0.0,0.0,0.0,0.0,0.0,0.0,0.0,0.0,0.0,0.0,0.0,0.0,0.0,0.0,0.0,0.0,0.0,0.0,0.0,0.0,0.0,0.0,0.0,0.0,0.0,0.0,0.0,0.0,0.0,0.0,0.0,0.0,0.0,0.0,0.0,0.0,0.0,0.0,0.0,0.0,0.0,0.0,0.0,0.0,0.0,0.0,0.0,0.0,0.0,0.0,0.0,0.0,0.0,0.0,0.0,0.0,0.0,0.0,0.0,0.0,0.0,0.0,0.0,0.0,0.0,0.0,0.0,0.0,0.0,0.0,0.0,0.0,0.0,0.0,0.0,0.0,0.0,0.0,0.0,0.0,0.0,0.0,0.0,0.0,0.0,0.0,0.0,0.0,0.0,0.0,0.0,0.0,0.0,0.0,0.0,0.0,0.0,0.0,0.0,0.0,0.0,0.0,0.0,0.0,0.0,0.0,0.0,0.0,0.0,0.0,0.0,0.0,0.0,0.0,0.0,0.0,0.0,0.0,0.0,0.0,0.0,0.0,0.0,0.0,0.0,0.0,0.0,0.0,0.0,0.0,0.0,0.0,0.0,0.0,0.0,0.0,0.0,0.0,0.0,0.0,0.0,0.0,0.0,0.0,0.0,0.0,0.0,0.0,0.0,0.0,0.0,0.0,0.0,0.0,0.0,0.0,0.0,0.0,0.0,0.0,0.0,0.0,0.0,0.0,0.0,0.0,0.0,0.0,0.0,0.0,0.0,0.0,0.0,0.0,0.0,0.0,0.0,0.0,0.0,0.0,0.0,0.0,0.0,0.0,0.0,0.0,0.0,0.0,0.0,0.0,0.0,0.0,0.0,0.0,0.0,0.0,0.0,0.0,0.0,0.0,0.0,0.0,0.0,0.0,0.0,0.0,0.0,0.0,0.0,5.7158,0.0,0.0,0.0,0.0,0.0,0.0,0.0,0.0,0.0,0.0,0.0,0.0,0.0,0.0,0.0,0.0,0.0,0.0,0.0,0.0,0.0,0.0,0.0,0.0,0.0,0.0,0.0,0.0,0.0,0.0,0.0,0.0,0.0,0.0,0.0,0.0,0.0,0.0,5.1222,5.1621,5.2503,5.3767,5.4279,5.4933,5.5677,0.0,0.0,0.0,0.0,0.0,0.0,0.0,0.0,0.0,0.0,0.0,0.0,0.0,0.0,0.0,0.0,0.0,0.0,0.0,0.0,0.0,0.0,0.0,0.0,0.0,0.0,0.0,0.0,0.0,0.0,0.0,0.0,0.0,0.0,0.0,0.0,0.0,0.0,0.0,0.0,0.0,0.0,0.0,0.0,0.0,0.0,0.0,0.0,0.0,0.0,0.0,0.0,0.0,0.0,0.0,0.0,0.0,0.0,0.0,0.0,0.0,0.0,0.0,0.0,0.0,0.0,0.0,0.0,0.0,0.0,0.0,5.776,0.0,0.0,0.0,0.0,0.0,0.0,0.0,0.0,0.0,0.0,0.0,0.0,0.0,0.0,0.0,0.0,0.0,0.0,0.0,0.0,0.0,0.0,0.0,5.1225,5.1199,5.1095,5.1069,5.1069,5.1069,0.0,0.0,0.0,0.0,0.0,5.0706,5.0597,5.0616,5.0858,5.1325,5.2144,5.3316,5.4519,5.5365,5.5865,5.5729,0.0,0.0,0.0,0.0,0.0,0.0,0.0,0.0,0.0,0.0,0.0,0.0,0.0,0.0,0.0,0.0,0.0,0.0,0.0,0.0,0.0,0.0,0.0,0.0,0.0,0.0,0.0,0.0,0.0,0.0,0.0,0.0,0.0,0.0,0.0,0.0,0.0,0.0,0.0,0.0,0.0,0.0,0.0,0.0,0.0,0.0,0.0,0.0,0.0,0.0,0.0,0.0,0.0,0.0,0.0,0.0,0.0,0.0,0.0,0.0,0.0,0.0,0.0,5.8348,5.8412,5.8519,5.8498,5.8586,5.8811,5.8665,5.8498,5.8391,0.0,0.0,0.0,0.0,0.0,0.0,0.0,0.0,0.0,0.0,0.0,0.0,0.0,0.0,0.0,0.0,0.0,0.0,0.0,0.0,5.2672,5.2545,5.2545,5.2545,5.2522,5.2522,5.2522,5.2522,0.0,0.0,0.0,0.0,5.1565,5.1475,5.0938,5.0697,5.0724,5.1988,5.2952,5.3664,5.4212,5.4902,5.564,5.6089,5.63,5.6328,0.0,0.0,0.0,0.0,0.0,0.0,0.0,0.0,0.0,0.0,0.0,0.0,0.0,0.0,0.0,0.0,0.0,0.0,0.0,0.0,0.0,0.0,0.0,0.0,0.0,0.0,0.0,0.0,0.0,0.0,0.0,0.0,0.0,0.0,0.0,0.0,0.0,0.0,0.0,0.0,0.0,5.8231,5.8172,0.0,0.0,0.0,0.0,0.0,0.0,0.0,0.0,0.0,0.0,0.0,0.0,0.0,5.8172,5.8319,5.8238,5.8412,5.8727,5.8644,5.8888,5.9418,5.9252,5.9379,5.9715,5.9698,0.0,5.8776,5.9028,0.0,0.0,0.0,0.0,0.0,0.0,0.0,0.0,0.0,0.0,0.0,0.0,0.0,0.0,0.0,0.0,0.0,0.0,0.0,0.0,0.0,5.3093,5.3182,5.3157,5.3157,5.3157,5.3157,5.2937,0.0,0.0,5.2477,5.2338,5.2291,5.2042,5.1861,5.1788,5.2402,5.281,5.3023,5.3701,5.4194,5.4555,5.526,5.5933,5.6626,5.6626,0.0,0.0,0.0,0.0,0.0,0.0,0.0,0.0,0.0,0.0,0.0,0.0,0.0,0.0,0.0,0.0,0.0,0.0,0.0,0.0,0.0,0.0,0.0,0.0,0.0,0.0,0.0,0.0,0.0,0.0,0.0,0.0,0.0,0.0,0.0,0.0,0.0,0.0,0.0,5.8127,5.8157,5.8297,5.8082,5.7807,0.0,0.0,0.0,0.0,0.0,0.0,0.0,0.0,0.0,5.8833,5.8853,5.8968,5.9197,5.9197,5.9271,5.9436,5.9363,5.947,5.977,5.9698,5.976,6.0029,6.0029,5.989,5.9685,5.9639,5.9523,5.9326,0.0,0.0,0.0,0.0,5.963,5.9803,0.0,0.0,0.0,0.0,0.0,0.0,0.0,0.0,0.0,0.0,0.0,0.0,5.3343,5.3567,5.3683,5.3662,5.3643,5.3604,5.3487,5.3219,5.3002,5.285,5.285,5.2828,5.2806,5.2806,5.2761,5.2635,5.2635,5.2627,5.2572,5.3166,5.3541,5.3759,5.4327,5.5327,5.6593,5.6593,5.683,5.7163,0.0,0.0,0.0,0.0,0.0,0.0,0.0,0.0,0.0,0.0,0.0,0.0,0.0,0.0,0.0,0.0,0.0,0.0,0.0,0.0,0.0,0.0,0.0,0.0,0.0,0.0,0.0,0.0,0.0,0.0,0.0,0.0,0.0,0.0,0.0,0.0,0.0,5.8418,5.8461,5.854,5.8402,5.815,0.0,0.0,0.0,0.0,0.0,0.0,5.8895,5.8951,5.9084,5.945,5.9467,5.9609,5.9885,5.9902,5.9902,5.9902,5.9934,5.995,5.995,5.9998,6.0091,6.0197,6.0197,6.027,6.0394,6.0122,5.9998,5.995,5.995,5.9934,5.9902,5.9934,5.995,5.9982,0.0,0.0,0.0,0.0,0.0,0.0,0.0,0.0,0.0,0.0,0.0,5.4292,5.4228,5.433,5.4347,5.4262,5.4245,5.4088,5.372,5.3662,5.3447,5.3002,5.298,5.2915,5.2806,5.2806,5.2783,5.2783,5.2783,5.2783,5.2783,5.2708,5.3063,5.3766,5.3759,5.4617,5.6041,5.6041,5.65,5.7188,5.7188,0.0,0.0,0.0,0.0,0.0,0.0,0.0,0.0,0.0,0.0,0.0,0.0,0.0,0.0,0.0,0.0,0.0,0.0,0.0,0.0,0.0,0.0,0.0,0.0,0.0,0.0,0.0,0.0,0.0,0.0,0.0,0.0,0.0,0.0,0.0,0.0,0.0,0.0,5.9272,5.9234,0.0,0.0,0.0,0.0,5.8758,5.8778,5.8951,5.9269,5.9287,5.9467,5.9869,5.9869,5.9885,5.9902,5.9902,5.9902,5.9902,6.0007,6.0084,6.0084,6.0285,6.0394,6.037,6.037,6.037,6.0408,6.0394,6.027,6.0084,6.0084,6.0029,5.9918,6.0022,6.0084,6.0099,0.0,0.0,0.0,0.0,0.0,0.0,0.0,0.0,5.4754,5.4754,5.4585,5.4458,5.4425,5.4647,5.4783,5.4754,5.4754,5.4693,5.4547,5.4309,5.4068,5.3906,5.387,5.3814,5.3777,5.3506,5.3346,5.3228,5.303,5.2872,5.2806,5.2761,5.2885,5.3176,5.3131,5.3727,5.4758,5.5632,5.6174,5.6428,5.6428,5.6717,0.0,0.0,0.0,0.0,0.0,0.0,0.0,0.0,0.0,0.0,0.0,0.0,0.0,0.0,0.0,0.0,0.0,0.0,0.0,0.0,0.0,0.0,0.0,0.0,0.0,0.0,0.0,0.0,0.0,0.0,0.0,0.0,0.0,0.0,0.0,0.0,0.0,5.9325,5.9412,0.0,5.897,5.9158,5.9321,5.9321,5.9635,5.9868,6.0,6.0,6.0084,6.0212,6.0707,6.0974,6.0974,6.1545,6.185,6.185,6.1857,6.1887,6.1887,6.1984,6.2013,6.2013,6.2013,6.2013,6.2013,6.2013,6.1335,6.0299,6.0299,6.0256,6.0226,6.027,6.0299,6.0299,0.0,0.0,0.0,0.0,0.0,0.0,0.0,5.5301,5.5185,5.5185,5.4998,5.4848,5.4857,5.5053,5.5211,5.5185,5.5185,5.5107,5.4998,5.4739,5.4506,5.4392,5.4347,5.4296,5.4296,5.4034,5.3833,5.3777,5.3407,5.3178,5.3093,5.2959,5.285,5.285,5.2806,5.3075,5.3695,5.4844,5.5438,5.5668,5.5655,5.6126,5.6683,0.0,0.0,0.0,0.0,0.0,0.0,0.0,0.0,0.0,0.0,0.0,0.0,0.0,0.0,0.0,0.0,0.0,0.0,0.0,0.0,0.0,0.0,0.0,0.0,0.0,0.0,0.0,0.0,0.0,0.0,0.0,0.0,0.0,0.0,0.0,5.9706,5.952,5.9723,5.9685,5.9268,5.9618,5.9868,5.9868,6.0188,6.0523,6.079,6.079,6.0943,6.1211,6.1745,6.2051,6.2051,6.2624,6.2892,6.2892,6.2892,6.2892,6.2892,6.2892,6.2892,6.2892,6.2892,6.2892,6.2892,6.2892,6.2242,6.1211,6.0905,6.079,6.0752,6.0485,6.0422,6.0422,0.0,0.0,0.0,0.0,0.0,0.0,5.5523,5.5523,5.5523,5.5523,5.5593,5.5566,5.5497,5.5554,5.5566,5.5497,5.5523,5.5389,5.504,5.4943,5.4769,5.4441,5.438,5.433,5.433,5.4313,5.4313,5.4313,5.3925,5.372,5.372,5.324,5.3023,5.306,5.2952,5.2886,5.2959,5.3762,5.4437,5.5013,5.4943,5.5438,5.6225,0.0,0.0,0.0,0.0,0.0,0.0,0.0,0.0,0.0,0.0,0.0,0.0,0.0,0.0,0.0,0.0,0.0,0.0,0.0,0.0,0.0,0.0,0.0,0.0,0.0,0.0,0.0,0.0,0.0,0.0,0.0,0.0,0.0,5.9966,6.0045,6.0038,5.9934,6.0197,6.0313,6.0114,6.0323,6.046,6.046,6.0446,6.0828,6.1593,6.1631,6.2051,6.2892,6.293,6.293,6.293,6.2968,6.2968,6.2968,6.2968,6.2968,6.2968,6.2968,6.2968,6.2968,6.2968,6.2968,6.2968,6.2983,6.2983,6.2906,6.2013,6.1631,6.1554,6.0766,6.0512,6.0502,0.0,0.0,0.0,0.0,0.0,0.0,5.566,5.566,5.566,5.566,5.573,5.5769,5.5682,5.574,5.5769,5.5671,5.566,5.5588,5.5531,5.5423,5.5326,5.5198,5.5185,5.5172,5.5172,5.4871,5.4761,5.4761,5.4347,5.4141,5.4141,5.3998,5.426,5.4801,5.4764,5.51,5.5697,5.5844,5.5973,5.6097,5.5426,5.5957,5.7097,0.0,0.0,0.0,0.0,0.0,0.0,0.0,0.0,0.0,0.0,0.0,0.0,0.0,0.0,0.0,0.0,0.0,0.0,0.0,0.0,0.0,0.0,0.0,0.0,0.0,0.0,0.0,0.0,0.0,0.0,0.0,0.0,6.0659,6.0313,6.0285,6.0299,6.0256,6.0328,6.0394,6.0313,6.0876,6.1287,6.1287,6.186,6.2319,6.2548,6.2548,6.2662,6.2892,6.3503,6.3847,6.3847,6.442,6.4726,6.4726,6.4726,6.4726,6.4726,6.4726,6.4726,6.4726,6.4862,6.4931,6.4945,6.5103,6.5139,6.4948,6.3211,6.2548,6.2524,6.2475,6.2477,6.2571,0.0,0.0,0.0,0.0,0.0,0.0,5.5703,5.5703,5.5696,5.5788,5.5864,5.5879,5.5852,5.5946,5.5962,5.5861,5.5852,5.5852,5.5852,5.5769,5.5615,5.5523,5.5485,5.5485,5.5485,5.525,5.5349,5.5693,5.5269,5.5255,5.5595,5.5413,5.559,5.6021,5.6021,5.6321,5.679,5.6719,5.6889,5.7135,5.6577,5.69,5.7574,5.6571,5.6741,5.7507,5.7682,5.7765,5.7881,5.8569,0.0,0.0,0.0,0.0,0.0,0.0,0.0,0.0,0.0,0.0,0.0,0.0,0.0,0.0,0.0,0.0,0.0,0.0,0.0,0.0,0.0,0.0,0.0,0.0,6.0817,6.0971,6.1146,6.084,6.061,6.061,6.0917,6.1147,6.1147,6.1876,6.2337,6.2337,6.2782,6.3149,6.3493,6.3485,6.377,6.4458,6.5058,6.5537,6.5882,6.6403,6.6713,6.6713,6.6713,6.6713,6.6713,6.6713,6.6713,0.0,6.6808,6.6859,6.6871,6.6981,6.7062,0.0,0.0,0.0,0.0,0.0,6.3322,6.3422,0.0,0.0,0.0,0.0,0.0,0.0,5.5748,5.5748,5.5808,5.5904,5.5938,5.5963,5.6084,5.611,5.6116,5.6097,5.6097,5.6097,5.6097,5.5939,5.5731,5.5599,5.5554,5.5581,5.5696,5.5662,5.6072,5.6954,5.6584,5.6797,5.7467,5.7111,5.6983,5.7096,5.7079,5.7116,5.7229,5.7212,5.7627,5.8249,5.8249,5.8143,5.7941,5.781,5.8315,5.899,5.8951,5.8895,5.8895,5.8952,0.0,0.0,0.0,0.0,0.0,0.0,0.0,0.0,0.0,0.0,0.0,0.0,0.0,0.0,0.0,0.0,0.0,0.0,0.0,0.0,0.0,0.0,0.0,0.0,6.1185,6.1504,6.2277,6.1736,6.1214,6.1201,6.1857,6.2358,6.2358,6.3053,6.3566,6.3566,6.3599,6.3962,6.468,0.0,0.0,0.0,0.0,6.7499,6.8216,6.841,6.8506,6.8506,6.8506,6.8506,6.8506,6.8506,6.8517,6.8529,6.8552,6.8563,6.8574,6.8558,6.8622,6.8433,6.6084,6.5153,6.5097,6.4209,6.392,6.3912,0.0,0.0,0.0,0.0,0.0,0.0,5.6015,5.6015,5.6022,5.605,5.6152,5.6186,5.6104,5.6191,5.6207,5.6104,5.6097,5.6097,5.6097,5.6064,5.6029,5.5993,5.5896,5.6154,5.685,5.6725,5.7063,5.7935,5.7799,5.7826,5.7979,5.7876,5.8181,5.8817,5.8762,5.9116,5.9765,5.9745,5.9792,5.9945,5.9945,5.9528,5.8915,5.8897,5.9009,5.9178,5.952,5.9622,5.9656,5.9984,6.0129,6.0129,6.0129,6.0144,0.0,0.0,0.0,0.0,0.0,0.0,0.0,0.0,0.0,0.0,0.0,0.0,0.0,0.0,0.0,0.0,0.0,0.0,0.0,6.2189,6.2866,6.3468,6.3623,6.3507,6.3301,6.2952,6.3064,6.318,6.318,6.3941,6.4442,6.4442,6.5681,6.6468,6.6661,6.7292,6.7819,6.8154,6.8203,6.8292,6.8446,6.8482,6.8506,6.8506,0.0,0.0,6.8506,6.8506,6.8524,6.8573,6.8752,6.8843,6.8917,6.9006,6.9091,6.9007,6.8222,6.8041,6.8055,6.72,6.6949,6.7028,0.0,0.0,0.0,0.0,0.0,0.0,5.6146,5.6135,5.6152,5.6222,5.6294,5.6312,5.6363,5.639,5.6432,5.6351,5.6347,5.6324,5.6197,5.6191,5.6164,5.6097,5.6456,5.6846,5.7312,5.7633,5.8237,5.9118,5.896,5.9106,5.9491,5.9406,5.9549,5.9933,5.9933,6.015,6.0571,6.0493,6.0466,6.0464,6.0464,6.0188,5.9809,5.9809,5.9809,5.9842,6.0053,6.0099,6.0129,6.0328,6.0422,6.0422,6.0422,6.0422,6.0422,0.0,0.0,0.0,0.0,0.0,0.0,0.0,0.0,0.0,0.0,0.0,0.0,0.0,0.0,6.1621,0.0,0.0,6.3192,6.3282,6.3726,6.4221,6.4649,6.5078,6.4928,6.383,6.4066,6.4453,6.4918,6.5731,6.6428,6.6854,6.761,6.8034,6.801,6.839,6.8777,6.9176,6.9314,6.9576,6.9992,7.0114,7.0149,7.0149,7.0149,7.0149,7.0149,7.0149,7.0175,7.0215,7.0314,7.0356,7.0395,7.0508,7.0532,7.0527,7.0403,6.9823,6.9065,6.8598,6.8511,6.8549,0.0,0.0,0.0,0.0,0.0,0.0,5.6294,5.6276,5.6338,5.6416,5.6404,5.6413,5.658,5.6616,5.661,5.6608,5.6606,5.655,5.6379,5.6375,5.6381,5.6409,5.7091,5.7585,5.7935,5.861,5.9374,6.0222,6.0054,6.0306,6.0954,6.0779,6.0707,6.0697,6.0647,6.0648,6.0597,6.0623,6.0584,6.0506,6.0506,6.0504,6.045,6.045,6.0398,6.0422,6.0422,6.0422,6.0422,6.0422,6.0422,6.0422,6.0422,6.0422,6.0422,6.0422,6.0422,0.0,0.0,0.0,0.0,0.0,0.0,0.0,0.0,6.194,6.2327,6.166,6.212,6.2679,6.2772,6.358,6.4304,6.4578,6.4744,6.5173,6.603,6.6771,6.6657,6.5174,6.5581,6.6242,6.6942,6.7649,6.8341,6.908,6.9174,6.9204,6.9127,6.9403,6.986,7.0506,7.0884,7.1393,7.2047,7.2211,7.2323,7.2323,7.2323,7.2323,7.2323,7.2323,7.2295,7.2306,7.2316,7.2321,7.2321,7.2396,7.2413,7.2416,7.2447,7.1565,7.0176,6.967,6.9475,6.9475,0.0,0.0,0.0,0.0,0.0,0.0,0.0,0.0,5.6545,5.6588,5.6587,5.6588,5.6592,5.6591,5.6588,5.658,5.661,5.6604,5.6558,5.6558,5.6868,5.7565,5.7584,5.832,5.9835,5.9859,6.0261,6.1077,6.1056,6.108,6.1158,6.1135,6.1079,6.0945,6.0905,6.0806,6.0673,6.0649,6.061,6.061,6.061,6.0559,6.0597,6.0597,6.048,6.0422,6.0422,6.0422,6.0422,6.0422,6.0422,6.0422,6.0422,6.0422,6.0422,6.0422,6.0422,6.0425,6.0533,6.0727,6.0902,6.1059,6.1688,6.2352,0.0,6.3178,6.3729,6.3737,6.3831,6.392,6.393,6.4637,6.5514,6.6346,6.7091,6.7872,6.873,6.8964,6.8904,6.8655,6.8683,6.88,6.8878,6.8995,6.9073,6.919,6.9885,7.0314,7.0302,7.1788,7.2645,7.275,7.3514,7.3993,7.4071,7.4116,7.4121,7.4121,7.4121,7.4121,7.4121,7.4121,7.4148,7.4191,7.4187,7.4204,7.4204,7.4207,7.4207,7.4207,7.4212,7.4092,7.3618,7.1351,7.0531,7.0414,0.0,0.0,0.0,0.0,0.0,0.0,0.0,0.0,5.6598,5.66,5.6597,5.6594,5.6597,5.6595,5.6592,5.6589,5.658,5.6614,5.6614,5.704,5.7465,5.7777,5.8733,5.9576,6.0314,6.0754,6.1166,6.1474,6.1417,6.1384,6.1384,6.1266,6.1158,6.1128,6.1112,6.1062,6.0982,6.0963,6.0866,6.0795,6.0846,6.0804,6.0712,6.0804,6.0787,6.0712,6.0572,6.0531,0.0,6.0608,6.0618,6.0654,6.0712,6.074,6.0762,6.0762,6.0716,6.0716,6.0915,6.1378,6.1862,6.203,6.3113,6.4021,6.3631,6.4182,6.4649,6.4179,6.4948,6.5671,6.5671,6.6783,6.7855,0.0,6.8613,6.8925,6.9315,6.978,7.0089,7.0072,7.0501,7.0598,6.9996,6.9946,7.018,7.0687,7.1575,7.2048,7.2017,7.3202,7.3922,7.3895,7.4273,7.4441,7.4441,7.4441,7.4441,7.4441,7.4441,7.4441,7.4441,7.4441,7.4449,7.4506,7.4519,7.4486,7.4486,7.4486,7.4486,7.4486,7.4486,7.4486,7.429,7.2768,7.2221,7.2104,0.0,0.0,0.0,0.0,0.0,0.0,0.0,0.0,0.0,0.0,5.66,5.6598,5.66,5.6597,5.6595,5.6595,5.6824,5.6976,5.6976,5.7713,5.8256,5.8529,5.9736,6.0514,6.0749,6.1369,6.1718,6.1718,6.1595,6.1569,6.1564,6.1417,6.1322,6.1285,6.1285,6.1266,6.1186,6.1186,6.1105,6.1009,6.1097,6.1056,6.0915,6.1018,6.1058,6.1026,6.0783,6.0716,6.075,6.0807,6.0857,6.0887,6.0984,6.1014,6.1,6.1,6.1175,6.1396,6.1555,6.2242,6.2996,6.3112,6.431,6.5255,6.4631,6.5346,6.5979,6.5316,6.6432,6.7507,6.7507,6.8541,6.9489,6.9723,6.9762,6.984,7.0074,7.066,7.105,7.105,7.1831,7.2086,7.1326,7.1278,7.1512,7.2174,7.3064,7.3536,7.35,7.4343,7.4867,7.4878,7.5098,7.5227,7.5227,7.5227,7.5227,7.5227,7.5227,7.5227,7.5227,7.5227,7.5227,7.5227,7.5227,7.5227,7.5227,7.5227,7.5227,7.5227,7.5227,7.5227,7.511,7.429,7.3822,7.3549,0.0,0.0,0.0,0.0,0.0,0.0,0.0,0.0,0.0,0.0,0.0,5.6601,5.6601,5.6601,5.6599,5.6599,5.7377,5.7843,5.7843,5.8624,5.9444,6.0264,6.0375,6.0799,6.1658,6.1686,6.1718,6.1718,6.1718,6.1676,6.1676,6.1676,6.1605,6.1486,6.1486,6.139,6.1186,6.1186,6.1186,6.1179,6.1186,6.1186,6.1179,6.1186,6.1186,6.1172,6.1042,6.1009,6.0971,6.0979,6.0979,6.0979,6.0987,6.0987,6.0979,6.0979,6.1733,6.2562,6.2569,6.3303,6.4062,6.4067,6.4766,6.5496,6.5457,6.6772,6.8003,6.7964,6.8705,6.9333,6.9333,6.9372,6.9684,7.0504,7.066,7.0972,7.1792,7.1948,7.1948,7.1948,7.2729,7.3234,0.0,7.3234,7.3234,7.3234,7.4014,7.4444,7.4444,7.5305,7.5774,7.5774,7.6594,7.7023,7.7023,7.7023,7.7023,7.7023,7.7023,7.7023,7.7023,7.7023,7.7023,7.7023,7.7023,7.7023,7.7023,7.7023,7.7023,7.7023,7.7023,7.7023,7.6906,7.6047,7.5188,7.4447,0.0,0.0,0.0,0.0,0.0,0.0,0.0,0.0,0.0,0.0,0.0,0.0,0.0,0.0,0.0,0.0,5.738,5.7886,5.7886,5.9173,6.0109,6.0382,6.0965,6.1393,6.1705,6.1697,6.1692,6.1692,6.1683,6.1718,6.1718,6.1718,6.1671,6.1612,6.1612,6.1598,6.1534,6.1534,6.1461,6.1406,6.1513,6.15,6.1406,6.1513,6.1534,6.1534,0.0,6.1306,6.1165,6.1298,6.1328,6.134,6.1451,6.1412,6.1495,6.2046,6.2447,6.2868,6.3487,6.4333,6.5055,6.5081,6.6187,6.725,6.725,6.8117,6.8942,6.8942,6.9645,7.027,7.027,7.0738,7.1206,7.1519,7.1558,7.187,7.2729,7.2846,7.3041,7.3588,7.3939,0.0,0.0,0.0,0.0,7.4095,7.4876,7.5345,7.5345,7.6203,7.6672,7.6672,7.6945,7.7101,7.7101,7.7101,7.7101,7.7101,7.7101,7.7101,7.7101,7.7101,7.7101,7.7101,7.7101,7.7101,7.7101,7.7101,7.7101,7.7101,7.7101,7.7101,7.7062,7.6789,7.6477,7.6047,0.0,0.0,0.0,0.0,0.0,0.0,0.0,0.0,0.0,0.0,0.0,0.0,0.0,0.0,0.0,0.0,0.0,5.8387,5.8659,5.9992,6.0775,6.0775,6.1285,6.1598,6.1598,6.164,6.1677,6.1677,6.1699,6.1688,6.1686,6.1681,6.1718,6.1718,6.1718,6.1718,6.1718,6.1718,6.166,6.158,6.1666,6.1657,6.1584,6.1666,6.1718,0.0,6.1718,6.1549,6.1417,6.1521,6.1576,6.1588,6.1668,6.1863,6.2275,6.307,6.3573,6.3928,6.4538,6.5322,6.607,6.6399,6.7303,6.8161,6.8474,6.9255,6.9879,6.9879,7.0543,7.1167,7.1167,7.1636,7.1987,7.1987,7.226,7.2651,7.3236,7.3549,7.3939,7.4447,7.4759,7.4954,0.0,0.0,0.0,7.4993,7.5774,7.6242,7.6242,7.6789,7.7101,7.7101,7.7414,7.757,7.757,7.7882,7.8038,7.8038,7.8038,7.7882,7.757,7.757,7.7375,7.7101,7.7101,7.7101,7.7101,7.7101,7.7101,7.7101,7.7101,7.7101,7.7101,7.7101,7.7101,7.6945,0.0,0.0,0.0,0.0,0.0,0.0,0.0,0.0,0.0,0.0,0.0,0.0,0.0,0.0,0.0,0.0,0.0,0.0,6.0058,6.0919,6.1426,6.1422,6.14,6.1413,6.1413,6.1529,6.1592,6.1593,6.1675,6.1697,6.1697,6.1686,6.172,6.1718,6.1718,6.1718,6.1718,6.1718,6.1718,6.1718,6.1718,6.1718,6.1718,6.1718,6.1718,6.1718,6.1718,6.1718,6.1718,6.1718,6.1718,6.1718,6.1757,6.2345,6.3164,6.4101,6.496,6.5624,6.5663,6.6249,6.7068,6.7888,6.8161,6.8435,6.9294,7.0152,7.0777,7.0777,7.1402,7.1987,7.1987,0.0,7.2026,7.2065,7.2768,7.3315,7.3432,7.4095,7.4564,0.0,0.0,0.0,0.0,0.0,0.0,7.5933,0.0,7.7101,7.7101,7.714,7.7179,7.7179,7.7999,7.8468,7.8468,7.9287,7.9717,7.9717,7.9717,7.9287,7.8468,7.8468,7.8038,7.7218,7.7218,7.7218,7.7218,7.7218,7.7218,7.7218,7.7218,7.7218,7.7218,7.7179,7.7179,7.7179,0.0,0.0,0.0,0.0,0.0,0.0,0.0,0.0,0.0,0.0,0.0,0.0,0.0,0.0,0.0,0.0,0.0,0.0,6.0263,6.1123,6.1582,6.1546,6.1549,6.1549,6.1549,6.1575,6.1633,6.168,6.1673,6.1704,6.1697,6.1696,6.169,6.1718,6.1718,6.1718,6.1718,6.1718,6.1718,6.1718,6.1718,6.1718,6.1718,6.1718,6.1718,6.1718,6.1718,6.1718,6.1718,6.1718,6.1718,6.1796,6.2462,6.2813,6.3282,6.4804,6.5429,6.5741,6.6327,6.7107,6.781,6.8044,6.9098,7.0113,7.0309,7.105,7.1675,7.1675,7.1831,7.1987,7.1987,7.1987,0.0,7.2846,7.3158,0.0,7.4993,7.5345,0.0,7.636,0.0,7.6789,7.6789,7.6984,0.0,0.0,7.6984,7.7101,7.7101,7.7726,7.8077,7.8077,7.8897,7.9366,7.9366,7.96,7.9717,7.9717,7.9717,7.96,7.9366,7.9366,7.9248,7.9053,7.9053,7.9053,7.9053,7.9053,7.9053,7.9053,7.9053,7.9053,7.8975,7.8311,7.8077,7.796,0.0,0.0,0.0,0.0,0.0,0.0,0.0,0.0,0.0,0.0,0.0,0.0,0.0,0.0,0.0,0.0,0.0,0.0,0.0,6.1299,6.1562,6.1527,6.1524,6.1524,6.1524,6.1562,6.1624,6.1676,6.1679,6.1711,6.1708,6.1701,6.1694,6.1688,6.1681,6.1718,6.1718,6.1718,6.1718,0.0,0.0,6.1718,6.1718,6.1718,6.1718,6.1718,6.1718,6.1718,6.1718,6.1718,6.1952,6.2423,6.3282,6.3828,6.4414,6.5741,6.6131,6.6327,6.7146,6.7732,6.8279,6.9059,6.9996,7.0816,7.1167,7.1636,7.1987,7.1987,7.1987,7.1987,7.1987,7.1987,7.23,0.0,0.0,0.0,7.5618,7.6125,7.6555,0.0,7.7101,0.0,7.7101,7.7101,7.7257,0.0,7.7687,7.7687,7.7687,7.8507,7.8975,7.8975,7.9834,8.0459,8.0849,8.0849,8.0849,8.0849,8.0849,8.0654,8.0263,8.0263,8.0068,7.9717,0.0,7.9717,7.9717,7.9717,7.9717,7.9717,7.9717,7.9717,7.9639,7.9131,7.8975,7.8897,0.0,0.0,0.0,0.0,0.0,0.0,0.0,0.0,0.0,0.0,5.6601,0.0,0.0,0.0,0.0,0.0,0.0,0.0,0.0,0.0,6.1443,6.1431,6.1431,6.1431,6.1431,6.1543,6.161,6.1616,6.1679,6.1716,6.1715,6.1705,6.1697,6.1696,6.1686,6.1718,6.1718,6.1718,6.1718,6.1718,6.1718,6.1718,6.1718,0.0,6.1718,6.1718,6.1718,6.1718,6.1718,6.1835,6.2384,6.3164,6.4026,6.4882,6.5741,6.6561,6.6795,6.699,6.7849,6.8161,6.8669,7.0309,7.0777,7.1089,7.1831,7.1987,7.1987,7.1987,7.1987,7.1987,7.1987,7.1987,7.2339,7.3315,0.0,7.4837,7.5813,7.6633,7.7101,7.7101,7.7101,7.7101,7.7101,7.7218,7.7609,7.835,7.8624,7.8702,7.8585,7.9405,7.9912,8.0029,8.0771,8.1552,8.2293,8.2293,8.2293,8.2293,8.2293,8.1903,8.1161,8.1161,8.0771,8.0068,0.0,0.0,8.0068,8.0068,8.0068,8.0068,8.0068,8.0068,8.0029,7.9912,7.9873,7.9873,0.0,0.0,0.0,0.0,0.0,0.0,0.0,0.0,0.0,0.0,5.6601,5.6601,0.0,0.0,0.0,0.0,0.0,0.0,0.0,0.0,0.0,6.1554,6.1551,6.1551,6.1551,6.161,6.163,6.168,6.1676,6.1708,6.1702,6.1699,6.1694,6.1683,6.1681,6.1718,6.1718,6.1718,6.1718,6.1718,6.1718,6.1718,6.1718,6.1718,0.0,0.0,6.1718,6.1718,6.1796,6.254,6.2852,6.3164,6.4026,6.4882,6.5741,6.6561,6.6795,6.699,6.7849,6.863,6.9411,7.0426,7.1245,7.1792,7.1987,7.1987,7.1987,7.1987,7.1987,7.1987,7.1987,7.1987,7.2495,7.4056,7.4408,7.5071,7.6633,7.6984,7.7101,0.0,7.7101,7.7101,7.7101,7.7765,0.0,0.0,0.0,8.0224,7.9522,8.0302,8.1083,8.1825,8.1981,8.2137,8.2293,8.2293,8.2293,8.2293,8.2293,8.2215,8.2059,8.2059,8.1981,8.1864,8.1864,0.0,8.1864,8.1864,8.1864,8.1864,8.1864,8.1864,8.1747,8.1044,8.0771,8.0654,0.0,0.0,0.0,0.0,0.0,0.0,0.0,5.6433,5.6502,5.6502,5.6945,5.7264,5.7265,5.8047,5.8906,0.0,0.0,0.0,0.0,0.0,0.0,6.1639,6.1639,6.1639,6.1639,6.164,6.1679,6.1713,0.0,6.1707,6.1704,6.1699,6.1696,6.169,6.1683,6.1718,6.1718,6.1718,6.1718,6.1718,6.1718,6.1718,6.1718,6.1718,0.0,0.0,6.1718,6.1718,6.1835,6.2696,6.3282,6.3828,6.4687,6.5546,6.6288,6.6678,6.6795,6.7107,6.8435,6.9098,6.9723,7.105,7.1675,7.1987,7.1987,7.1987,7.1987,7.1987,7.1987,7.1987,7.1987,7.1987,7.2534,7.4212,7.4486,7.511,7.6867,7.7101,7.7101,7.7101,7.7101,7.7101,0.0,7.7882,0.0,0.0,0.0,8.081,8.0381,8.12,8.1864,8.2293,8.2293,8.2293,8.2293,8.2293,8.2293,8.2293,8.2293,8.2293,8.2293,8.2293,8.2293,8.2293,8.2293,0.0,8.2293,8.2293,8.2293,8.2293,8.2293,8.2293,8.2254,8.1825,8.1669,8.163,0.0,0.0,0.0,0.0,0.0,0.0,0.0,5.6285,5.6344,5.6344,5.7221,5.7917,5.8082,5.8905,5.9726,0.0,0.0,0.0,0.0,0.0,0.0,0.0,0.0,0.0,6.1709,0.0,0.0,6.1707,6.1705,0.0,0.0,0.0,0.0,0.0,6.1683,6.1718,6.1718,6.1718,6.1718,0.0,0.0,6.1718,6.1718,0.0,0.0,0.0,0.0,6.1718,6.1835,6.2696,6.3594,6.4455,6.5312,6.6131,6.6795,6.6795,6.6795,6.7146,6.8708,6.9255,6.9762,7.1324,7.187,7.1987,7.1987,7.1987,7.1987,7.1987,7.1987,7.1987,7.1987,7.1987,7.2534,7.4212,7.4486,7.511,7.6867,7.7101,7.7101,0.0,7.7101,0.0,7.7101,7.8077,0.0,0.0,0.0,0.0,8.1278,8.1942,8.2293,8.2293,8.2293,8.2293,8.2293,8.2293,8.2293,8.2293,8.2293,8.2293,8.2293,8.2293,8.2293,8.2293,8.2293,0.0,0.0,8.2296,8.2299,8.2302,8.2302,8.2302,8.2302,8.2302,8.2302,8.2302,0.0,0.0,0.0,0.0,0.0,0.0,0.0,5.6128,5.6207,5.6207,5.7073,5.8019,5.8724,5.9702,6.0304,0.0,0.0,0.0,0.0,0.0,0.0,0.0,0.0,0.0,0.0,0.0,0.0,6.1699,6.1688,0.0,0.0,0.0,0.0,0.0,0.0,6.1718,6.1718,6.1718,0.0,0.0,0.0,0.0,0.0,0.0,0.0,0.0,0.0,6.1718,6.1835,6.2696,6.3594,6.4455,6.5312,6.6131,6.6795,6.6795,6.6795,6.699,6.7966,6.8786,6.9645,7.0582,7.1402,7.1987,7.1987,7.1987,7.1987,7.1987,7.1987,7.1987,7.1987,7.1987,7.2534,7.4212,7.4486,7.511,7.6867,7.7101,7.7101,7.7101,0.0,0.0,7.7101,0.0,0.0,0.0,0.0,0.0,8.2176,8.2254,8.2293,8.2293,8.2293,8.2293,8.2293,8.2293,8.2293,8.2293,8.2293,8.2293,8.2293,8.2293,8.2293,8.2293,8.2293,0.0,0.0,8.2313,8.2281,8.229,8.229,8.229,8.229,8.229,8.229,8.229,0.0,0.0,0.0,0.0,0.0,0.0,5.5817,5.5938,5.6202,5.6737,5.7683,5.8621,5.9477,6.0331,6.0953,6.1151,0.0,0.0,0.0,0.0,0.0,0.0,0.0,0.0,0.0,0.0,6.1688,6.1688,6.1681,0.0,0.0,0.0,0.0,0.0,0.0,6.1718,6.1718,6.1718,0.0,0.0,0.0,0.0,0.0,0.0,0.0,0.0,0.0,0.0,6.1835,6.2696,6.3594,6.4455,6.5312,6.6131,6.6795,6.6795,6.6795,6.699,6.7849,6.8357,6.8825,6.9684,7.0582,7.1206,7.1206,7.1636,7.1987,7.1987,7.1987,7.1987,7.1987,7.1987,7.2378,7.3588,7.4173,7.4915,7.6164,7.6789,7.7101,7.7101,7.7101,0.0,0.0,0.0,0.0,0.0,0.0,0.0,8.2293,8.2293,8.2293,8.2293,8.2293,8.2293,8.2293,8.2293,8.2293,8.2293,8.2302,8.2305,8.2308,8.2315,8.232,8.232,8.232,0.0,0.0,8.2287,8.2289,8.2292,8.2292,8.2292,8.2292,8.2292,8.2292,8.2292,0.0,0.0,0.0,0.0,0.0,5.5703,5.5703,5.5798,5.6077,5.6695,5.7868,5.8869,5.9483,6.0536,6.1316,6.1517,6.1566,0.0,0.0,0.0,0.0,0.0,0.0,0.0,0.0,0.0,6.1718,6.1718,6.1718,6.1718,0.0,0.0,0.0,0.0,0.0,0.0,0.0,0.0,0.0,0.0,0.0,0.0,0.0,0.0,0.0,0.0,0.0,0.0,0.0,0.0,0.0,6.4062,6.4921,6.578,6.6483,6.6717,6.6795,6.6912,6.7537,6.7888,6.8239,6.8864,6.9684,7.0387,7.066,7.1167,7.1675,7.1948,7.1987,7.1987,7.1987,7.1987,7.23,7.3158,7.3978,7.4798,7.5699,7.6555,7.7101,7.7101,0.0,0.0,0.0,0.0,0.0,0.0,0.0,0.0,0.0,8.2308,8.2302,8.2293,8.2296,8.2299,8.2299,8.2305,8.2308,8.2308,8.2315,8.2281,8.2281,8.2289,8.2292,8.2292,0.0,0.0,0.0,8.2296,8.2297,8.2299,8.2299,8.2299,8.2299,8.2299,8.2299,8.2299,0.0,0.0,0.0,0.0,0.0,0.0,5.5703,5.5714,5.5714,5.5714,5.7342,5.8505,5.8505,6.0135,6.1193,6.1193,6.1193,0.0,0.0,0.0,0.0,0.0,0.0,0.0,0.0,0.0,6.1718,6.1718,6.1718,6.1718,6.1718,6.1718,6.1718,6.1718,0.0,0.0,0.0,0.0,0.0,0.0,0.0,0.0,6.1718,0.0,0.0,0.0,0.0,0.0,0.0,0.0,0.0,0.0,0.0,6.4921,6.578,6.6561,6.6795,6.6795,6.6795,6.7459,6.8083,6.8122,6.8786,6.9645,7.0504,7.0699,7.0972,7.1831,7.1987,7.1987,7.1987,7.1987,7.23,7.3158,7.3978,7.4798,7.5699,7.6555,7.7101,0.0,0.0,7.7107,0.0,0.0,0.0,0.0,0.0,0.0,0.0,8.2292,8.2283,8.2293,8.2308,8.2313,8.2313,8.2287,8.2292,8.2292,8.2292,8.2292,8.2292,8.2292,8.2292,0.0,0.0,0.0,0.0,8.2301,8.2303,8.2304,8.2304,8.2304,8.2304,8.2304,8.2304,8.2304,0.0,0.0,0.0,0.0,0.0,0.0,0.0,5.5703,5.5895,5.6522,5.7615,5.8582,5.9121,6.0236,6.0933,6.0933,6.1095,0.0,0.0,0.0,0.0,0.0,0.0,0.0,0.0,6.1351,6.1351,6.1351,6.1351,6.1351,6.1351,6.1351,6.1351,6.1351,6.1351,0.0,0.0,0.0,0.0,0.0,0.0,6.1718,6.1718,0.0,0.0,0.0,0.0,0.0,0.0,0.0,0.0,0.0,0.0,0.0,0.0,6.6561,6.6795,6.6795,6.6795,6.699,6.7224,6.7224,6.7888,6.8591,6.8864,6.984,7.0777,7.105,7.1597,7.1987,7.1987,7.1987,7.2104,7.2378,7.3588,7.4603,7.4876,7.6173,0.0,7.7117,7.7085,7.7325,0.0,0.0,0.0,0.0,0.0,0.0,0.0,8.198,8.229,8.2283,8.2287,8.2289,8.2289,8.229,8.2292,8.2292,8.2297,8.23,8.23,8.2302,0.0,0.0,0.0,0.0,0.0,8.2304,8.2304,8.2304,8.2304,8.2304,8.2304,8.2304,8.2304,8.2304,0.0,0.0,0.0,0.0,0.0,0.0,0.0,5.5703,5.5895,5.6445,5.728,5.8127,5.8973,5.9781,6.0435,6.0781,6.0664,0.0,0.0,0.0,0.0,0.0,0.0,0.0,6.0766,6.0766,6.0766,6.0766,6.0766,6.0882,6.1186,6.1186,6.1186,6.1186,6.1186,6.1186,0.0,0.0,0.0,0.0,6.1461,6.1541,6.1609,0.0,0.0,0.0,0.0,0.0,0.0,0.0,0.0,0.0,0.0,0.0,0.0,0.0,6.6561,6.6795,6.6795,6.6795,6.6795,6.6795,6.7224,6.7693,6.8044,6.9176,7.0309,7.0621,7.1402,7.1987,7.1987,7.1987,7.1987,7.1987,7.3393,7.4528,7.4533,0.0,0.0,7.7089,0.0,0.0,0.0,0.0,0.0,0.0,0.0,0.0,0.0,8.1323,8.1792,8.1792,8.2141,8.2296,8.2296,8.2299,8.23,8.23,8.2303,8.2303,8.2303,8.2304,0.0,0.0,0.0,0.0,0.0,8.2304,8.2304,8.2304,8.2304,8.2304,8.2304,8.2304,8.2304,8.2304,0.0,0.0,0.0,0.0,0.0,0.0,0.0,5.5703,5.5703,5.5703,5.6483,5.7319,5.8204,5.9011,5.9858,6.0704,0.0,0.0,0.0,0.0,0.0,0.0,0.0,0.0,5.9883,5.9883,5.9883,5.9883,5.9922,6.0349,6.108,6.1158,6.1158,6.1158,6.1158,6.1158,0.0,0.0,0.0,0.0,6.1186,6.1304,0.0,0.0,0.0,0.0,0.0,0.0,0.0,0.0,0.0,0.0,0.0,0.0,0.0,0.0,0.0,0.0,0.0,6.6795,6.6795,6.6795,6.6795,6.699,6.781,6.8669,0.0,7.0426,7.1285,7.1948,7.1987,7.1987,7.199,7.1987,7.3395,7.4533,7.4584,7.6031,0.0,0.0,0.0,0.0,0.0,0.0,0.0,0.0,0.0,0.0,0.0,8.0429,8.0937,8.1015,8.1795,8.2224,8.2302,8.2304,8.2304,8.2304,8.2304,8.2304,8.2304,8.2304,0.0,0.0,0.0,0.0,0.0,8.2304,8.2304,8.2304,8.2304,8.2304,8.2304,8.2304,8.2304,8.2304,0.0,0.0,0.0,0.0,0.0,0.0,0.0,0.0,0.0,0.0,5.6483,5.7319,5.8204,5.9011,5.9858,0.0,0.0,0.0,0.0,0.0,0.0,0.0,0.0,0.0,5.8711,5.8711,5.8711,5.8711,5.9328,5.9714,5.9907,6.0562,6.0871,6.0871,6.0871,6.0871,0.0,0.0,0.0,0.0,6.1143,6.1246,0.0,0.0,0.0,0.0,6.1666,6.1718,0.0,0.0,0.0,0.0,0.0,0.0,0.0,0.0,6.617,6.6795,6.6795,0.0,6.6795,6.6795,6.6795,6.6834,0.0,6.7771,6.8669,6.9528,7.0387,7.1206,7.187,7.1995,7.2,7.199,7.3449,7.459,7.4586,0.0,0.0,7.7187,0.0,0.0,0.0,0.0,0.0,0.0,0.0,0.0,0.0,7.957,8.0312,8.0976,8.1211,8.164,8.2304,8.2304,8.2304,8.2304,8.2304,8.2304,8.2304,8.2304,0.0,0.0,0.0,0.0,8.2304,8.2304,8.2304,8.2304,8.2304,8.2304,8.2304,8.2304,8.2304,8.2304,0.0,0.0,0.0,0.0,0.0,0.0,0.0,0.0,0.0,0.0,0.0,5.6817,5.8073,5.8608,0.0,0.0,0.0,0.0,0.0,0.0,0.0,0.0,0.0,5.8127,5.7703,5.7703,5.7703,5.7703,5.855,5.9127,5.9511,6.0396,6.0781,6.0781,6.0781,6.0781,0.0,0.0,0.0,6.0902,6.0983,0.0,0.0,0.0,0.0,0.0,6.1584,6.1657,0.0,6.1718,6.1718,6.1796,0.0,0.0,0.0,0.0,6.5585,6.6327,6.6717,6.6795,6.6795,6.6795,6.6795,6.6795,6.6795,6.7459,6.8357,6.9215,7.0079,7.0982,7.1841,7.2006,7.201,7.2006,7.3146,7.4285,0.0,0.0,7.7187,0.0,0.0,0.0,0.0,0.0,0.0,0.0,0.0,0.0,0.0,7.8711,7.9375,7.9844,8.0586,8.1406,8.2304,8.2304,8.2304,8.2304,8.2304,8.2304,8.2304,8.2304,8.2304,0.0,0.0,0.0,8.2304,8.2304,8.2304,8.2304,8.2304,8.2304,8.2304,8.2304,8.2304,8.2304,0.0,0.0,0.0,0.0,0.0,0.0,0.0,0.0,0.0,0.0,0.0,0.0,0.0,0.0,0.0,0.0,0.0,0.0,0.0,0.0,0.0,0.0,5.7896,5.755,5.683,5.6791,5.6791,5.6791,5.7665,5.8511,5.9358,6.0204,6.0666,6.0781,6.0781,6.0781,6.0781,0.0,0.0,6.0781,6.0781,0.0,0.0,0.0,0.0,0.0,0.0,0.0,0.0,6.1676,6.1718,6.1718,6.1718,0.0,0.0,0.0,0.0,0.0,6.6561,6.6798,6.6798,6.6798,6.6795,6.6795,6.6795,6.7383,6.8203,6.9176,6.9969,7.0798,7.1811,7.2016,7.1982,7.1981,7.284,0.0,7.5661,7.664,7.7187,0.0,0.0,0.0,0.0,0.0,0.0,0.0,0.0,0.0,0.0,7.789,7.8359,7.8515,8.0,8.1211,8.2109,8.2226,8.2304,8.2304,8.2304,8.2304,8.2304,8.2304,8.2304,0.0,0.0,0.0,8.2304,8.2304,8.2304,8.2304,8.2304,8.2304,8.2304,8.2304,8.2304,8.2304,0.0,0.0,0.0,0.0,0.0,0.0,0.0,0.0,0.0,0.0,0.0,0.0,0.0,0.0,0.0,0.0,0.0,0.0,0.0,0.0,0.0,5.6088,5.6088,5.6049,5.5895,5.5895,5.5895,5.5895,5.6791,5.7627,5.8511,5.9319,6.0089,6.0781,6.0781,6.0781,6.0781,6.0781,0.0,6.0781,6.0781,0.0,0.0,0.0,0.0,0.0,0.0,0.0,0.0,6.1663,6.1718,6.1718,6.1718,0.0,0.0,0.0,0.0,0.0,6.6561,6.6802,6.6807,6.6798,6.6795,6.6795,6.6795,6.688,6.7471,6.9062,6.9507,7.0102,7.1696,7.1981,7.1987,7.1981,0.0,7.4763,0.0,0.0,0.0,0.0,0.0,0.0,0.0,0.0,0.0,0.0,0.0,0.0,0.0,7.7344,7.7734,7.8476,7.9414,8.0312,8.1172,8.1914,8.2304,8.2304,8.2304,8.2304,8.2304,8.2304,8.2304,0.0,0.0,8.2304,8.2304,8.2304,8.2304,8.2304,8.2304,8.2304,8.2304,8.2304,8.2304,8.2265,0.0,0.0,0.0,0.0,0.0,0.0,0.0,0.0,0.0,0.0,0.0,0.0,0.0,0.0,0.0,0.0,0.0,0.0,0.0,0.0,5.5703,5.5703,5.5703,5.5703,5.5703,5.5703,5.5703,5.5703,5.656,5.7434,5.8319,5.9627,6.0435,6.0781,6.0781,6.0781,6.0781,6.0781,6.0781,6.0781,0.0,0.0,0.0,0.0,0.0,0.0,0.0,0.0,0.0,0.0,6.1588,6.1595,6.1671,0.0,0.0,0.0,0.0,0.0,6.6444,6.68,6.6805,6.6805,6.6848,6.6854,6.6854,6.7207,6.7873,6.9158,6.9753,7.0502,7.1787,7.1989,7.1991,7.199,0.0,7.4726,0.0,0.0,0.0,0.0,0.0,0.0,0.0,0.0,0.0,0.0,0.0,0.0,0.0,0.0,7.7383,7.7773,7.8594,7.9453,8.0273,8.1172,8.1836,8.2304,8.2304,8.2304,8.2304,8.2304,8.2304,8.2304,0.0,8.2304,8.2304,8.2304,8.2304,8.2304,8.2304,8.2304,8.2304,8.2304,8.2304,8.2304,0.0,0.0,0.0,0.0,0.0,0.0,0.0,0.0,0.0,0.0,0.0,0.0,0.0,0.0,0.0,0.0,0.0,0.0,0.0,5.5995,5.5682,5.5682,5.5703,5.5703,5.5703,5.5703,5.5703,5.5703,5.6368,5.7126,5.805,5.9511,6.0319,6.0512,6.0512,6.0589,6.0781,6.0781,6.0781,6.0781,0.0,0.0,0.0,0.0,0.0,0.0,0.0,0.0,0.0,0.0,0.0,0.0,0.0,0.0,0.0,6.3789,6.4299,6.4689,6.6327,6.68,6.6807,6.6813,6.6857,6.6862,6.6902,6.753,6.835,6.9208,7.0073,7.0975,7.1834,7.1992,0.0,7.1992,7.3281,0.0,0.0,0.0,0.0,0.0,0.0,0.0,0.0,0.0,0.0,0.0,0.0,0.0,0.0,0.0,7.7187,7.7187,7.8047,7.8906,7.9687,8.0547,8.1445,8.2304,8.2304,8.2304,8.2304,8.2304,8.2304,8.2304,8.2304,8.2304,8.2304,8.2304,8.2304,8.2304,8.2304,8.2304,8.2304,8.2304,8.2265,8.2262,0.0,0.0,0.0,0.0,0.0,0.0,0.0,0.0,0.0,0.0,0.0,0.0,0.0,0.0,0.0,0.0,0.0,0.0,0.0,5.5593,5.5626,5.5626,5.5682,5.5703,5.5703,5.5703,5.5703,5.5703,5.5742,5.6252,5.7099,5.805,5.8896,5.9588,5.9588,6.005,6.0781,6.0781,6.0781,6.0781,6.0781,0.0,0.0,0.0,0.0,0.0,0.0,0.0,0.0,0.0,0.0,0.0,0.0,0.0,6.2032,6.3789,6.4299,6.4689,6.6327,6.685,6.6902,6.6902,6.6857,6.6815,6.6901,6.7572,6.8433,6.9248,7.0075,7.0976,7.1834,7.1992,7.1992,7.1992,7.2773,0.0,0.0,0.0,0.0,0.0,0.0,0.0,0.0,0.0,0.0,0.0,0.0,0.0,0.0,0.0,0.0,7.7187,7.8047,7.8906,7.9687,8.0547,8.1445,8.2304,8.2304,8.2304,8.2304,8.2304,8.2304,8.2304,8.2304,8.2304,8.2304,8.2304,8.2304,8.2304,8.2304,8.2304,8.2304,8.2304,8.2218,8.2104,0.0,0.0,0.0,0.0,0.0,0.0,0.0,0.0,0.0,0.0,0.0,0.0,0.0,0.0,0.0,0.0,0.0,0.0,0.0,5.5237,5.5375,5.5577,5.5671,5.5703,5.5703,5.5703,5.5703,5.5703,5.6252,5.6676,5.7022,5.7896,5.8473,5.8742,5.8742,5.8934,5.9242,5.9242,5.9511,5.9973,5.9973,6.0319,0.0,0.0,0.0,0.0,0.0,0.0,0.0,0.0,6.1395,6.1509,6.1663,6.1718,6.2032,6.3789,6.4304,6.4659,6.6338,6.6856,6.6904,6.6908,6.6868,6.6868,6.6873,6.8007,6.9062,6.9334,7.0976,7.2422,7.2734,7.2383,7.1992,7.1992,7.2734,0.0,0.0,0.0,0.0,0.0,0.0,0.0,0.0,0.0,0.0,0.0,0.0,0.0,0.0,0.0,0.0,7.7187,7.7539,7.8359,7.9687,8.0039,8.0898,8.2304,8.2304,8.2304,8.2304,8.2304,8.2304,8.2304,8.2304,8.2304,8.2304,8.2304,8.2304,8.2304,8.2304,8.2304,8.2304,8.2304,8.2217,8.2098,0.0,0.0,0.0,0.0,0.0,0.0,0.0,0.0,0.0,0.0,0.0,0.0,0.0,0.0,0.0,0.0,0.0,0.0,5.4678,5.4914,5.5134,5.5387,5.5834,5.6077,5.6088,5.6395,5.6242,5.5703,5.6291,5.6599,5.6599,5.7203,5.7627,5.7896,5.7896,5.805,5.8319,5.8319,5.8781,5.9511,5.9511,6.0012,0.0,0.0,0.0,0.0,0.0,0.0,0.0,0.0,6.1322,6.1509,6.1663,6.1718,6.1993,6.3442,6.4074,6.4626,6.6034,6.6667,6.6907,6.6911,6.6912,6.6913,6.6914,6.8437,6.9883,6.9805,7.168,7.3281,7.3281,7.2578,0.0,0.0,0.0,0.0,0.0,0.0,0.0,0.0,0.0,0.0,0.0,0.0,0.0,0.0,0.0,0.0,0.0,0.0,0.0,0.0,7.7187,7.8008,7.9687,7.9687,8.0586,8.2304,8.2304,8.2304,8.2304,8.2304,8.2304,8.2304,8.2304,8.2304,8.2304,8.2304,8.2304,8.2304,8.2304,8.2304,8.2304,8.2304,8.2217,8.2095,0.0,0.0,0.0,0.0,0.0,0.0,0.0,0.0,0.0,0.0,0.0,0.0,0.0,0.0,0.0,0.0,0.0,0.0,5.43,5.4685,5.4952,5.5037,5.6217,5.6955,5.7022,5.7857,5.7434,5.5703,5.5703,5.5703,5.5703,5.5703,5.6165,5.6983,5.6983,5.7473,5.828,5.828,5.8742,5.9473,5.9473,6.0012,6.0781,0.0,0.0,0.0,0.0,0.0,0.0,0.0,6.1322,6.1547,6.1663,6.1718,6.1876,6.2748,6.3611,6.4472,6.5378,6.6244,6.6911,6.6911,6.6913,6.6914,6.6914,6.8867,7.0703,7.0742,7.2109,7.3281,7.332,7.2578,0.0,0.0,0.0,0.0,0.0,0.0,0.0,0.0,0.0,0.0,0.0,0.0,0.0,0.0,0.0,0.0,0.0,0.0,0.0,0.0,7.7187,7.8008,7.9687,7.9687,8.0586,8.2304,8.2304,8.2304,8.2304,8.2304,8.2304,8.2304,8.2304,8.2304,8.2304,8.2304,8.2304,8.2304,8.2304,8.2304,8.2304,8.2304,8.2217,8.2088,0.0,0.0,0.0,0.0,0.0,0.0,0.0,0.0,0.0,0.0,0.0,0.0,0.0,0.0,0.0,0.0,0.0,0.0,5.4708,5.5416,5.6103,5.6744,5.7156,5.7558,5.7896,5.755,5.7137,5.6599,5.6011,5.5703,5.5703,5.5703,5.5818,5.6088,5.6088,5.6242,5.6472,5.6472,5.7319,5.8665,5.8665,5.9511,6.0781,0.0,0.0,0.0,0.0,0.0,0.0,0.0,0.0,0.0,6.1686,6.1694,6.1852,6.2758,6.3623,6.4487,6.5347,6.6248,6.6914,6.6914,6.6914,6.707,6.7656,6.9297,7.1406,7.3867,7.3789,7.3476,7.4101,7.3008,0.0,0.0,0.0,0.0,0.0,0.0,0.0,0.0,0.0,0.0,0.0,0.0,0.0,0.0,0.0,0.0,0.0,0.0,0.0,0.0,7.7187,7.8008,7.9687,7.9687,8.0586,8.2304,8.2304,8.2304,8.2304,8.2304,8.2304,8.2304,8.2304,8.2304,8.2304,8.2304,8.2304,8.2304,8.2304,8.2304,8.2304,8.2304,8.2217,8.2088,0.0,0.0,0.0,0.0,0.0,0.0,0.0,0.0,0.0,0.0,5.3885,5.3812,0.0,0.0,0.0,0.0,0.0,0.0,5.5147,5.5778,5.6481,5.7232,5.7771,5.8435,5.9269,5.8127,5.7511,5.7511,5.628,5.5703,5.5703,5.5703,5.5703,5.5703,5.5703,5.5703,5.5703,5.6049,5.7011,5.8319,5.8665,5.9588,6.0781,0.0,0.0,0.0,0.0,0.0,0.0,0.0,0.0,0.0,6.1699,6.1702,6.1782,6.2336,6.3355,6.4412,6.4921,6.5976,6.6914,6.6914,6.6914,6.7383,6.9297,7.0742,7.2617,7.5781,7.5039,7.3984,7.4492,7.3164,0.0,0.0,0.0,0.0,0.0,0.0,0.0,0.0,0.0,0.0,0.0,0.0,0.0,0.0,0.0,0.0,0.0,0.0,0.0,0.0,7.7187,7.8008,7.9687,7.9687,8.0586,8.2304,8.2304,8.2304,8.2304,8.2304,8.2304,8.2304,8.2304,8.2304,8.2304,8.2304,8.2304,8.2304,8.2304,8.2304,8.2304,8.2304,8.2217,8.2088,0.0,0.0,0.0,0.0,0.0,0.0,0.0,0.0,0.0,0.0,5.495,5.4803,0.0,0.0,0.0,0.0,0.0,0.0,0.0,5.6113,5.6593,5.7092,5.8251,5.948,6.0781,5.9165,5.8319,5.8319,5.6549,5.5703,5.5703,5.5703,5.5703,5.5703,5.5703,5.5742,5.5857,5.6676,5.755,5.8473,5.9204,6.0012,6.0781,6.0804,0.0,0.0,0.0,0.0,0.0,0.0,0.0,0.0,6.1708,6.1709,6.1711,6.1716,6.2928,6.4295,6.4297,6.5586,6.6914,6.6914,6.6992,6.7969,7.125,7.2734,7.414,7.668,7.582,7.4609,7.4609,7.3164,0.0,0.0,0.0,0.0,0.0,0.0,0.0,0.0,0.0,0.0,0.0,0.0,0.0,0.0,0.0,0.0,0.0,0.0,0.0,7.7187,7.7187,7.7969,7.957,7.9648,8.0547,0.0,8.2265,8.2304,8.2304,8.2304,8.2304,8.2304,8.2304,8.2304,8.2304,8.2304,8.2304,8.2304,8.2304,8.2304,8.2304,8.2304,8.2217,8.2088,0.0,0.0,0.0,0.0,0.0,0.0,0.0,0.0,0.0,0.0,0.0,0.0,0.0,0.0,0.0,0.0,0.0,0.0,0.0,5.7481,5.8273,5.8844,5.9831,6.0505,6.0781,5.9165,5.8319,5.8319,5.6549,5.5703,5.5703,5.5703,5.5703,5.5703,5.5703,5.6088,5.6714,5.6907,5.7857,5.9281,5.9435,6.0012,6.0804,6.0913,6.0964,0.0,0.0,0.0,0.0,0.0,0.0,0.0,6.1714,6.1716,6.1716,6.1718,6.2929,6.4297,6.4297,6.5586,6.6914,6.6914,6.789,6.9414,7.1523,7.3203,7.4883,7.6797,7.582,7.4609,7.4609,0.0,0.0,0.0,0.0,0.0,0.0,0.0,0.0,0.0,0.0,0.0,0.0,0.0,0.0,0.0,0.0,0.0,0.0,0.0,0.0,7.7187,7.7187,7.7695,7.875,7.9375,8.0234,0.0,8.1953,8.2304,8.2304,8.2304,8.2304,8.2304,8.2304,8.2304,8.2304,8.2304,8.2304,8.2304,8.2304,8.2304,8.2304,8.2304,8.2217,8.2088,0.0,0.0,0.0,0.0,0.0,0.0,0.0,0.0,0.0,0.0,0.0,0.0,0.0,0.0,0.0,0.0,0.0,0.0,0.0,0.0,5.895,5.9663,6.0378,6.0781,6.0781,5.9165,5.8319,5.8319,5.6549,5.5703,5.5703,5.5703,5.5703,5.5703,5.6137,5.656,5.706,5.7857,5.8704,5.955,5.9935,6.0396,6.0816,6.0963,6.1074,6.1159,6.1412,0.0,0.0,0.0,0.0,0.0,0.0,0.0,6.1796,6.2187,6.3242,6.4375,6.4805,6.5898,6.6914,6.6914,6.8164,6.9765,7.1094,7.3047,7.4961,7.6289,7.5859,7.5078,7.4687,0.0,0.0,0.0,0.0,0.0,0.0,0.0,0.0,0.0,0.0,0.0,0.0,0.0,0.0,0.0,0.0,0.0,0.0,7.7187,7.7187,7.7187,7.7187,7.7617,7.8476,7.9297,8.0156,8.1015,8.1875,8.2304,8.2304,8.2304,8.2304,8.2304,8.2304,8.2304,8.2304,8.2304,8.2304,8.2304,8.2304,8.2304,8.2304,8.2304,8.2217,8.2088,0.0,0.0,0.0,0.0,0.0,0.0,0.0,0.0,0.0,0.0,0.0,0.0,0.0,0.0,0.0,0.0,0.0,0.0,0.0,0.0,0.0,5.9969,6.0495,6.0781,6.0781,5.9165,5.8319,5.8319,5.6549,5.5703,5.5703,5.5703,5.5703,5.5742,5.6599,5.7099,5.733,5.8858,5.9588,5.9781,6.0512,6.0816,6.0834,6.0974,6.1151,6.1367,6.1474,6.1596,6.1711,6.1716,0.0,0.0,0.0,0.0,6.1875,6.2734,6.3633,6.4492,6.5351,6.625,6.6914,6.6914,6.8164,6.9648,7.0508,7.2734,7.4844,7.5703,7.5898,7.5625,0.0,0.0,0.0,0.0,0.0,0.0,0.0,0.0,0.0,0.0,0.0,0.0,0.0,0.0,0.0,0.0,0.0,0.0,7.7187,7.7187,7.7187,7.7187,7.7187,7.7539,7.8281,7.9219,8.0078,8.0781,8.1797,8.2304,8.2304,8.2304,8.2304,8.2304,8.2304,8.2304,8.2304,8.2304,8.2304,8.2304,8.2304,8.2304,8.2304,8.2304,8.2217,8.2088,0.0,0.0,0.0,0.0,0.0,0.0,0.0,0.0,0.0,0.0,5.7923,5.7886,0.0,0.0,0.0,0.0,0.0,0.0,5.7997,0.0,0.0,5.9985,6.0495,6.0781,6.0781,5.9165,5.8319,5.8319,5.6549,5.5703,5.5703,5.5703,5.5703,5.5742,5.6599,5.7434,5.8204,5.9127,5.9935,6.0627,6.0742,6.0867,6.0983,6.1136,6.1304,6.1478,6.1632,6.1665,6.1716,6.1716,6.1718,0.0,0.0,0.0,6.1875,6.2734,6.3633,6.4492,6.5351,6.625,6.6914,6.6914,6.8203,6.9687,7.0508,7.2734,7.4844,0.0,7.5898,0.0,0.0,0.0,0.0,0.0,0.0,0.0,0.0,0.0,0.0,0.0,0.0,0.0,0.0,0.0,0.0,0.0,0.0,0.0,7.7187,7.7187,7.7187,7.7187,7.7187,7.7265,7.7383,7.8906,7.9765,7.9883,8.1523,8.2304,8.2304,8.2304,8.2304,8.2304,8.2304,8.2304,8.2304,8.2304,8.2304,8.2304,8.2304,8.2304,8.2304,8.2304,8.2217,8.2088,0.0,0.0,0.0,0.0,0.0,0.0,0.0,0.0,0.0,0.0,0.0,5.7997,0.0,0.0,0.0,5.7997,5.7997,5.8111,5.8326,5.9009,5.9597,5.9985,6.0495,6.0781,6.0781,5.9165,5.8319,5.8319,5.6549,5.5703,5.5703,5.6214,5.6445,5.6483,5.7319,5.8204,5.905,5.9858,6.0435,6.0793,6.0888,6.0935,6.1036,6.1292,6.1417,6.1527,6.1662,6.1715,6.1718,6.1718,6.1718,6.1719,6.1719,0.0,0.0,0.0,6.3984,6.4609,6.5976,6.6601,6.6914,6.6914,6.7851,6.8984,6.9805,7.1601,7.3515,7.4883,7.5547,0.0,0.0,0.0,0.0,0.0,0.0,0.0,0.0,0.0,0.0,0.0,0.0,0.0,0.0,0.0,0.0,0.0,0.0,7.7187,7.7187,7.7187,7.7187,7.7187,7.7187,7.7187,7.7187,7.8437,7.9492,8.0429,8.1719,8.2304,8.2304,8.2304,8.2304,8.2304,8.2304,8.2304,8.2304,8.2304,8.2304,8.2304,8.2304,8.2304,8.2304,8.2304,8.2264,8.2173,0.0,0.0,0.0,0.0,0.0,0.0,0.0,0.0,0.0,0.0,0.0,0.0,0.0,0.0,0.0,0.0,5.7997,5.8119,5.8434,5.9047,5.9526,5.9823,6.0456,6.0704,6.0473,5.905,5.8204,5.7973,5.6434,5.5818,5.6049,5.6714,5.7253,5.7676,5.8319,5.8934,5.955,6.0435,6.0781,6.0804,6.0935,6.1036,6.1105,6.1388,6.1527,6.1568,6.1673,6.1718,6.1719,0.0,6.1719,6.1719,6.1719,6.1719,0.0,0.0,0.0,6.5234,6.6562,6.6914,6.6914,6.6914,6.7578,6.8437,6.9258,7.0742,7.25,0.0,0.0,0.0,0.0,0.0,0.0,0.0,0.0,0.0,0.0,0.0,0.0,0.0,0.0,0.0,0.0,0.0,0.0,0.0,0.0,7.7187,7.7187,7.7187,7.7187,7.7187,7.7187,7.7187,7.7187,7.8281,7.9531,8.1015,8.1875,8.2304,8.2304,8.2304,8.2304,8.2304,8.2304,8.2304,8.2304,8.2304,8.2304,8.2304,8.2304,8.2304,8.2304,8.2304,8.2265,8.222,0.0,0.0,0.0,0.0,0.0,0.0,0.0,0.0,0.0,0.0,0.0,0.0,5.7997,5.7997,5.7997,5.7997,5.7997,5.802,5.8042,5.8894,5.9407,5.9424,6.0311,0.0,5.9588,5.8742,5.7896,5.706,5.6126,5.6126,5.6945,5.6983,5.7857,5.9358,5.9435,5.9473,5.955,6.0435,6.0781,6.0816,6.0935,6.1097,6.1285,6.1435,6.1564,6.1677,6.1716,0.0,0.0,0.0,0.0,0.0,0.0,6.1719,6.2031,0.0,0.0,0.0,6.6875,6.6914,6.6914,6.6914,6.7578,6.8437,6.9297,0.0,7.25,0.0,0.0,0.0,0.0,0.0,0.0,0.0,0.0,0.0,0.0,0.0,0.0,0.0,0.0,0.0,0.0,0.0,0.0,0.0,0.0,7.7187,7.7187,7.7187,7.7187,7.7187,7.7187,7.7187,7.7187,7.8828,8.0117,8.1015,8.1875,8.2304,8.2304,8.2304,8.2304,8.2304,8.2304,8.2304,8.2304,8.2304,8.2304,8.2304,8.2304,8.2304,8.2304,8.2304,8.2218,8.2092,0.0,0.0,0.0,0.0,0.0,0.0,0.0,0.0,0.0,0.0,0.0,0.0,0.0,5.7997,5.7997,5.7997,5.7997,5.7997,5.7997,5.8369,5.8806,5.9389,5.9265,5.9281,5.9511,5.8165,5.733,5.6983,5.6126,5.6137,5.7022,5.755,5.8434,5.9511,5.9511,5.9819,6.0358,6.0666,6.0834,6.0953,6.112,6.1304,6.1435,6.1564,6.1672,6.1718,0.0,0.0,0.0,0.0,0.0,0.0,0.0,0.0,6.289,6.4609,6.5976,6.6914,6.6914,6.6914,6.6914,6.6914,6.7148,6.7578,6.8476,6.9531,7.082,7.2578,0.0,0.0,0.0,0.0,0.0,0.0,0.0,0.0,0.0,0.0,0.0,0.0,0.0,0.0,0.0,0.0,0.0,0.0,0.0,0.0,7.7187,7.7734,7.8047,7.8047,7.8047,7.7773,7.7226,7.8867,7.9844,8.0195,8.1601,8.2304,8.2304,8.2304,8.2304,8.2304,8.2304,8.2304,8.2304,8.2304,8.2304,8.2304,8.2304,8.2304,8.2304,8.2304,8.2264,8.2215,0.0,0.0,0.0,0.0,0.0,0.0,0.0,0.0,5.7997,5.7997,0.0,0.0,0.0,0.0,5.7997,5.7997,5.7997,5.7918,5.7759,5.7978,5.8291,5.8765,5.8463,5.8396,5.8665,5.7561,5.6868,5.656,5.6291,5.6588,5.7434,5.8319,5.9127,5.9935,5.9935,6.0242,6.0781,6.0781,6.0845,6.0993,6.1204,6.1362,6.1463,6.1629,6.1718,0.0,0.0,0.0,0.0,0.0,0.0,0.0,0.0,0.0,0.0,6.5273,6.6211,6.6914,6.6914,6.6914,6.6914,6.6914,6.6914,6.7148,6.8008,6.8828,6.9883,7.164,0.0,0.0,0.0,0.0,0.0,0.0,0.0,0.0,0.0,0.0,0.0,0.0,0.0,0.0,0.0,0.0,0.0,0.0,0.0,0.0,7.7187,7.8047,7.8515,7.8515,7.8515,7.8086,7.7226,7.8594,7.9414,7.9726,8.1172,8.2031,8.2304,8.2304,8.2304,8.2304,8.2304,8.2304,8.2304,8.2304,8.2304,8.2304,8.2304,8.2304,8.2304,8.2304,8.2264,8.2217,0.0,0.0,0.0,0.0,0.0,0.0,0.0,0.0,5.7997,5.7997,0.0,0.0,0.0,0.0,0.0,5.7997,5.802,5.7796,5.7316,5.7809,5.79,5.7505,5.7952,5.7857,5.7022,5.6983,5.656,5.5742,5.6599,5.7473,5.8357,5.9127,5.9973,6.0781,6.0781,6.0781,6.0781,6.0781,6.0827,6.0927,6.1196,6.1306,6.1325,6.1629,0.0,0.0,6.2734,6.3047,0.0,6.4023,0.0,0.0,0.0,0.0,0.0,0.0,6.625,6.6914,0.0,0.0,0.0,6.6914,6.6914,6.7109,6.7969,0.0,6.9844,0.0,0.0,0.0,0.0,0.0,0.0,0.0,0.0,0.0,0.0,0.0,0.0,0.0,0.0,0.0,0.0,0.0,0.0,0.0,0.0,7.7187,7.7187,7.8047,7.8555,7.8555,7.8555,7.8125,7.7265,7.8086,7.8906,7.9726,8.0586,8.1445,8.2304,8.2304,8.2304,8.2304,8.2304,8.2304,8.2304,8.2304,8.2304,8.2304,8.2304,8.2304,8.2304,8.2304,8.2217,8.2088,0.0,0.0,0.0,0.0,0.0,5.7763,5.7774,5.7927,5.7997,0.0,0.0,0.0,5.7997,5.7997,5.7997,5.7997,5.8297,5.8148,5.7401,5.7548,5.7635,5.7592,5.6827,5.6588,5.6983,5.6368,5.6252,5.6637,5.6868,5.7742,5.9165,5.9396,5.9973,6.0781,6.0781,6.0781,6.0781,6.0781,6.0877,6.1059,6.1246,6.1393,6.1605,0.0,0.0,0.0,0.0,6.3945,6.3984,0.0,6.4297,6.4414,0.0,0.0,6.5703,0.0,0.0,6.6914,6.6914,0.0,0.0,0.0,0.0,0.0,0.0,0.0,0.0,0.0,0.0,0.0,0.0,0.0,0.0,0.0,0.0,0.0,0.0,0.0,0.0,0.0,0.0,0.0,0.0,0.0,0.0,0.0,7.6719,7.7187,7.7187,7.8594,7.9375,7.9375,7.9375,7.8984,7.8164,7.8398,7.8906,7.9726,8.0586,8.1445,8.2304,8.2304,8.2304,8.2304,8.2304,8.2304,8.2304,8.2304,8.2304,8.2304,8.2304,8.2304,8.2304,8.2304,8.2217,8.2088,0.0,0.0,0.0,5.7388,5.7559,5.7763,5.781,5.7927,5.7997,0.0,0.0,0.0,5.7997,5.7997,5.8088,5.8253,5.8439,5.8249,5.7452,5.745,5.7263,5.6779,5.6437,5.6483,5.6983,5.6857,5.7011,5.755,5.7857,5.855,5.9511,5.9858,6.0319,6.0781,6.0816,6.0816,6.0827,6.0888,6.0959,6.105,6.122,0.0,0.0,6.2767,6.3242,0.0,0.0,0.0,6.4883,6.5273,6.539,0.0,0.0,0.0,0.0,0.0,0.0,6.6914,6.6914,6.6914,6.6914,0.0,0.0,0.0,6.6914,6.7578,6.8437,0.0,0.0,0.0,0.0,0.0,0.0,0.0,0.0,0.0,0.0,0.0,0.0,0.0,0.0,0.0,0.0,0.0,0.0,7.5312,7.6484,7.7344,7.7734,7.8984,7.9687,7.9687,7.9687,7.9297,7.8515,7.8125,7.8555,7.9726,8.0195,8.1094,8.2304,8.2304,8.2304,8.2304,8.2304,8.2304,8.2304,8.2304,8.2304,8.2304,8.2304,8.2304,8.2304,8.2221,8.2166,8.2081,0.0,0.0,5.7289,5.7412,5.7534,5.7655,5.781,5.7927,5.7997,0.0,5.7997,5.7997,5.7997,5.7997,5.8164,5.8566,5.8648,5.8372,5.7597,5.7634,5.7158,5.5961,5.672,5.7137,5.7137,5.7896,5.8357,5.8434,5.9165,5.955,5.9665,6.0435,6.0793,6.0793,6.0888,6.0911,6.0922,6.0976,6.0997,6.1,6.12,6.185,0.0,0.0,6.3672,6.457,6.543,6.5742,6.5859,6.664,6.6914,0.0,0.0,0.0,0.0,0.0,6.6914,6.6914,6.6914,6.6914,6.6914,0.0,0.0,0.0,6.6874,6.7499,6.828,0.0,0.0,0.0,0.0,0.0,0.0,0.0,0.0,0.0,0.0,0.0,0.0,0.0,0.0,0.0,0.0,7.3476,7.4492,7.4609,7.6211,7.7539,7.832,7.914,7.9609,7.9687,7.9609,7.9258,7.8633,7.7695,7.8047,7.9687,7.9687,8.0625,8.2304,8.2304,8.2304,8.2304,8.2304,8.2304,8.2304,8.2304,8.2304,8.2304,8.2304,8.2304,8.2304,8.2164,8.2098,8.2027,0.0,5.751,5.7559,5.7679,5.7834,5.7927,5.795,5.7973,5.7997,5.7997,5.7997,5.7997,5.7997,5.7997,5.8164,5.8566,5.891,5.8909,5.8464,5.8751,5.8617,5.7796,5.7962,5.805,5.805,5.8204,5.8627,5.9281,5.9435,5.9858,6.055,6.0704,6.0843,6.09,6.09,6.0933,6.0976,6.1,6.0992,6.1012,6.1166,6.181,6.2795,6.3628,6.4524,6.5469,6.6328,6.664,6.668,6.6836,6.6914,6.6914,0.0,0.0,0.0,0.0,0.0,0.0,0.0,0.0,0.0,0.0,0.0,0.0,6.6777,6.6889,6.7229,0.0,0.0,0.0,0.0,0.0,0.0,0.0,0.0,0.0,0.0,0.0,0.0,0.0,0.0,0.0,0.0,7.293,7.3828,7.4531,7.6211,7.7265,7.7422,7.8281,7.9023,7.9687,7.9062,7.8984,7.9453,7.7969,7.8047,7.9687,7.9687,8.0625,8.2304,8.2304,8.2304,8.2304,8.2304,8.2304,8.2304,8.2304,8.2304,8.2304,8.2304,8.2304,8.2304,8.2264,8.211,8.1939,5.7583,5.7583,5.7631,5.7786,5.7857,5.7927,5.7997,5.7997,5.7997,5.7997,5.7997,5.7997,5.7997,5.7997,5.8253,5.885,5.9103,5.9142,5.9015,5.9191,5.8985,5.8346,5.8665,5.8896,5.8896,5.9319,5.9742,6.0165,6.0165,6.0358,6.0781,6.0781,6.0854,6.0911,6.0933,6.0987,6.1,6.106,6.1312,6.1718,6.1826,0.0,6.3457,6.4434,6.5417,6.6328,6.6758,6.6914,6.6914,6.6914,6.6914,0.0,0.0,6.6914,6.6914,0.0,6.6914,6.6914,0.0,0.0,0.0,6.6914,0.0,0.0,0.0,6.6717,6.6895,6.7633,6.9206,0.0,0.0,0.0,0.0,0.0,0.0,0.0,0.0,0.0,0.0,0.0,0.0,0.0,0.0,7.2773,7.3828,7.5156,7.6445,7.7187,7.7187,7.8047,7.8867,7.9687,7.9297,7.9297,7.9687,7.8476,7.8281,7.9101,7.9492,8.039,8.1679,8.2109,8.2304,8.2304,8.2304,8.2304,8.2304,8.2304,8.2303,8.2302,8.2304,8.2304,8.2303,8.2214,8.2062,8.1842,5.7691,5.7667,5.7655,5.7834,5.7857,5.7881,5.7973,5.7997,5.7997,5.7997,5.8088,5.8097,5.8097,5.8186,5.854,5.927,5.9325,5.9387,5.9537,5.9537,5.9331,5.8808,5.9396,5.9742,5.9742,6.0435,6.0781,6.0781,6.0781,6.0781,6.0781,6.0781,6.0816,6.0933,6.0976,6.099,6.1022,6.1254,6.1776,6.2443,0.0,6.3547,6.4315,6.5081,6.5996,6.6914,6.6914,6.6914,6.6914,6.6914,6.6914,6.6914,6.6914,6.6914,0.0,0.0,0.0,0.0,0.0,0.0,0.0,0.0,0.0,6.683,0.0,0.0,0.0,6.7603,0.0,0.0,0.0,0.0,0.0,0.0,0.0,0.0,0.0,0.0,0.0,0.0,0.0,0.0,0.0,7.293,7.414,7.5547,7.6601,7.7187,7.7187,7.7851,7.8711,7.9687,7.9531,7.9531,7.9687,7.8906,7.8515,7.8515,7.9336,8.0156,8.1015,8.1914,8.2304,8.2304,8.2304,8.2304,8.2301,8.2301,8.2299,8.2293,8.2303,8.2303,8.2297,8.2131,8.1945,8.1765,5.795,5.7881,5.7834,5.795,5.7973,5.7973,5.7997,5.7997,5.7997,5.7997,5.8304,5.8524,5.8524,5.885,5.9252,5.9673,5.9706,5.9946,6.0431,6.047,6.0456,6.0512,6.0589,6.0666,6.0666,6.0742,6.0781,6.0781,6.0781,6.0781,6.0781,6.0781,6.0877,6.0987,6.0987,6.101,6.1147,6.1921,6.2317,0.0,6.4087,6.4885,0.0,6.5289,6.597,6.6914,6.6914,6.6914,6.6914,0.0,6.6914,6.6914,0.0,6.6914,6.6914,0.0,0.0,0.0,0.0,0.0,0.0,0.0,6.6828,0.0,0.0,0.0,6.6633,6.7377,0.0,0.0,0.0,0.0,0.0,0.0,0.0,0.0,0.0,0.0,0.0,0.0,0.0,0.0,0.0,0.0,7.4531,7.4726,7.6289,7.7187,7.7187,7.7305,7.8086,7.9648,7.9023,7.8984,7.9687,7.8906,7.8515,7.8515,7.9336,8.0156,8.1015,8.1914,8.2304,8.2304,8.2304,8.2304,8.2301,8.2301,8.2299,8.2293,8.2295,8.2295,8.229,8.2074,8.1927,8.1765,5.7997,5.795,5.7927,5.7997,5.7997,5.7997,5.7997,5.7997,5.7997,5.7997,5.8348,5.8607,5.8607,5.8968,5.9361,5.9739,0.0,6.0076,0.0,0.0,6.0685,6.0781,6.0781,6.0781,6.0781,6.0781,6.0781,6.0781,6.0781,6.0781,6.0781,6.0854,6.0911,6.0997,6.099,6.1321,6.1892,6.224,6.2975,0.0,0.0,0.0,0.0,6.6023,6.6391,6.6914,6.6914,6.6914,6.6914,0.0,6.6914,0.0,0.0,0.0,0.0,0.0,0.0,0.0,0.0,0.0,0.0,0.0,0.0,0.0,0.0,0.0,6.6684,0.0,0.0,0.0,0.0,0.0,0.0,0.0,7.5187,0.0,0.0,0.0,0.0,0.0,0.0,0.0,0.0,0.0,0.0,0.0,0.0,7.668,7.7187,7.7187,7.7734,7.8984,7.914,7.914,7.8984,7.914,7.8711,7.7773,7.9062,7.9883,8.0273,8.1679,8.2303,8.2303,8.2301,8.2297,8.229,8.229,8.2283,8.2313,8.2313,8.2318,8.2279,8.2049,8.1883,8.1726,5.7997,5.7997,5.7997,5.7997,5.7997,5.7997,5.7997,5.7997,5.8042,5.8142,5.8503,5.8811,5.8929,5.9307,0.0,0.0,6.003,6.0232,0.0,0.0,6.0722,0.0,0.0,0.0,0.0,6.0781,6.0781,6.0781,6.0781,6.0781,6.0781,6.0877,6.0944,6.0997,6.1252,6.1727,6.2433,6.2897,6.3826,6.5025,6.5218,6.5768,6.6414,6.6585,6.6706,6.6833,6.6875,6.6914,6.6914,6.6914,6.6914,0.0,6.6914,0.0,0.0,0.0,0.0,0.0,6.6914,0.0,0.0,0.0,0.0,0.0,0.0,0.0,0.0,0.0,0.0,0.0,0.0,0.0,0.0,0.0,0.0,7.6051,0.0,0.0,0.0,0.0,0.0,0.0,0.0,0.0,0.0,0.0,0.0,0.0,7.7148,7.7187,7.7617,7.8476,7.9297,7.9297,7.8515,7.9297,7.8867,7.7226,7.8906,7.9687,7.9765,8.1522,8.2301,8.2301,8.2296,8.2287,8.2315,8.2315,8.2305,8.2293,8.2293,8.2299,8.226,8.2028,8.1866,8.1735,5.7997,5.7997,5.7997,5.7997,5.7997,5.7997,5.7997,5.7997,5.8142,5.8524,5.8949,0.0,0.0,0.0,0.0,0.0,0.0,6.0493,6.0572,0.0,6.0722,0.0,0.0,6.0781,0.0,0.0,6.0781,6.0781,6.0781,6.0781,6.0781,6.0877,6.0944,6.1036,6.187,6.2307,6.2511,6.4213,6.4948,6.5064,6.5837,6.6272,6.6422,0.0,6.6717,6.6727,6.6834,0.0,0.0,6.6914,6.6914,0.0,0.0,0.0,0.0,0.0,0.0,0.0,0.0,0.0,0.0,6.6914,0.0,0.0,0.0,0.0,6.7859,0.0,0.0,0.0,0.0,0.0,0.0,7.1678,0.0,0.0,0.0,0.0,0.0,0.0,0.0,0.0,0.0,0.0,0.0,0.0,0.0,0.0,7.7148,7.7187,7.7617,7.8476,7.9297,7.9297,7.8515,7.9297,7.8867,7.7226,7.8906,7.9687,7.9765,8.1522,8.2301,8.2301,8.2296,8.2287,8.2315,8.2315,8.2305,8.2293,8.2293,8.2293,8.2237,8.1843,8.182,8.192,5.7997,5.7997,5.7997,5.7997,5.7997,5.7997,5.7997,5.8231,5.8455,0.0,0.0,0.0,0.0,6.0159,6.0422,0.0,0.0,6.0597,6.0623,6.0685,0.0,0.0,0.0,6.0781,0.0,0.0,0.0,6.0781,6.0781,6.0781,6.0781,6.0922,6.1246,6.1818,6.221,6.3033,6.4174,0.0,0.0,0.0,0.0,6.6225,6.629,0.0,0.0,6.6724,6.6833,6.6914,0.0,6.6914,6.6914,6.6914,6.6914,6.6914,6.6914,6.6914,6.6914,0.0,0.0,0.0,6.6914,6.6914,0.0,0.0,0.0,0.0,0.0,0.0,0.0,0.0,0.0,0.0,7.3883,7.3806,7.5276,0.0,0.0,0.0,0.0,0.0,0.0,0.0,0.0,0.0,0.0,0.0,0.0,0.0,0.0,7.7187,7.7344,7.7617,7.8984,7.9023,7.7656,7.9023,7.8867,7.7226,7.8905,7.9686,7.9764,8.1512,8.2287,8.2287,8.2315,8.2305,8.2299,8.2299,8.2296,8.2293,8.2293,8.2293,8.228,8.1987,8.1948,8.1955,5.8186,5.8231,5.8231,5.8231,5.8326,5.8434,5.8434,5.8648,0.0,0.0,5.9485,0.0,5.9984,0.0,6.0422,0.0,6.0506,6.0585,6.0585,6.071,0.0,6.0781,6.0781,0.0,0.0,0.0,0.0,0.0,6.0781,6.0781,6.0819,6.1214,6.1692,6.2243,6.3003,6.3942,6.5025,6.5296,6.5721,0.0,0.0,6.6031,0.0,0.0,6.6165,6.6223,0.0,6.6209,6.5976,6.5976,6.6172,6.6445,6.6445,6.664,6.6914,6.6914,6.6914,6.6914,6.6914,6.6914,0.0,6.6914,6.6914,0.0,6.7027,0.0,0.0,0.0,0.0,0.0,0.0,0.0,0.0,7.4601,7.5681,7.6281,0.0,7.4816,0.0,0.0,0.0,0.0,0.0,0.0,0.0,0.0,0.0,0.0,0.0,0.0,7.7187,7.7187,7.8828,7.8906,7.7226,7.8867,7.8867,7.7226,7.8592,7.941,7.976,8.1191,8.2003,8.2313,8.2299,8.2293,8.2293,8.2293,8.2293,8.2293,8.2293,8.2293,8.2284,8.2073,8.1955,8.1912,5.8577,5.8665,5.8669,5.8669,5.8968,0.0,0.0,0.0,5.9379,0.0,5.9826,5.9969,6.0342,6.0422,6.0422,6.0384,6.0506,6.0585,6.0585,6.071,0.0,0.0,6.0781,6.0781,6.0781,0.0,0.0,0.0,0.0,6.0819,6.087,6.1803,6.2243,6.2397,6.4211,6.5025,6.5102,6.5876,6.6185,6.6185,6.6147,6.5682,6.5035,6.5162,6.5216,6.5197,6.5292,6.4909,6.4297,6.4297,6.4883,6.5586,6.5586,6.6211,6.6914,6.6914,6.6914,6.6914,6.6914,6.6914,6.6914,6.6914,0.0,0.0,0.0,0.0,6.9367,0.0,0.0,0.0,0.0,0.0,0.0,7.3993,7.5302,7.5972,0.0,0.0,0.0,0.0,0.0,0.0,0.0,0.0,0.0,0.0,0.0,0.0,0.0,0.0,7.7187,7.7187,7.8828,7.8906,7.7226,7.8867,7.8867,7.7223,7.8004,7.886,7.9713,8.0602,8.1495,8.2313,8.2299,8.2293,8.2293,8.2293,8.2293,8.2293,8.2293,8.2293,8.2284,8.2078,8.1873,8.1779,5.9605,5.9496,5.9502,0.0,5.9343,5.9215,0.0,0.0,0.0,0.0,6.0068,6.0285,6.0408,6.0422,6.0436,6.0491,6.0533,0.0,0.0,0.0,0.0,6.0781,6.0781,6.0781,6.0781,6.0781,0.0,6.0781,0.0,6.1127,6.1755,6.2073,6.2899,6.4172,6.4752,6.5334,6.5915,6.6108,6.6185,6.6147,6.5528,6.518,0.0,0.0,6.3825,6.3453,6.4278,6.4452,6.4297,6.4297,6.4883,6.5586,6.5586,6.6211,6.6914,6.6914,6.6914,6.6914,6.6914,6.6914,6.6914,6.6914,6.7383,6.7888,0.0,0.0,0.0,0.0,0.0,0.0,0.0,0.0,0.0,0.0,0.0,0.0,0.0,0.0,0.0,0.0,0.0,0.0,0.0,0.0,0.0,0.0,0.0,0.0,0.0,0.0,0.0,7.7187,7.8828,7.8906,7.7226,7.8866,7.8865,7.7223,7.8033,7.8846,7.9742,8.059,8.148,8.2299,8.2293,8.2293,8.2293,8.2293,8.2293,8.2293,8.2293,8.2293,8.229,8.2234,8.2171,8.2157,6.0959,0.0,0.0,6.1172,0.0,0.0,5.982,0.0,0.0,6.0068,6.027,0.0,6.0422,6.045,6.0477,6.0518,6.0572,0.0,6.0697,0.0,0.0,6.0781,6.0781,6.0781,6.0781,6.0781,0.0,6.0781,0.0,6.1639,6.2139,6.2959,6.3863,6.4828,6.5294,6.576,6.6185,6.6185,6.5992,6.5644,6.518,0.0,0.0,6.3447,6.283,6.2215,6.2921,6.3164,6.3164,6.3164,6.3984,6.5039,6.5039,6.5898,6.6914,6.6914,6.6914,6.6914,6.6914,6.7187,6.7461,6.7461,6.8125,6.8826,6.9071,6.9918,7.0687,0.0,0.0,0.0,0.0,0.0,0.0,0.0,0.0,0.0,0.0,0.0,0.0,0.0,0.0,0.0,0.0,0.0,0.0,0.0,0.0,0.0,0.0,0.0,0.0,7.7187,7.8828,7.8906,7.7226,7.8865,7.8823,7.7177,7.7636,7.8291,7.9145,8.0032,8.0927,8.1747,8.2137,8.2293,8.2293,8.2293,8.2293,8.2293,8.2293,8.2293,8.2293,8.2293,8.2293,8.2293,6.2496,0.0,0.0,0.0,0.0,0.0,0.0,6.0714,0.0,6.0714,0.0,6.0561,6.0561,6.0516,6.048,6.0493,0.0,6.0697,6.071,6.0757,6.0781,6.0781,6.0781,6.0781,6.0781,6.0896,0.0,0.0,0.0,6.2332,6.2447,6.4078,6.4867,6.4982,6.5835,6.6185,6.6185,6.6108,6.5644,6.4986,6.4754,6.3748,6.2393,6.2504,6.206,6.1435,6.1746,6.1797,6.1719,6.1836,6.2969,6.4336,6.4414,6.5586,6.6914,6.6914,6.6914,6.6914,6.7031,6.7617,6.8242,6.8359,6.9023,6.9843,7.0483,7.0709,7.0982,7.1685,7.1796,7.1788,0.0,0.0,0.0,0.0,0.0,0.0,0.0,0.0,0.0,0.0,0.0,0.0,0.0,0.0,0.0,0.0,0.0,0.0,0.0,0.0,0.0,7.7187,7.8828,0.0,7.7223,0.0,7.8817,7.7083,7.7081,7.7544,7.8429,7.917,8.0068,8.1044,8.1786,8.2176,8.2293,8.2293,8.2293,8.2293,8.2293,8.2293,8.2293,8.2293,8.2293,8.2293,6.3901,0.0,0.0,0.0,0.0,6.2815,6.251,6.2471,6.2471,6.2471,6.186,6.1402,6.1402,6.086,6.0506,6.0597,6.0648,0.0,0.0,0.0,0.0,6.0781,6.0781,6.0781,6.0781,6.1512,6.187,0.0,0.0,6.3474,6.4166,6.4617,6.5164,6.5781,6.6095,6.6185,6.6147,6.5489,0.0,6.487,6.3439,6.2665,6.2336,6.1779,6.149,6.1504,6.2376,6.2257,6.1797,6.2539,6.3437,6.4414,6.5156,6.6094,6.6914,6.6914,6.6914,6.707,6.7773,6.8086,6.8359,6.9101,6.9883,7.0508,7.0663,7.1248,7.1795,7.1951,7.1949,7.1906,7.185,0.0,0.0,0.0,0.0,0.0,0.0,0.0,0.0,0.0,0.0,0.0,0.0,0.0,0.0,0.0,0.0,0.0,0.0,0.0,0.0,0.0,7.8827,0.0,0.0,0.0,7.8844,7.7083,7.7112,7.7573,7.839,7.8546,7.9483,8.1005,8.1161,8.163,8.2293,8.2293,8.2293,8.2293,8.2293,8.2293,8.2293,8.2293,8.2293,8.2293,0.0,0.0,0.0,0.0,0.0,0.0,0.0,6.4307,0.0,6.3064,6.2605,6.2366,6.2355,6.2079,6.1914,6.194,6.2003,6.2053,6.2089,6.2089,6.2089,6.2089,6.2089,0.0,6.2089,6.2512,6.2704,6.2704,0.0,0.0,6.4589,6.5145,6.5627,6.6013,6.6134,6.6185,0.0,0.0,0.0,6.4909,6.4097,6.3478,6.3051,6.2807,6.273,6.2834,6.3412,6.3396,6.3125,6.3515,6.4258,6.5039,6.5469,6.6211,6.6914,6.6914,6.7226,6.7656,6.8086,6.8828,6.9609,7.0039,7.0742,7.1367,7.1367,7.1719,7.1992,7.1992,7.1992,7.1992,7.1907,7.1828,0.0,0.0,0.0,0.0,0.0,0.0,0.0,0.0,0.0,0.0,0.0,0.0,0.0,0.0,0.0,0.0,0.0,0.0,0.0,0.0,0.0,0.0,0.0,0.0,0.0,7.7112,7.7104,7.7335,7.7726,7.8194,7.8858,7.9717,8.0615,8.1239,8.1669,8.2098,8.2293,8.2293,8.2293,8.2293,8.2293,8.2293,8.2293,8.2293,0.0,6.5566,0.0,0.0,6.5566,0.0,6.5594,6.5594,6.512,6.3723,6.3417,6.3329,6.3384,6.3258,6.3182,6.3182,6.3245,6.3308,6.3308,6.3308,6.3308,6.3308,6.3308,6.3308,6.3308,6.3462,6.3589,0.0,0.0,0.0,0.0,6.5589,6.6063,6.6084,0.0,0.0,0.0,0.0,6.5624,6.5041,6.4847,6.4382,6.3796,6.3959,6.4038,6.4072,6.4401,6.453,6.4609,6.4805,6.5195,6.5625,6.582,6.6367,6.6953,6.7109,6.7656,6.8281,6.8633,6.9687,7.0742,7.0937,7.1484,7.1992,7.1992,7.1992,7.1992,7.1992,7.1992,7.1992,7.1992,7.1906,0.0,0.0,0.0,0.0,0.0,0.0,0.0,0.0,0.0,0.0,0.0,0.0,0.0,0.0,0.0,0.0,0.0,0.0,0.0,0.0,0.0,7.7962,7.7099,0.0,7.7974,0.0,7.7101,7.7101,7.7101,7.7804,7.8233,7.8507,8.0068,8.0927,8.1317,8.202,8.2293,8.2293,8.2293,8.2293,8.2293,8.2293,8.2293,8.2293,0.0,0.0,0.0,0.0,0.0,0.0,6.5594,6.5594,6.5556,6.5402,6.4712,6.4266,6.4266,6.3642,6.3182,6.3182,6.3245,6.3308,6.3308,6.3308,6.3308,6.3308,6.3308,6.3308,6.3308,6.4089,6.4474,0.0,0.0,0.0,0.0,0.0,0.0,0.0,0.0,0.0,0.0,6.5553,6.5213,6.5205,6.4393,6.4042,6.3969,6.3989,6.4084,6.4294,6.5048,6.5382,6.5586,6.6406,6.6172,6.5742,6.6523,6.6836,6.707,6.7851,6.8125,6.8515,7.0039,7.0586,7.0898,7.168,7.1953,7.1992,7.1992,7.1992,7.1992,7.1992,7.1992,7.1992,7.1992,7.1992,7.1992,0.0,0.0,0.0,0.0,0.0,0.0,0.0,0.0,0.0,0.0,0.0,0.0,0.0,0.0,0.0,0.0,0.0,0.0,7.7148,0.0,7.7996,7.7099,7.7976,0.0,7.7101,7.7101,7.7101,7.7101,7.7179,7.7648,7.8468,7.9405,8.0732,8.2176,8.2254,8.2293,8.2293,8.2293,8.2293,8.2293,8.2293,8.2293,8.2293,0.0,0.0,0.0,0.0,0.0,0.0,0.0,6.5781,6.5781,6.5781,6.5473,6.5268,6.532,6.5,6.4821,6.4821,6.4846,6.4859,6.4859,6.4859,6.4859,6.4859,6.4859,6.4859,6.4859,6.5205,6.5397,0.0,0.0,0.0,0.0,0.0,0.0,0.0,0.0,6.6522,6.6483,6.6133,6.6046,6.605,6.5699,6.5548,6.5553,6.5613,6.5647,6.5748,6.6162,6.6326,6.6445,6.6797,6.668,6.6523,6.7422,6.7695,6.7851,6.8711,6.9336,6.9844,7.0508,7.1094,7.1562,7.1914,7.1992,7.1992,7.1992,7.1992,7.1992,7.1992,7.1992,7.1992,7.1992,7.1992,7.1992,0.0,0.0,0.0,0.0,0.0,0.0,0.0,0.0,0.0,0.0,0.0,0.0,0.0,0.0,0.0,0.0,0.0,0.0,7.6366,0.0,7.744,7.7091,7.7464,7.7453,7.7101,7.7101,7.7101,7.7101,7.7101,7.757,7.8468,7.9326,8.0381,8.1552,8.2098,8.2293,8.2293,8.2293,8.2293,8.2293,8.2293,8.2293,8.2293,6.5833,0.0,6.5885,0.0,6.5872,6.5897,6.5897,6.5897,6.5897,6.5897,6.5859,6.5846,6.5897,6.5897,6.5897,6.5897,6.5897,6.5897,6.5897,6.5897,6.5897,6.5897,6.5897,0.0,6.5897,6.5897,6.5897,6.5897,6.5897,0.0,0.0,0.0,0.0,0.0,6.6605,6.6638,6.6638,6.6638,6.6654,6.6674,6.6674,6.6674,6.6681,6.6727,6.6777,6.6781,6.6874,6.6914,6.6914,6.6914,6.6914,6.6992,6.7617,6.7812,6.8008,6.8867,6.9531,7.0039,7.0234,7.0937,7.1601,7.1601,7.1797,7.1992,7.1992,7.1992,7.1992,7.1992,7.1992,7.1992,7.1992,7.1992,7.1992,7.1992,0.0,0.0,0.0,0.0,0.0,0.0,0.0,7.1992,7.1992,0.0,0.0,0.0,0.0,0.0,0.0,0.0,0.0,0.0,0.0,0.0,0.0,7.711,7.7101,7.7101,7.7101,7.7101,7.7101,7.7101,7.757,7.8468,7.9326,8.0185,8.1083,8.1942,8.2293,8.2293,8.2293,8.2293,8.2293,8.2293,8.2293,8.2293,6.5897,6.5897,6.5897,6.5897,6.5897,6.5897,6.5897,6.5897,6.5897,6.5897,6.5897,6.5897,6.5897,6.5897,6.5897,6.5897,6.5897,6.5897,6.5897,6.5897,6.5897,0.0,0.0,6.5897,6.5897,6.5897,6.5897,6.5897,0.0,0.0,6.4912,0.0,6.5861,6.6717,6.6717,6.6717,6.6717,6.6717,6.6781,6.6914,6.6914,6.6914,6.6914,6.6914,6.6914,6.6914,6.6914,6.6914,6.6914,6.6914,6.6914,6.6914,6.6914,6.6914,6.7109,6.7969,6.8203,6.8398,6.9219,7.0039,7.0703,7.0703,7.1367,7.1992,7.1992,7.1992,7.1992,7.1992,7.1992,7.1992,7.1992,7.1992,7.1992,7.1992,0.0,0.0,0.0,0.0,0.0,0.0,7.1992,7.1992,7.1992,0.0,0.0,0.0,0.0,0.0,0.0,0.0,0.0,7.5856,7.6665,0.0,7.7083,7.711,7.7101,7.7101,7.7101,7.7101,7.7101,7.7101,7.757,7.8468,7.9326,8.0185,8.1083,8.1942,8.2293,8.2293,8.2293,8.2293,8.2293,8.2293,8.2293,8.2293,6.5897,6.5897,6.5897,6.5897,6.5897,6.5897,6.5897,6.5897,6.5897,6.5897,6.5897,6.5897,6.5897,6.5897,6.5897,0.0,6.5897,6.5897,0.0,6.5897,6.5897,6.5897,6.5897,6.5897,6.5897,6.5897,6.5897,6.5897,0.0,0.0,0.0,6.6285,6.6512,6.668,6.6787,6.6832,6.6832,6.6832,6.6873,6.6914,6.6914,6.6914,6.6914,6.6914,6.6914,6.6914,6.6914,6.6914,6.6914,6.6914,6.6914,6.6914,6.6914,6.7305,6.7969,6.8789,6.9062,6.914,6.9336,6.9648,6.9883,6.9883,7.0508,7.1094,7.1094,7.1562,7.1992,7.1992,7.1992,7.1992,7.1992,7.1992,7.1992,7.1992,7.1992,0.0,0.0,0.0,0.0,0.0,7.1992,7.1992,0.0,7.1992,0.0,0.0,0.0,0.0,0.0,0.0,0.0,0.0,7.6375,0.0,7.711,7.7104,7.7101,7.7101,7.7101,7.7101,7.7101,7.7101,7.7257,7.757,7.8429,7.9326,8.0185,8.1044,8.1747,8.2293,8.2293,8.2293,8.2293,8.2293,8.2293,8.2293,6.5897,6.5897,6.5897,6.5897,6.5897,6.5897,6.5897,6.5897,6.5897,6.5897,6.5897,6.5897,6.5897,6.5897,0.0,6.5897,6.5897,6.5897,6.5897,6.5897,6.5897,6.5897,6.5897,6.5897,6.5897,0.0,0.0,6.5967,6.6191,6.6374,6.6541,6.6782,6.6873,6.6782,6.6873,6.6914,6.6914,6.6914,6.6914,6.6914,6.6914,6.6914,6.6914,6.6914,6.6914,6.6914,6.6914,6.6914,6.6914,6.6914,6.6914,6.6914,6.6914,6.7265,6.7812,6.832,6.8476,6.8515,6.8476,6.8711,6.9101,6.9414,7.0117,7.0781,7.1094,7.1601,7.1992,7.1992,7.1992,7.1992,7.1992,7.1992,7.1992,7.1992,7.1992,7.1992,7.1992,0.0,0.0,0.0,0.0,0.0,0.0,7.1992,0.0,0.0,0.0,0.0,0.0,0.0,0.0,7.5052,7.6368,0.0,7.7101,7.7101,7.7101,7.7101,7.7101,7.7101,7.7101,7.7101,7.7101,7.714,7.8038,7.8897,7.9756,8.0654,8.1513,8.2293,8.2293,8.2293,8.2293,8.2293,8.2293,8.2293,6.5974,6.5974,0.0,0.0,6.5897,0.0,6.5897,6.5897,6.5897,6.5897,6.5897,6.5897,6.5897,6.5897,6.5897,6.5897,0.0,0.0,0.0,6.5897,6.5897,6.5897,6.5897,6.591,6.5923,6.6041,6.6128,6.6119,6.6435,6.6603,6.6625,6.6791,6.6914,6.6914,6.6914,6.6914,6.6914,6.6914,6.6914,6.6914,6.6914,6.6914,6.6914,6.6914,6.6914,6.6914,6.6914,6.6914,6.6914,6.6914,6.6914,6.6914,6.6914,6.6914,6.6914,6.6914,6.6914,6.6914,6.6914,6.7539,6.8398,6.9219,7.0078,7.0937,7.1797,7.1992,7.1992,7.1992,7.1992,7.1992,7.1992,7.1992,7.1992,7.1992,7.1992,7.1992,7.1992,0.0,0.0,0.0,0.0,0.0,0.0,7.2031,7.2109,0.0,0.0,0.0,0.0,0.0,7.5023,7.5792,7.6638,7.7101,7.7101,7.7101,7.7101,7.7101,7.7101,7.7101,7.7101,7.7101,7.7101,7.714,7.796,7.8858,7.9756,8.0576,8.1474,8.2293,8.2293,8.2293,8.2293,8.2293,8.2293,8.2293,0.0,0.0,6.6628,6.6013,6.5897,6.5897,6.5897,6.5897,6.5897,6.5897,6.5897,6.5897,6.5897,6.5897,6.5897,6.5897,6.5897,6.5897,6.5897,6.5897,6.5897,6.5897,6.5897,6.5958,6.6063,6.6077,6.6217,6.6463,6.6541,6.668,6.6833,6.6874,6.6914,6.6914,6.6914,6.6914,6.6914,6.6914,6.6914,6.6914,6.6914,6.6914,6.6914,6.6914,6.6914,6.6914,6.6914,6.6914,6.6914,6.6914,6.6914,6.6914,6.6914,6.6914,6.6914,6.6914,6.6914,6.6914,6.6914,6.7539,6.8242,6.8476,6.9609,7.0937,7.1797,7.1992,7.1992,7.1992,7.1992,7.1992,7.1992,7.1992,7.1992,7.1992,7.1992,7.1992,7.1992,7.1992,0.0,0.0,7.1992,7.1992,7.1992,7.2617,7.3008,0.0,0.0,0.0,0.0,7.5496,7.5646,7.5782,7.6636,7.7101,7.7101,7.7101,7.7101,7.7101,7.7101,7.7101,7.7101,7.7101,7.7101,7.7101,7.7335,7.8272,7.9717,7.9912,8.0927,8.2293,8.2293,8.2293,8.2293,8.2293,8.2293,8.2293,6.7705,6.7705,6.7552,6.7128,6.7051,6.7051,6.7051,6.6705,6.6436,6.6436,6.6128,6.5897,6.5897,6.5897,6.5897,6.5897,6.5897,6.5897,6.5897,6.597,6.6001,6.6001,6.6063,6.6138,6.6203,6.6267,6.6462,6.6722,6.6729,6.6785,6.6914,6.6914,6.6914,6.6914,6.6914,6.6914,6.6914,6.6914,6.6914,6.6914,6.6914,6.6914,6.6914,6.6914,6.6914,6.6914,6.6914,6.6914,6.6914,6.6914,6.6914,6.6914,6.6914,6.6914,6.6914,6.6914,6.6914,6.6992,6.7383,6.7851,6.8398,6.914,7.0312,7.1406,7.1875,7.1992,7.1992,7.1992,7.1992,7.1992,7.1992,7.1992,7.1992,7.1992,7.1992,7.1992,7.1992,7.1992,0.0,7.1992,7.2344,7.2578,7.2578,7.3398,7.3906,7.3906,0.0,0.0,7.5888,7.6238,7.6425,7.6401,7.6867,7.7101,7.7101,7.7101,7.7101,7.7101,7.7101,7.7101,7.7101,7.7101,7.7101,7.7101,7.7101,7.8077,7.9717,7.9717,8.0732,8.2293,8.2293,8.2293,8.2293,8.2293,8.2293,8.2293,6.859,6.859,6.8552,6.8436,6.8385,6.8385,6.8385,6.7782,6.7282,6.7282,6.6705,6.6244,6.609,6.609,6.6038,6.596,6.5921,6.5921,6.5921,6.6041,6.6118,6.6119,6.6234,6.6322,6.6358,6.6522,6.6745,6.6911,6.6912,6.6913,6.6914,6.6914,6.6914,6.6914,6.6914,6.6914,6.6914,6.6914,6.6914,6.6914,6.6914,6.6914,6.6914,6.6914,6.6914,6.6914,6.6914,6.6914,6.6914,6.6914,6.6914,6.6914,6.6914,6.6914,6.6914,6.707,6.7109,6.7265,6.8008,6.8398,6.8945,7.0508,7.1445,7.1992,7.1992,7.1992,7.1992,7.1992,7.1992,7.1992,7.1992,7.1992,7.1992,7.1992,7.1992,7.1992,7.1992,0.0,7.2187,7.2187,7.2969,7.3515,7.3515,7.4297,7.4805,7.4805,7.5586,7.6092,0.0,7.6746,7.7089,7.7101,7.7101,7.7101,7.7101,7.7101,7.7101,7.7101,7.7101,7.7101,7.7101,7.7101,7.7101,7.7101,7.7101,7.7999,7.9522,7.9639,8.0654,8.2137,8.2254,8.2293,8.2293,8.2293,8.2293,8.2293,6.9513,6.9513,6.9283,6.8552,6.8385,6.8385,6.8385,6.8282,6.8205,6.8205,6.809,6.7744,6.6974,6.6898,6.6677,6.6112,6.6056,6.6056,6.6056,6.6088,6.6148,6.6267,6.6299,6.6386,6.6561,6.6756,6.6868,6.6911,6.6913,6.6914,6.6914,6.6914,6.6914,6.6914,6.6914,6.6914,6.6914,6.6914,6.6914,6.6914,6.6914,6.6914,6.6914,6.6914,6.6914,6.6914,6.6914,6.6914,6.6914,6.6914,6.6914,6.6914,6.6914,6.6914,6.7031,6.7773,6.8008,6.8047,6.8164,6.9219,7.0547,7.1562,7.1914,7.1992,7.1992,7.1992,7.1992,7.1992,7.1992,7.1992,7.1992,7.1992,7.1992,7.1992,7.1992,7.1992,7.1992,0.0,7.3086,7.3086,7.3867,7.4414,7.4414,7.5195,7.5703,7.5703,7.6523,7.6987,7.6904,7.7013,7.712,7.7101,7.7101,7.7101,7.7101,7.7101,7.7101,7.7101,7.7101,7.7101,7.7101,7.7101,7.7101,7.7101,7.7101,7.7687,7.8663,7.9405,8.0302,8.1278,8.202,8.2293,8.2293,8.2293,8.2293,8.2293,7.036,7.036,7.0206,6.9821,6.9744,6.9744,6.9744,6.9398,6.909,6.909,6.8706,6.8244,6.7859,6.7921,6.7663,6.6871,6.6873,6.6747,6.64,6.6368,6.6397,6.6465,6.6551,6.6623,6.6759,6.6865,6.6912,6.6913,6.6914,6.6914,6.6914,6.6914,6.6914,6.6914,6.6914,6.6914,6.6914,6.6914,6.6914,6.6914,6.6914,6.6914,6.6914,6.6914,6.6914,6.6914,6.6914,6.6914,6.6914,6.6914,6.6914,6.6914,6.6914,6.7226,6.7695,6.8086,6.8828,6.9531,6.9531,7.0469,7.1484,7.1914,7.1992,7.1992,7.1992,7.1992,7.1992,7.1992,7.1992,7.1992,7.1992,7.1992,7.1992,7.1992,7.1992,0.0,0.0,7.3047,7.3476,7.3945,7.4765,7.5312,7.5312,7.6094,7.6601,7.6601,7.6952,7.7183,7.7099,7.7089,7.7117,7.7101,7.7101,7.7101,7.7101,7.7101,7.7101,7.7101,7.7101,7.7101,7.7101,7.7101,7.7101,7.7101,7.7101,7.7609,7.8468,7.9326,8.0224,8.1083,8.1942,8.2293,8.2293,8.2293,8.2293,8.2293,7.0898,7.0898,7.0898,7.0898,7.0898,7.0898,7.0898,7.0413,7.0054,6.9988,6.9451,6.895,6.8758,6.8899,6.8674,6.787,6.7907,6.769,6.6984,6.6954,6.6876,6.6677,6.6753,6.6863,6.6911,6.6912,6.6913,6.6914,6.6914,6.6914,6.6914,6.6914,6.6914,6.6914,6.6914,6.6914,6.6914,6.6914,6.6914,6.6914,6.6914,6.6914,6.6914,6.6914,6.6914,6.6914,6.6914,6.6914,6.6914,6.6914,6.6914,6.6953,6.7148,6.7656,6.8281,6.8672,6.9844,7.1015,7.1015,7.1484,7.1992,7.1992,7.1992,7.1992,7.1992,7.1992,7.1992,7.1992,7.1992,7.1992,7.1992,7.1992,7.1992,7.1992,0.0,0.0,0.0,7.3633,7.414,7.4805,7.5664,7.6211,7.6211,7.6797,7.7187,7.7187,7.7185,7.7142,7.7096,7.7085,7.7112,7.7101,7.7101,7.7101,7.7101,7.7101,7.7101,7.7101,7.7101,7.7101,7.7101,7.7101,7.7101,7.7101,7.7101,7.7492,7.8194,7.9248,8.0107,8.081,8.1864,8.2293,8.2293,8.2293,8.2293,8.2293,7.0898,7.0898,7.0898,7.0898,7.0898,7.0898,7.0898,7.1002,7.1035,7.0862,7.0925,7.0689,6.9877,6.9811,6.9604,6.9089,6.9065,6.8769,6.8054,6.7988,6.7637,6.6807,6.6865,6.6872,6.6911,6.6914,6.6914,6.6914,6.6914,6.6914,6.6914,6.6914,6.6914,6.6914,6.6914,6.6914,6.6914,6.6914,6.6914,6.6914,6.6914,6.6914,6.6914,6.6914,6.6914,6.6914,6.6914,6.6914,6.6914,6.6914,6.6914,6.7031,6.7851,6.8164,6.8515,7.0078,7.1172,7.1914,7.1914,7.1953,7.1992,7.1992,7.1992,7.1992,7.1992,7.1992,7.1992,7.1992,7.1992,7.1992,7.1992,7.1992,7.1992,7.1992,0.0,0.0,7.3281,7.4687,7.5742,7.5781,7.6562,7.7109,7.7109,7.7148,7.7187,7.7185,7.7142,7.7096,7.7085,7.7112,7.7101,7.7101,7.7101,7.7101,7.7101,7.7101,7.7101,7.7101,7.7101,7.7101,7.7101,7.7101,7.7101,7.7101,7.7101,7.714,7.7335,7.9014,7.9756,7.9951,8.163,8.2293,8.2293,8.2293,8.2293,8.2293,7.0898,7.0898,7.0898,7.0898,7.1005,7.1077,7.1077,7.1239,7.1349,7.127,7.1329,7.126,7.0911,7.0961,7.0733,7.0006,7.0047,6.954,6.8187,6.8156,6.7767,6.6906,6.6871,6.6912,6.6914,6.6914,6.6914,6.6914,6.6914,6.6914,6.6914,6.6914,6.6914,6.6914,6.6914,6.6914,6.6914,6.6914,6.6914,6.6914,6.6914,6.6914,6.6914,6.6914,6.6914,6.6914,6.6914,6.6914,6.6992,6.7539,6.7695,6.7851,6.8672,6.9336,6.9961,7.1172,7.1758,7.1992,7.1992,7.1992,7.1992,7.1992,7.1992,7.1992,7.1992,7.1992,7.1992,7.1992,7.1992,7.1992,7.1992,7.1992,7.2187,7.2734,0.0,7.3672,7.4765,7.5469,7.6094,7.664,7.6992,7.7187,7.7187,7.7187,7.7187,7.7187,7.7143,7.7097,7.7094,7.7115,7.7101,7.7101,7.7101,7.7101,7.7101,7.7101,7.7101,7.7101,7.7101,7.7101,7.7101,7.7101,7.7101,7.7101,7.7101,7.7101,7.7257,7.8975,7.9717,7.9873,8.163,8.2293,8.2293,8.2293,8.2293,8.2293,7.0898,7.0898,7.0925,7.0979,7.1101,7.1197,7.127,7.1448,7.1544,7.1528,7.1536,7.158,7.158,7.165,7.1491,7.0934,7.1028,7.0461,6.9016,6.8473,6.7811,6.6952,6.6912,6.6913,6.6914,6.6914,6.6914,6.6914,6.6914,6.6914,6.6914,6.6914,6.6914,6.6914,6.6914,6.6914,6.6914,6.6914,6.6914,6.6914,6.6914,6.6914,6.6914,6.6914,6.6914,6.6953,6.7226,6.7305,6.7422,6.8281,6.8594,6.8711,6.9531,7.039,7.1211,7.1836,7.1992,7.1992,7.1992,7.1992,7.1992,7.1992,7.1992,7.1992,7.1992,7.1992,7.1992,7.1992,7.1992,7.1992,7.1992,7.1992,7.2305,7.3164,7.3515,7.4219,7.5703,7.6133,7.6523,7.7148,7.7187,7.7187,7.7187,7.7187,7.7187,7.7187,7.7143,7.7096,7.7091,7.7112,7.7101,7.7101,7.7101,7.7101,7.7101,7.7101,7.7101,7.7101,7.7101,7.7101,7.7101,7.7101,7.7101,7.7101,7.7101,7.7101,7.7257,7.8975,7.9717,7.9873,8.163,8.2293,8.2293,8.2293,8.2293,8.2293,7.0898,7.0898,7.0953,7.117,7.1214,7.126,7.1456,7.1621,7.1659,7.1513,7.1614,7.1702,7.1702,7.1686,7.1767,7.1978,7.1987,7.1638,7.0778,6.914,6.7812,6.6953,6.6914,6.6914,6.6914,6.6914,6.6914,6.6914,6.6914,6.6914,6.6914,6.6914,6.6914,6.6914,6.6914,6.6914,6.6914,6.6914,6.6914,6.6914,6.6914,6.6914,6.6914,6.6914,6.6914,6.7031,6.789,6.8203,6.832,6.914,6.9414,6.957,7.043,7.1289,7.1992,7.1992,7.1992,7.1992,7.1992,7.1992,7.1992,7.1992,7.1992,7.1992,7.1992,7.1992,7.1992,7.1992,7.1992,7.1992,7.1992,7.1992,7.2305,7.3164,7.4023,7.4922,7.5781,7.664,7.7187,7.7187,7.7187,7.7187,7.7187,7.7187,7.7187,7.7184,7.7141,7.7091,7.7104,7.7101,7.7101,7.7101,7.7101,7.7101,7.7101,7.7101,7.7101,7.7101,7.7101,7.7101,7.7101,7.7101,7.7101,7.7101,7.7101,7.7101,7.7218,7.8975,7.9678,7.9873,8.163,8.2293,8.2293,8.2293,8.2293,8.2293,7.0898,7.0898,7.0953,7.117,7.131,7.1465,7.1621,7.1798,7.1891,7.1866,7.1901,7.1919,7.1919,7.1891,7.1941,7.1987,7.1991,7.164,7.0742,6.914,6.8086,6.7812,6.7226,6.6914,6.6914,6.6914,6.6914,6.6914,6.6914,6.6914,6.6914,6.6914,6.6914,6.6914,6.6914,6.6914,6.6914,6.6914,6.6914,6.6914,6.6914,6.6914,6.6914,6.6914,6.7265,6.7851,6.8125,6.8594,6.9258,7.0039,7.0312,7.0469,7.1328,7.1797,7.1992,7.1992,7.1992,7.1992,7.1992,7.1992,7.1992,7.1992,7.1992,7.1992,7.1992,7.1992,7.1992,7.1992,7.1992,7.1992,7.1992,7.1992,7.25,7.3984,7.4414,7.5117,7.6601,7.7031,7.7187,7.7187,7.7187,7.7187,7.7187,7.7187,7.7187,7.7184,7.7137,7.7083,7.7101,7.7101,7.7101,7.7101,7.7101,7.7101,7.7101,7.7101,7.7101,7.7101,7.7101,7.7101,7.7101,7.7101,7.7101,7.7101,7.7101,7.7101,7.7179,7.8311,7.9131,7.9795,8.0966,8.1747,8.2293,8.2293,8.2293,8.2293,7.0898,7.0898,7.0992,7.126,7.1413,7.1566,7.1794,7.1903,7.2008,7.2012,7.1981,7.1985,7.1985,7.1989,7.1991,7.1991,7.1992,7.164,7.0742,6.9765,6.8906,6.8242,6.7695,6.7265,6.6914,6.6914,6.6914,6.6914,6.6914,6.6914,6.6914,6.6914,6.6914,6.6914,6.6914,6.6914,6.6914,6.6914,6.6914,6.6914,6.6914,6.6914,6.6953,6.7265,6.7734,6.8281,6.8945,6.9531,7.0117,7.0937,7.1211,7.1328,7.1836,7.1992,7.1992,7.1992,7.1992,7.1992,7.1992,7.1992,7.1992,7.1992,7.1992,7.1992,7.1992,7.1992,7.1992,7.1992,7.1992,7.1992,7.1992,7.1992,7.2578,7.4336,7.4609,7.5195,7.6953,7.7187,7.7187,7.7187,7.7187,7.7187,7.7187,7.7187,7.7187,7.7143,7.7132,7.7117,7.7101,7.7101,7.7101,7.7101,7.7101,7.7101,7.7101,7.7101,7.7101,7.7101,7.7101,7.7101,7.7101,7.7101,7.7101,7.7101,7.7101,7.7101,7.7179,7.8038,7.8897,7.9795,8.0654,8.1513,8.2293,8.2293,8.2293,8.2293,7.0898,7.0898,7.1042,7.1422,7.1489,7.1608,7.1951,7.2008,7.2012,7.1981,7.1987,7.199,7.199,7.1992,7.1992,7.1992,7.1992,7.164,7.0859,7.0742,7.0039,6.8476,6.8281,6.7812,6.7031,6.6953,6.6914,6.6914,6.6914,6.6914,6.6914,6.6914,6.6914,6.6914,6.6914,6.6914,6.6914,6.6914,6.6914,6.6914,6.6914,6.6953,6.7109,6.789,6.8281,6.8633,7.0156,7.0742,7.0937,7.1719,7.1992,7.1992,7.1992,7.1992,7.1992,7.1992,7.1992,7.1992,7.1992,7.1992,7.1992,7.1992,7.1992,7.1992,7.1992,7.1992,7.1992,7.1992,7.1992,7.1992,7.1992,7.1992,7.2578,7.4336,7.4609,7.5195,7.6953,7.7187,7.7187,7.7187,7.7187,7.7187,7.7187,7.7187,7.7186,7.7099,7.7089,7.7115,7.7101,7.7101,7.7101,7.7101,7.7101,7.7101,7.7101,7.7101,7.7101,7.7101,7.7101,7.7101,7.7101,7.7101,7.7101,7.7101,7.7101,7.7101,7.7179,7.796,7.8858,7.9795,8.0576,8.1474,8.2293,8.2293,8.2293,8.2293,7.0898,7.0898,7.1016,7.1426,7.149,7.1602,7.1963,7.1984,7.1987,7.1988,7.1991,7.1992,7.1992,7.1992,7.1992,7.1992,7.1992,7.1914,7.1719,7.1094,7.0547,7.0156,6.8906,6.8125,6.793,6.7265,6.6914,6.6914,6.6914,6.6914,6.6914,6.6914,6.6914,6.6914,6.6914,6.6914,6.6914,6.6914,6.6914,6.6914,6.6914,6.7305,6.793,6.8125,6.9023,7.0195,7.0586,7.1133,7.1758,7.1953,7.1992,7.1992,7.1992,7.1992,7.1992,7.1992,7.1992,7.1992,7.1992,7.1992,7.1992,7.1992,7.1992,7.1992,7.1992,7.1992,7.1992,7.1992,7.1992,7.1992,7.1992,7.1992,7.2578,7.4336,7.4609,7.5195,7.6953,7.7187,7.7187,7.7187,7.7187,7.7187,7.7187,7.7146,7.7101,7.7099,7.7081,7.7104,7.7101,7.7101,7.7101,7.7101,7.7101,7.7101,7.7101,7.7101,7.7101,7.7101,7.7101,7.7101,7.7101,7.7101,7.7101,7.7101,7.7101,7.7101,7.7101,7.7296,7.8311,7.9717,7.9912,8.0927,8.2293,8.2293,8.2293,8.2293,7.0898,7.0925,7.1053,7.1442,7.152,7.1638,7.1936,7.1988,7.199,7.1991,7.1992,7.1992,7.1992,7.1992,7.1992,7.1992,7.1992,7.1992,7.1992,7.1562,7.1133,7.0703,6.9492,6.8633,6.8203,6.7344,6.6914,6.6914,6.6914,6.6914,6.6914,6.6914,6.6914,6.6914,6.6914,6.6914,6.6914,6.6914,6.6914,6.6953,6.7344,6.7773,6.8281,6.9101,6.9922,7.0742,7.1172,7.1601,7.1992,7.1992,7.1992,7.1992,7.1992,7.1992,7.1992,7.1992,7.1992,7.1992,7.1992,7.1992,7.1992,7.1992,7.1992,7.1992,7.1992,7.1992,7.1992,7.1992,7.1992,7.1992,7.1992,7.2344,7.3047,7.4375,7.4961,7.5664,7.6992,7.7187,7.7187,7.7187,7.7187,7.7187,7.7187,7.7185,7.7141,7.7099,7.7085,7.711,7.7101,7.7101,7.7101,7.7101,7.7101,7.7101,7.7101,7.7101,7.7101,7.7101,7.7101,7.7101,7.7101,7.7101,7.7101,7.7101,7.7101,7.7101,7.7101,7.7101,7.8116,7.9717,7.9717,8.0771,8.2293,8.2293,8.2293,8.2293,7.0925,7.0979,7.1112,7.1466,7.1549,7.1705,7.1945,7.199,7.1991,7.1992,7.1992,7.1992,7.1992,7.1992,7.1992,7.1992,7.1992,7.1992,7.1992,7.1992,7.168,7.0937,7.0156,6.9375,6.8633,6.7656,6.7031,6.6914,6.6914,6.6914,6.6914,6.6914,6.6914,6.6914,6.6914,6.6914,6.6914,6.6914,6.6992,6.7187,6.789,6.8359,6.8789,7.0156,7.0781,7.1015,7.1758,7.1992,7.1992,7.1992,7.1992,7.1992,7.1992,7.1992,7.1992,7.1992,7.1992,7.1992,7.1992,7.1992,7.1992,7.1992,7.1992,7.1992,7.1992,7.1992,7.1992,7.1992,7.1992,7.2031,7.2187,7.2812,7.3633,7.4648,7.543,7.6211,7.707,7.7187,7.7187,7.7187,7.7187,7.7187,7.7187,7.7186,7.7183,7.7099,7.7089,7.7117,7.7101,7.7101,7.7101,7.7101,7.7101,7.7101,7.7101,7.7101,7.7101,7.7101,7.7101,7.7101,7.7101,7.7101,7.7101,7.7101,7.7101,7.7101,7.7101,7.7101,7.8116,7.9717,7.9717,8.0771,8.2293,8.2293,8.2293,8.2293,7.1068,7.1081,7.1192,7.1549,7.1608,7.1697,7.195,7.1992,7.1992,7.1992,7.1992,7.1992,7.1992,7.1992,7.1992,7.1992,7.1992,7.1992,7.1992,7.1992,7.1953,7.1836,7.1015,7.0469,7.0351,6.8828,6.7656,6.6914,6.6914,6.6914,6.6914,6.6914,6.6914,6.6914,6.6914,6.6914,6.6914,6.6914,6.7344,6.8047,6.8164,6.9062,7.039,7.0625,7.1172,7.1836,7.1953,7.1992,7.1992,7.1992,7.1992,7.1992,7.1992,7.1992,7.1992,7.1992,7.1992,7.1992,7.1992,7.1992,7.1992,7.1992,7.1992,7.1992,7.1992,7.1992,7.1992,7.1992,7.1992,7.2226,7.3008,7.3203,7.3828,7.5469,7.582,7.6211,7.707,7.7187,7.7187,7.7187,7.7187,7.7187,7.7187,7.7186,7.7183,7.7099,7.7089,7.7117,7.7101,7.7101,7.7101,7.7101,7.7101,7.7101,7.7101,7.7101,7.7101,7.7101,7.7101,7.7101,7.7101,7.7101,7.7101,7.7101,7.7101,7.7101,7.7101,7.7101,7.8116,7.9717,7.9717,8.0771,8.2293,8.2293,8.2293,8.2293,7.1093,7.113,7.1246,7.1562,7.1632,7.172,7.1951,7.1992,7.1992,7.1992,7.1992,7.1992,7.1992,7.1992,7.1992,7.1992,7.1992,7.1992,7.1992,7.1992,7.1992,7.1992,7.1172,7.0703,7.0703,6.9492,6.8711,6.8359,6.7383,6.6914,6.6914,6.6914,6.6914,6.6914,6.6914,6.6914,6.6914,6.7422,6.7851,6.8281,6.9219,7.0039,7.0742,7.125,7.168,7.1992,7.1992,7.1992,7.1992,7.1992,7.1992,7.1992,7.1992,7.1992,7.1992,7.1992,7.1992,7.1992,7.1992,7.1992,7.1992,7.1992,7.1992,7.1992,7.1992,7.1992,7.1992,7.1992,7.1992,7.2265,7.3125,7.3711,7.4453,7.5703,7.6328,7.6758,7.7148,7.7187,7.7187,7.7187,7.7187,7.7187,7.7187,7.7187,7.7185,7.7099,7.7094,7.7085,7.7101,7.7101,7.7101,7.7101,7.7101,7.7101,7.7101,7.7101,7.7101,7.7101,7.7101,7.7101,7.7101,7.7101,7.7101,7.7101,7.7101,7.7101,7.7101,7.7101,7.8116,7.9717,7.9717,8.0771,8.2293,8.2293,8.2293,8.2293]}]]